<?xml version="1.0" encoding="UTF-8" standalone="no" ?>
<gpx xmlns="http://www.topografix.com/GPX/1/1" xmlns:xsi="http://www.w3.org/2001/XMLSchema-instance" xsi:schemaLocation="http://www.topografix.com/GPX/1/1 http://www.topografix.com/GPX/1/1/gpx.xsd" version="1.1" creator="VisuGPX - https://www.visugpx.com">
  <metadata>
    <name>Bagnols - Mons</name>
    <desc><![CDATA[Sortie du 20 février 2011]]></desc>
  </metadata>
  <trk>
    <name><![CDATA[ACTIVE LOG-F-MNT-1]]></name>
    <trkseg>
      <trkpt lat="43.54169" lon="6.70001">
        <ele>288.890015</ele>
        <time>2011-02-20T07:58:09Z</time>
      </trkpt>
      <trkpt lat="43.54169" lon="6.70001">
        <ele>288.890015</ele>
        <time>2011-02-20T07:59:17Z</time>
      </trkpt>
      <trkpt lat="43.54167" lon="6.69999">
        <ele>288.238403</ele>
        <time>2011-02-20T07:59:23Z</time>
      </trkpt>
      <trkpt lat="43.54172" lon="6.70046">
        <ele>286.857971</ele>
        <time>2011-02-20T07:59:47Z</time>
      </trkpt>
      <trkpt lat="43.54184" lon="6.70046">
        <ele>290.484283</ele>
        <time>2011-02-20T07:59:54Z</time>
      </trkpt>
      <trkpt lat="43.54193" lon="6.70046">
        <ele>292.156891</ele>
        <time>2011-02-20T08:00:00Z</time>
      </trkpt>
      <trkpt lat="43.54197" lon="6.70046">
        <ele>292.991669</ele>
        <time>2011-02-20T08:00:03Z</time>
      </trkpt>
      <trkpt lat="43.54202" lon="6.70046">
        <ele>293.825439</ele>
        <time>2011-02-20T08:00:05Z</time>
      </trkpt>
      <trkpt lat="43.54223" lon="6.70052">
        <ele>297.583649</ele>
        <time>2011-02-20T08:00:22Z</time>
      </trkpt>
      <trkpt lat="43.54247" lon="6.70054">
        <ele>301.058411</ele>
        <time>2011-02-20T08:00:38Z</time>
      </trkpt>
      <trkpt lat="43.54264" lon="6.70061">
        <ele>303.45932</ele>
        <time>2011-02-20T08:00:54Z</time>
      </trkpt>
      <trkpt lat="43.5427" lon="6.70063">
        <ele>304.38266</ele>
        <time>2011-02-20T08:00:59Z</time>
      </trkpt>
      <trkpt lat="43.54281" lon="6.70067">
        <ele>305.924347</ele>
        <time>2011-02-20T08:01:07Z</time>
      </trkpt>
      <trkpt lat="43.54287" lon="6.70069">
        <ele>306.870087</ele>
        <time>2011-02-20T08:01:11Z</time>
      </trkpt>
      <trkpt lat="43.54296" lon="6.70072">
        <ele>308.153625</ele>
        <time>2011-02-20T08:01:17Z</time>
      </trkpt>
      <trkpt lat="43.54311" lon="6.70084">
        <ele>310.107239</ele>
        <time>2011-02-20T08:01:29Z</time>
      </trkpt>
      <trkpt lat="43.54332" lon="6.70089">
        <ele>311.068481</ele>
        <time>2011-02-20T08:01:41Z</time>
      </trkpt>
      <trkpt lat="43.54343" lon="6.70093">
        <ele>311.552948</ele>
        <time>2011-02-20T08:01:47Z</time>
      </trkpt>
      <trkpt lat="43.54354" lon="6.70099">
        <ele>311.95874</ele>
        <time>2011-02-20T08:01:53Z</time>
      </trkpt>
      <trkpt lat="43.54362" lon="6.70108">
        <ele>311.56189</ele>
        <time>2011-02-20T08:01:58Z</time>
      </trkpt>
      <trkpt lat="43.54358" lon="6.70121">
        <ele>311.729462</ele>
        <time>2011-02-20T08:02:02Z</time>
      </trkpt>
      <trkpt lat="43.5432" lon="6.70205">
        <ele>312.30246</ele>
        <time>2011-02-20T08:02:26Z</time>
      </trkpt>
      <trkpt lat="43.543" lon="6.70241">
        <ele>311.779785</ele>
        <time>2011-02-20T08:02:35Z</time>
      </trkpt>
      <trkpt lat="43.54285" lon="6.7031">
        <ele>309.969818</ele>
        <time>2011-02-20T08:02:47Z</time>
      </trkpt>
      <trkpt lat="43.54262" lon="6.7052">
        <ele>310.160034</ele>
        <time>2011-02-20T08:03:22Z</time>
      </trkpt>
      <trkpt lat="43.54279" lon="6.70539">
        <ele>309.33786</ele>
        <time>2011-02-20T08:03:26Z</time>
      </trkpt>
      <trkpt lat="43.54285" lon="6.70539">
        <ele>309.760223</ele>
        <time>2011-02-20T08:03:27Z</time>
      </trkpt>
      <trkpt lat="43.54324" lon="6.70544">
        <ele>311.396301</ele>
        <time>2011-02-20T08:03:38Z</time>
      </trkpt>
      <trkpt lat="43.54388" lon="6.70552">
        <ele>314.049866</ele>
        <time>2011-02-20T08:04:06Z</time>
      </trkpt>
      <trkpt lat="43.54399" lon="6.70554">
        <ele>314.640869</ele>
        <time>2011-02-20T08:04:11Z</time>
      </trkpt>
      <trkpt lat="43.5445" lon="6.70578">
        <ele>315.980042</ele>
        <time>2011-02-20T08:04:34Z</time>
      </trkpt>
      <trkpt lat="43.54457" lon="6.70574">
        <ele>316.644958</ele>
        <time>2011-02-20T08:04:37Z</time>
      </trkpt>
      <trkpt lat="43.54472" lon="6.70561">
        <ele>318.422516</ele>
        <time>2011-02-20T08:04:47Z</time>
      </trkpt>
      <trkpt lat="43.54496" lon="6.70554">
        <ele>320.125916</ele>
        <time>2011-02-20T08:04:58Z</time>
      </trkpt>
      <trkpt lat="43.54523" lon="6.70542">
        <ele>322.430817</ele>
        <time>2011-02-20T08:05:11Z</time>
      </trkpt>
      <trkpt lat="43.54549" lon="6.70535">
        <ele>323.656769</ele>
        <time>2011-02-20T08:05:23Z</time>
      </trkpt>
      <trkpt lat="43.54607" lon="6.70527">
        <ele>327.753845</ele>
        <time>2011-02-20T08:05:48Z</time>
      </trkpt>
      <trkpt lat="43.54656" lon="6.70488">
        <ele>330.45871</ele>
        <time>2011-02-20T08:06:08Z</time>
      </trkpt>
      <trkpt lat="43.5474" lon="6.70441">
        <ele>332.454803</ele>
        <time>2011-02-20T08:06:40Z</time>
      </trkpt>
      <trkpt lat="43.54794" lon="6.70419">
        <ele>335.695404</ele>
        <time>2011-02-20T08:06:59Z</time>
      </trkpt>
      <trkpt lat="43.54847" lon="6.70419">
        <ele>333.937408</ele>
        <time>2011-02-20T08:07:17Z</time>
      </trkpt>
      <trkpt lat="43.54875" lon="6.70391">
        <ele>331.003998</ele>
        <time>2011-02-20T08:07:23Z</time>
      </trkpt>
      <trkpt lat="43.5488" lon="6.70385">
        <ele>330.259094</ele>
        <time>2011-02-20T08:07:24Z</time>
      </trkpt>
      <trkpt lat="43.54884" lon="6.70378">
        <ele>329.058105</ele>
        <time>2011-02-20T08:07:25Z</time>
      </trkpt>
      <trkpt lat="43.54899" lon="6.70348">
        <ele>324.620667</ele>
        <time>2011-02-20T08:07:29Z</time>
      </trkpt>
      <trkpt lat="43.54923" lon="6.7028">
        <ele>320.817352</ele>
        <time>2011-02-20T08:07:37Z</time>
      </trkpt>
      <trkpt lat="43.5495" lon="6.70187">
        <ele>319.575195</ele>
        <time>2011-02-20T08:07:47Z</time>
      </trkpt>
      <trkpt lat="43.54965" lon="6.70142">
        <ele>317.256409</ele>
        <time>2011-02-20T08:07:51Z</time>
      </trkpt>
      <trkpt lat="43.54972" lon="6.70102">
        <ele>315.074738</ele>
        <time>2011-02-20T08:07:54Z</time>
      </trkpt>
      <trkpt lat="43.54978" lon="6.70046">
        <ele>312.868866</ele>
        <time>2011-02-20T08:07:58Z</time>
      </trkpt>
      <trkpt lat="43.5498" lon="6.70031">
        <ele>312.567261</ele>
        <time>2011-02-20T08:07:59Z</time>
      </trkpt>
      <trkpt lat="43.54989" lon="6.70005">
        <ele>310.336853</ele>
        <time>2011-02-20T08:08:01Z</time>
      </trkpt>
      <trkpt lat="43.54995" lon="6.69977">
        <ele>308.376465</ele>
        <time>2011-02-20T08:08:03Z</time>
      </trkpt>
      <trkpt lat="43.55" lon="6.69962">
        <ele>307.040253</ele>
        <time>2011-02-20T08:08:04Z</time>
      </trkpt>
      <trkpt lat="43.55019" lon="6.69909">
        <ele>302.427338</ele>
        <time>2011-02-20T08:08:08Z</time>
      </trkpt>
      <trkpt lat="43.55045" lon="6.69881">
        <ele>299.006927</ele>
        <time>2011-02-20T08:08:11Z</time>
      </trkpt>
      <trkpt lat="43.55066" lon="6.69876">
        <ele>297.415924</ele>
        <time>2011-02-20T08:08:13Z</time>
      </trkpt>
      <trkpt lat="43.55118" lon="6.69906">
        <ele>299.966736</ele>
        <time>2011-02-20T08:08:19Z</time>
      </trkpt>
      <trkpt lat="43.55156" lon="6.69943">
        <ele>301.905792</ele>
        <time>2011-02-20T08:08:27Z</time>
      </trkpt>
      <trkpt lat="43.55159" lon="6.69945">
        <ele>302.099884</ele>
        <time>2011-02-20T08:08:28Z</time>
      </trkpt>
      <trkpt lat="43.55176" lon="6.69971">
        <ele>303.602875</ele>
        <time>2011-02-20T08:08:35Z</time>
      </trkpt>
      <trkpt lat="43.55184" lon="6.69988">
        <ele>304.844086</ele>
        <time>2011-02-20T08:08:41Z</time>
      </trkpt>
      <trkpt lat="43.55191" lon="6.70024">
        <ele>307.084961</ele>
        <time>2011-02-20T08:08:53Z</time>
      </trkpt>
      <trkpt lat="43.55191" lon="6.70042">
        <ele>306.600952</ele>
        <time>2011-02-20T08:08:59Z</time>
      </trkpt>
      <trkpt lat="43.55201" lon="6.70097">
        <ele>307.455597</ele>
        <time>2011-02-20T08:09:17Z</time>
      </trkpt>
      <trkpt lat="43.5521" lon="6.70115">
        <ele>306.895508</ele>
        <time>2011-02-20T08:09:23Z</time>
      </trkpt>
      <trkpt lat="43.55234" lon="6.70142">
        <ele>307.586548</ele>
        <time>2011-02-20T08:09:35Z</time>
      </trkpt>
      <trkpt lat="43.55249" lon="6.70151">
        <ele>310.00177</ele>
        <time>2011-02-20T08:09:41Z</time>
      </trkpt>
      <trkpt lat="43.55279" lon="6.70162">
        <ele>311.317139</ele>
        <time>2011-02-20T08:09:52Z</time>
      </trkpt>
      <trkpt lat="43.55298" lon="6.70168">
        <ele>311.473846</ele>
        <time>2011-02-20T08:09:59Z</time>
      </trkpt>
      <trkpt lat="43.5533" lon="6.70168">
        <ele>315.137817</ele>
        <time>2011-02-20T08:10:11Z</time>
      </trkpt>
      <trkpt lat="43.55358" lon="6.70179">
        <ele>317.863953</ele>
        <time>2011-02-20T08:10:23Z</time>
      </trkpt>
      <trkpt lat="43.55371" lon="6.70187">
        <ele>319.731659</ele>
        <time>2011-02-20T08:10:29Z</time>
      </trkpt>
      <trkpt lat="43.55384" lon="6.702">
        <ele>322.018158</ele>
        <time>2011-02-20T08:10:35Z</time>
      </trkpt>
      <trkpt lat="43.55427" lon="6.70263">
        <ele>325.154388</ele>
        <time>2011-02-20T08:10:59Z</time>
      </trkpt>
      <trkpt lat="43.55442" lon="6.70273">
        <ele>326.042297</ele>
        <time>2011-02-20T08:11:05Z</time>
      </trkpt>
      <trkpt lat="43.55459" lon="6.7028">
        <ele>326.916595</ele>
        <time>2011-02-20T08:11:11Z</time>
      </trkpt>
      <trkpt lat="43.55476" lon="6.70282">
        <ele>328.24469</ele>
        <time>2011-02-20T08:11:17Z</time>
      </trkpt>
      <trkpt lat="43.55493" lon="6.70275">
        <ele>330.106842</ele>
        <time>2011-02-20T08:11:23Z</time>
      </trkpt>
      <trkpt lat="43.55577" lon="6.70222">
        <ele>327.207794</ele>
        <time>2011-02-20T08:11:50Z</time>
      </trkpt>
      <trkpt lat="43.55601" lon="6.70207">
        <ele>327.681915</ele>
        <time>2011-02-20T08:11:59Z</time>
      </trkpt>
      <trkpt lat="43.55652" lon="6.70177">
        <ele>333.233124</ele>
        <time>2011-02-20T08:12:18Z</time>
      </trkpt>
      <trkpt lat="43.55716" lon="6.70145">
        <ele>333.485077</ele>
        <time>2011-02-20T08:12:41Z</time>
      </trkpt>
      <trkpt lat="43.558" lon="6.70087">
        <ele>331.370575</ele>
        <time>2011-02-20T08:13:01Z</time>
      </trkpt>
      <trkpt lat="43.55858" lon="6.70054">
        <ele>328.010223</ele>
        <time>2011-02-20T08:13:09Z</time>
      </trkpt>
      <trkpt lat="43.55873" lon="6.70046">
        <ele>326.958435</ele>
        <time>2011-02-20T08:13:11Z</time>
      </trkpt>
      <trkpt lat="43.55905" lon="6.70029">
        <ele>324.29184</ele>
        <time>2011-02-20T08:13:15Z</time>
      </trkpt>
      <trkpt lat="43.55912" lon="6.70024">
        <ele>323.735138</ele>
        <time>2011-02-20T08:13:16Z</time>
      </trkpt>
      <trkpt lat="43.55963" lon="6.69994">
        <ele>320.778076</ele>
        <time>2011-02-20T08:13:22Z</time>
      </trkpt>
      <trkpt lat="43.56107" lon="6.69913">
        <ele>316.719971</ele>
        <time>2011-02-20T08:13:41Z</time>
      </trkpt>
      <trkpt lat="43.56169" lon="6.69872">
        <ele>319.387238</ele>
        <time>2011-02-20T08:13:53Z</time>
      </trkpt>
      <trkpt lat="43.56195" lon="6.69853">
        <ele>320.722473</ele>
        <time>2011-02-20T08:13:59Z</time>
      </trkpt>
      <trkpt lat="43.56294" lon="6.69818">
        <ele>320.651001</ele>
        <time>2011-02-20T08:14:19Z</time>
      </trkpt>
      <trkpt lat="43.56422" lon="6.69788">
        <ele>317.771332</ele>
        <time>2011-02-20T08:14:41Z</time>
      </trkpt>
      <trkpt lat="43.56532" lon="6.69786">
        <ele>320.990479</ele>
        <time>2011-02-20T08:15:04Z</time>
      </trkpt>
      <trkpt lat="43.56536" lon="6.69788">
        <ele>321.02359</ele>
        <time>2011-02-20T08:15:05Z</time>
      </trkpt>
      <trkpt lat="43.56596" lon="6.69812">
        <ele>322.243347</ele>
        <time>2011-02-20T08:15:23Z</time>
      </trkpt>
      <trkpt lat="43.56646" lon="6.69829">
        <ele>323.886963</ele>
        <time>2011-02-20T08:15:39Z</time>
      </trkpt>
      <trkpt lat="43.5671" lon="6.69853">
        <ele>322.713013</ele>
        <time>2011-02-20T08:16:00Z</time>
      </trkpt>
      <trkpt lat="43.56791" lon="6.69844">
        <ele>319.501099</ele>
        <time>2011-02-20T08:16:22Z</time>
      </trkpt>
      <trkpt lat="43.56809" lon="6.69842">
        <ele>318.07486</ele>
        <time>2011-02-20T08:16:26Z</time>
      </trkpt>
      <trkpt lat="43.5686" lon="6.69821">
        <ele>315.707092</ele>
        <time>2011-02-20T08:16:35Z</time>
      </trkpt>
      <trkpt lat="43.56948" lon="6.69797">
        <ele>310.538055</ele>
        <time>2011-02-20T08:16:45Z</time>
      </trkpt>
      <trkpt lat="43.57002" lon="6.69763">
        <ele>309.000488</ele>
        <time>2011-02-20T08:16:47Z</time>
      </trkpt>
      <trkpt lat="43.5707" lon="6.69771">
        <ele>305.588928</ele>
        <time>2011-02-20T08:16:54Z</time>
      </trkpt>
      <trkpt lat="43.57107" lon="6.69767">
        <ele>304.881805</ele>
        <time>2011-02-20T08:16:58Z</time>
      </trkpt>
      <trkpt lat="43.57163" lon="6.69756">
        <ele>302.571777</ele>
        <time>2011-02-20T08:17:04Z</time>
      </trkpt>
      <trkpt lat="43.57206" lon="6.69754">
        <ele>300.146027</ele>
        <time>2011-02-20T08:17:08Z</time>
      </trkpt>
      <trkpt lat="43.57216" lon="6.69752">
        <ele>299.661224</ele>
        <time>2011-02-20T08:17:09Z</time>
      </trkpt>
      <trkpt lat="43.57246" lon="6.69741">
        <ele>298.631073</ele>
        <time>2011-02-20T08:17:12Z</time>
      </trkpt>
      <trkpt lat="43.57291" lon="6.69733">
        <ele>295.781433</ele>
        <time>2011-02-20T08:17:16Z</time>
      </trkpt>
      <trkpt lat="43.57324" lon="6.69737">
        <ele>293.449402</ele>
        <time>2011-02-20T08:17:19Z</time>
      </trkpt>
      <trkpt lat="43.57337" lon="6.69741">
        <ele>292.3125</ele>
        <time>2011-02-20T08:17:20Z</time>
      </trkpt>
      <trkpt lat="43.57392" lon="6.69739">
        <ele>286.497803</ele>
        <time>2011-02-20T08:17:25Z</time>
      </trkpt>
      <trkpt lat="43.57403" lon="6.69737">
        <ele>285.318573</ele>
        <time>2011-02-20T08:17:26Z</time>
      </trkpt>
      <trkpt lat="43.5744" lon="6.69739">
        <ele>281.516968</ele>
        <time>2011-02-20T08:17:29Z</time>
      </trkpt>
      <trkpt lat="43.57487" lon="6.69737">
        <ele>280.18985</ele>
        <time>2011-02-20T08:17:33Z</time>
      </trkpt>
      <trkpt lat="43.5753" lon="6.69735">
        <ele>279.422516</ele>
        <time>2011-02-20T08:17:37Z</time>
      </trkpt>
      <trkpt lat="43.57553" lon="6.69735">
        <ele>278.519257</ele>
        <time>2011-02-20T08:17:39Z</time>
      </trkpt>
      <trkpt lat="43.57596" lon="6.69735">
        <ele>277.122986</ele>
        <time>2011-02-20T08:17:43Z</time>
      </trkpt>
      <trkpt lat="43.57639" lon="6.69737">
        <ele>275.727142</ele>
        <time>2011-02-20T08:17:47Z</time>
      </trkpt>
      <trkpt lat="43.57682" lon="6.69739">
        <ele>274.433899</ele>
        <time>2011-02-20T08:17:51Z</time>
      </trkpt>
      <trkpt lat="43.57703" lon="6.69743">
        <ele>273.05899</ele>
        <time>2011-02-20T08:17:53Z</time>
      </trkpt>
      <trkpt lat="43.57746" lon="6.69745">
        <ele>271.803192</ele>
        <time>2011-02-20T08:17:57Z</time>
      </trkpt>
      <trkpt lat="43.57841" lon="6.6976">
        <ele>266.591309</ele>
        <time>2011-02-20T08:18:06Z</time>
      </trkpt>
      <trkpt lat="43.57849" lon="6.6976">
        <ele>266.099548</ele>
        <time>2011-02-20T08:18:07Z</time>
      </trkpt>
      <trkpt lat="43.57867" lon="6.69769">
        <ele>263.666412</ele>
        <time>2011-02-20T08:18:09Z</time>
      </trkpt>
      <trkpt lat="43.57875" lon="6.69773">
        <ele>262.586945</ele>
        <time>2011-02-20T08:18:10Z</time>
      </trkpt>
      <trkpt lat="43.57888" lon="6.69784">
        <ele>260.978546</ele>
        <time>2011-02-20T08:18:12Z</time>
      </trkpt>
      <trkpt lat="43.57912" lon="6.69801">
        <ele>259.84433</ele>
        <time>2011-02-20T08:18:16Z</time>
      </trkpt>
      <trkpt lat="43.57957" lon="6.6984">
        <ele>261.409882</ele>
        <time>2011-02-20T08:18:31Z</time>
      </trkpt>
      <trkpt lat="43.57974" lon="6.69853">
        <ele>263.428009</ele>
        <time>2011-02-20T08:18:37Z</time>
      </trkpt>
      <trkpt lat="43.58015" lon="6.69863">
        <ele>269.548798</ele>
        <time>2011-02-20T08:18:51Z</time>
      </trkpt>
      <trkpt lat="43.58036" lon="6.69866">
        <ele>271.23877</ele>
        <time>2011-02-20T08:18:59Z</time>
      </trkpt>
      <trkpt lat="43.58075" lon="6.69866">
        <ele>273.249817</ele>
        <time>2011-02-20T08:19:16Z</time>
      </trkpt>
      <trkpt lat="43.58088" lon="6.6987">
        <ele>273.526245</ele>
        <time>2011-02-20T08:19:22Z</time>
      </trkpt>
      <trkpt lat="43.581" lon="6.69881">
        <ele>274.004303</ele>
        <time>2011-02-20T08:19:28Z</time>
      </trkpt>
      <trkpt lat="43.58135" lon="6.69966">
        <ele>276.249451</ele>
        <time>2011-02-20T08:19:59Z</time>
      </trkpt>
      <trkpt lat="43.58171" lon="6.70016">
        <ele>279.424042</ele>
        <time>2011-02-20T08:20:20Z</time>
      </trkpt>
      <trkpt lat="43.58201" lon="6.70065">
        <ele>281.320465</ele>
        <time>2011-02-20T08:20:40Z</time>
      </trkpt>
      <trkpt lat="43.58231" lon="6.70134">
        <ele>282.23941</ele>
        <time>2011-02-20T08:21:05Z</time>
      </trkpt>
      <trkpt lat="43.58272" lon="6.70192">
        <ele>285.987488</ele>
        <time>2011-02-20T08:21:29Z</time>
      </trkpt>
      <trkpt lat="43.58283" lon="6.70185">
        <ele>287.954468</ele>
        <time>2011-02-20T08:21:34Z</time>
      </trkpt>
      <trkpt lat="43.58291" lon="6.70175">
        <ele>290.942902</ele>
        <time>2011-02-20T08:21:38Z</time>
      </trkpt>
      <trkpt lat="43.58287" lon="6.7016">
        <ele>291.992279</ele>
        <time>2011-02-20T08:21:43Z</time>
      </trkpt>
      <trkpt lat="43.58268" lon="6.70112">
        <ele>292.486908</ele>
        <time>2011-02-20T08:21:59Z</time>
      </trkpt>
      <trkpt lat="43.58253" lon="6.70078">
        <ele>294.020477</ele>
        <time>2011-02-20T08:22:12Z</time>
      </trkpt>
      <trkpt lat="43.58223" lon="6.69999">
        <ele>295.386261</ele>
        <time>2011-02-20T08:22:41Z</time>
      </trkpt>
      <trkpt lat="43.58199" lon="6.69947">
        <ele>298.248627</ele>
        <time>2011-02-20T08:23:01Z</time>
      </trkpt>
      <trkpt lat="43.58158" lon="6.69863">
        <ele>296.803802</ele>
        <time>2011-02-20T08:23:32Z</time>
      </trkpt>
      <trkpt lat="43.58148" lon="6.69842">
        <ele>295.592255</ele>
        <time>2011-02-20T08:23:40Z</time>
      </trkpt>
      <trkpt lat="43.58143" lon="6.69825">
        <ele>295.862579</ele>
        <time>2011-02-20T08:23:46Z</time>
      </trkpt>
      <trkpt lat="43.58152" lon="6.69756">
        <ele>298.896179</ele>
        <time>2011-02-20T08:24:08Z</time>
      </trkpt>
      <trkpt lat="43.58154" lon="6.69745">
        <ele>299.365814</ele>
        <time>2011-02-20T08:24:11Z</time>
      </trkpt>
      <trkpt lat="43.58165" lon="6.69711">
        <ele>301.334534</ele>
        <time>2011-02-20T08:24:23Z</time>
      </trkpt>
      <trkpt lat="43.58197" lon="6.69647">
        <ele>305.175903</ele>
        <time>2011-02-20T08:24:47Z</time>
      </trkpt>
      <trkpt lat="43.58206" lon="6.69645">
        <ele>305.720367</ele>
        <time>2011-02-20T08:24:50Z</time>
      </trkpt>
      <trkpt lat="43.58216" lon="6.69642">
        <ele>306.390808</ele>
        <time>2011-02-20T08:24:54Z</time>
      </trkpt>
      <trkpt lat="43.58244" lon="6.69638">
        <ele>307.945587</ele>
        <time>2011-02-20T08:25:05Z</time>
      </trkpt>
      <trkpt lat="43.58328" lon="6.69619">
        <ele>307.115326</ele>
        <time>2011-02-20T08:25:33Z</time>
      </trkpt>
      <trkpt lat="43.58339" lon="6.69619">
        <ele>307.021606</ele>
        <time>2011-02-20T08:25:35Z</time>
      </trkpt>
      <trkpt lat="43.58429" lon="6.69617">
        <ele>305.950592</ele>
        <time>2011-02-20T08:25:53Z</time>
      </trkpt>
      <trkpt lat="43.58459" lon="6.6961">
        <ele>305.797638</ele>
        <time>2011-02-20T08:25:59Z</time>
      </trkpt>
      <trkpt lat="43.58491" lon="6.69606">
        <ele>304.931396</ele>
        <time>2011-02-20T08:26:05Z</time>
      </trkpt>
      <trkpt lat="43.58508" lon="6.69595">
        <ele>304.256561</ele>
        <time>2011-02-20T08:26:08Z</time>
      </trkpt>
      <trkpt lat="43.58553" lon="6.69561">
        <ele>301.19397</ele>
        <time>2011-02-20T08:26:15Z</time>
      </trkpt>
      <trkpt lat="43.5856" lon="6.69552">
        <ele>300.884247</ele>
        <time>2011-02-20T08:26:16Z</time>
      </trkpt>
      <trkpt lat="43.58579" lon="6.69527">
        <ele>299.017426</ele>
        <time>2011-02-20T08:26:19Z</time>
      </trkpt>
      <trkpt lat="43.586" lon="6.6949">
        <ele>298.54248</ele>
        <time>2011-02-20T08:26:23Z</time>
      </trkpt>
      <trkpt lat="43.58643" lon="6.6943">
        <ele>293.629364</ele>
        <time>2011-02-20T08:26:30Z</time>
      </trkpt>
      <trkpt lat="43.58691" lon="6.69359">
        <ele>285.679657</ele>
        <time>2011-02-20T08:26:38Z</time>
      </trkpt>
      <trkpt lat="43.58701" lon="6.6934">
        <ele>282.788757</ele>
        <time>2011-02-20T08:26:40Z</time>
      </trkpt>
      <trkpt lat="43.58712" lon="6.69336">
        <ele>281.25528</ele>
        <time>2011-02-20T08:26:45Z</time>
      </trkpt>
      <trkpt lat="43.58708" lon="6.69357">
        <ele>281.56723</ele>
        <time>2011-02-20T08:26:48Z</time>
      </trkpt>
      <trkpt lat="43.58697" lon="6.69443">
        <ele>280.683472</ele>
        <time>2011-02-20T08:26:57Z</time>
      </trkpt>
      <trkpt lat="43.58691" lon="6.69518">
        <ele>283.541107</ele>
        <time>2011-02-20T08:27:04Z</time>
      </trkpt>
      <trkpt lat="43.58706" lon="6.69512">
        <ele>283.850861</ele>
        <time>2011-02-20T08:27:07Z</time>
      </trkpt>
      <trkpt lat="43.58738" lon="6.69494">
        <ele>285.720947</ele>
        <time>2011-02-20T08:27:15Z</time>
      </trkpt>
      <trkpt lat="43.58783" lon="6.69464">
        <ele>288.058655</ele>
        <time>2011-02-20T08:27:31Z</time>
      </trkpt>
      <trkpt lat="43.58841" lon="6.69432">
        <ele>286.29422</ele>
        <time>2011-02-20T08:27:52Z</time>
      </trkpt>
      <trkpt lat="43.5886" lon="6.69428">
        <ele>284.557831</ele>
        <time>2011-02-20T08:27:58Z</time>
      </trkpt>
      <trkpt lat="43.58869" lon="6.6943">
        <ele>284.058563</ele>
        <time>2011-02-20T08:27:59Z</time>
      </trkpt>
      <trkpt lat="43.58884" lon="6.69434">
        <ele>283.136292</ele>
        <time>2011-02-20T08:28:01Z</time>
      </trkpt>
      <trkpt lat="43.58909" lon="6.69443">
        <ele>280.758575</ele>
        <time>2011-02-20T08:28:04Z</time>
      </trkpt>
      <trkpt lat="43.58937" lon="6.69454">
        <ele>278.882813</ele>
        <time>2011-02-20T08:28:07Z</time>
      </trkpt>
      <trkpt lat="43.58948" lon="6.69458">
        <ele>278.435333</ele>
        <time>2011-02-20T08:28:08Z</time>
      </trkpt>
      <trkpt lat="43.58999" lon="6.69477">
        <ele>276.381989</ele>
        <time>2011-02-20T08:28:13Z</time>
      </trkpt>
      <trkpt lat="43.59025" lon="6.69471">
        <ele>275.365997</ele>
        <time>2011-02-20T08:28:16Z</time>
      </trkpt>
      <trkpt lat="43.5906" lon="6.69456">
        <ele>274.046875</ele>
        <time>2011-02-20T08:28:21Z</time>
      </trkpt>
      <trkpt lat="43.59072" lon="6.69449">
        <ele>273.830597</ele>
        <time>2011-02-20T08:28:24Z</time>
      </trkpt>
      <trkpt lat="43.59118" lon="6.69432">
        <ele>274.093475</ele>
        <time>2011-02-20T08:28:41Z</time>
      </trkpt>
      <trkpt lat="43.59178" lon="6.69413">
        <ele>276.554962</ele>
        <time>2011-02-20T08:29:06Z</time>
      </trkpt>
      <trkpt lat="43.59203" lon="6.69402">
        <ele>276.908813</ele>
        <time>2011-02-20T08:29:17Z</time>
      </trkpt>
      <trkpt lat="43.59246" lon="6.69379">
        <ele>274.495422</ele>
        <time>2011-02-20T08:29:30Z</time>
      </trkpt>
      <trkpt lat="43.59278" lon="6.69357">
        <ele>270.476776</ele>
        <time>2011-02-20T08:29:34Z</time>
      </trkpt>
      <trkpt lat="43.59302" lon="6.69342">
        <ele>267.731598</ele>
        <time>2011-02-20T08:29:37Z</time>
      </trkpt>
      <trkpt lat="43.59311" lon="6.69336">
        <ele>266.793182</ele>
        <time>2011-02-20T08:29:38Z</time>
      </trkpt>
      <trkpt lat="43.59336" lon="6.69325">
        <ele>264.625183</ele>
        <time>2011-02-20T08:29:41Z</time>
      </trkpt>
      <trkpt lat="43.5939" lon="6.69301">
        <ele>261.167053</ele>
        <time>2011-02-20T08:29:46Z</time>
      </trkpt>
      <trkpt lat="43.59422" lon="6.69288">
        <ele>260.730988</ele>
        <time>2011-02-20T08:29:50Z</time>
      </trkpt>
      <trkpt lat="43.59446" lon="6.69284">
        <ele>259.794891</ele>
        <time>2011-02-20T08:29:53Z</time>
      </trkpt>
      <trkpt lat="43.59461" lon="6.69282">
        <ele>259.14035</ele>
        <time>2011-02-20T08:29:55Z</time>
      </trkpt>
      <trkpt lat="43.59489" lon="6.69258">
        <ele>257.595917</ele>
        <time>2011-02-20T08:29:59Z</time>
      </trkpt>
      <trkpt lat="43.59493" lon="6.6925">
        <ele>257.276703</ele>
        <time>2011-02-20T08:30:00Z</time>
      </trkpt>
      <trkpt lat="43.59497" lon="6.69241">
        <ele>256.957489</ele>
        <time>2011-02-20T08:30:01Z</time>
      </trkpt>
      <trkpt lat="43.59514" lon="6.69218">
        <ele>255.792252</ele>
        <time>2011-02-20T08:30:04Z</time>
      </trkpt>
      <trkpt lat="43.59538" lon="6.69198">
        <ele>254.876541</ele>
        <time>2011-02-20T08:30:07Z</time>
      </trkpt>
      <trkpt lat="43.59566" lon="6.69168">
        <ele>254.007599</ele>
        <time>2011-02-20T08:30:11Z</time>
      </trkpt>
      <trkpt lat="43.59575" lon="6.69153">
        <ele>253.916245</ele>
        <time>2011-02-20T08:30:13Z</time>
      </trkpt>
      <trkpt lat="43.59587" lon="6.69147">
        <ele>253.829437</ele>
        <time>2011-02-20T08:30:16Z</time>
      </trkpt>
      <trkpt lat="43.59648" lon="6.69106">
        <ele>254.351166</ele>
        <time>2011-02-20T08:30:30Z</time>
      </trkpt>
      <trkpt lat="43.59658" lon="6.69095">
        <ele>254.537628</ele>
        <time>2011-02-20T08:30:33Z</time>
      </trkpt>
      <trkpt lat="43.5971" lon="6.69057">
        <ele>254.056259</ele>
        <time>2011-02-20T08:30:47Z</time>
      </trkpt>
      <trkpt lat="43.59718" lon="6.6905">
        <ele>253.800903</ele>
        <time>2011-02-20T08:30:50Z</time>
      </trkpt>
      <trkpt lat="43.59785" lon="6.69009">
        <ele>252.312408</ele>
        <time>2011-02-20T08:31:10Z</time>
      </trkpt>
      <trkpt lat="43.59888" lon="6.68973">
        <ele>249.231369</ele>
        <time>2011-02-20T08:31:32Z</time>
      </trkpt>
      <trkpt lat="43.6001" lon="6.68906">
        <ele>245.363174</ele>
        <time>2011-02-20T08:32:01Z</time>
      </trkpt>
      <trkpt lat="43.60051" lon="6.68881">
        <ele>244.267502</ele>
        <time>2011-02-20T08:32:10Z</time>
      </trkpt>
      <trkpt lat="43.60145" lon="6.68851">
        <ele>241.284302</ele>
        <time>2011-02-20T08:32:18Z</time>
      </trkpt>
      <trkpt lat="43.60173" lon="6.68846">
        <ele>240.073593</ele>
        <time>2011-02-20T08:32:21Z</time>
      </trkpt>
      <trkpt lat="43.60201" lon="6.6884">
        <ele>238.183975</ele>
        <time>2011-02-20T08:32:24Z</time>
      </trkpt>
      <trkpt lat="43.60229" lon="6.68836">
        <ele>237.143326</ele>
        <time>2011-02-20T08:32:27Z</time>
      </trkpt>
      <trkpt lat="43.6024" lon="6.68833">
        <ele>236.859024</ele>
        <time>2011-02-20T08:32:28Z</time>
      </trkpt>
      <trkpt lat="43.60328" lon="6.68818">
        <ele>234.027573</ele>
        <time>2011-02-20T08:32:37Z</time>
      </trkpt>
      <trkpt lat="43.60431" lon="6.68795">
        <ele>234.678986</ele>
        <time>2011-02-20T08:32:51Z</time>
      </trkpt>
      <trkpt lat="43.60444" lon="6.68788">
        <ele>234.918549</ele>
        <time>2011-02-20T08:32:53Z</time>
      </trkpt>
      <trkpt lat="43.60559" lon="6.6872">
        <ele>236.048492</ele>
        <time>2011-02-20T08:33:15Z</time>
      </trkpt>
      <trkpt lat="43.60697" lon="6.68677">
        <ele>234.897583</ele>
        <time>2011-02-20T08:33:43Z</time>
      </trkpt>
      <trkpt lat="43.60712" lon="6.68673">
        <ele>234.655472</ele>
        <time>2011-02-20T08:33:47Z</time>
      </trkpt>
      <trkpt lat="43.60836" lon="6.68634">
        <ele>234.022858</ele>
        <time>2011-02-20T08:34:13Z</time>
      </trkpt>
      <trkpt lat="43.60858" lon="6.68625">
        <ele>234.203766</ele>
        <time>2011-02-20T08:34:17Z</time>
      </trkpt>
      <trkpt lat="43.6089" lon="6.68623">
        <ele>234.352264</ele>
        <time>2011-02-20T08:34:23Z</time>
      </trkpt>
      <trkpt lat="43.611" lon="6.68668">
        <ele>233.577484</ele>
        <time>2011-02-20T08:35:04Z</time>
      </trkpt>
      <trkpt lat="43.6118" lon="6.6869">
        <ele>231</ele>
        <time>2011-02-20T08:35:27Z</time>
      </trkpt>
      <trkpt lat="43.61295" lon="6.6872">
        <ele>234.019974</ele>
        <time>2011-02-20T08:35:56Z</time>
      </trkpt>
      <trkpt lat="43.61375" lon="6.6873">
        <ele>236.673279</ele>
        <time>2011-02-20T08:36:15Z</time>
      </trkpt>
      <trkpt lat="43.61405" lon="6.68737">
        <ele>237.922363</ele>
        <time>2011-02-20T08:36:23Z</time>
      </trkpt>
      <trkpt lat="43.6145" lon="6.68758">
        <ele>239.963074</ele>
        <time>2011-02-20T08:36:35Z</time>
      </trkpt>
      <trkpt lat="43.61469" lon="6.68773">
        <ele>240.848083</ele>
        <time>2011-02-20T08:36:41Z</time>
      </trkpt>
      <trkpt lat="43.61482" lon="6.68793">
        <ele>241.227356</ele>
        <time>2011-02-20T08:36:46Z</time>
      </trkpt>
      <trkpt lat="43.61501" lon="6.6878">
        <ele>241.644913</ele>
        <time>2011-02-20T08:36:52Z</time>
      </trkpt>
      <trkpt lat="43.61504" lon="6.68776">
        <ele>241.688751</ele>
        <time>2011-02-20T08:36:53Z</time>
      </trkpt>
      <trkpt lat="43.61508" lon="6.68773">
        <ele>241.782181</ele>
        <time>2011-02-20T08:36:54Z</time>
      </trkpt>
      <trkpt lat="43.61516" lon="6.68767">
        <ele>241.967117</ele>
        <time>2011-02-20T08:36:57Z</time>
      </trkpt>
      <trkpt lat="43.61589" lon="6.68739">
        <ele>243.56311</ele>
        <time>2011-02-20T08:37:17Z</time>
      </trkpt>
      <trkpt lat="43.61634" lon="6.68748">
        <ele>244.810165</ele>
        <time>2011-02-20T08:37:29Z</time>
      </trkpt>
      <trkpt lat="43.61656" lon="6.68758">
        <ele>245.647018</ele>
        <time>2011-02-20T08:37:35Z</time>
      </trkpt>
      <trkpt lat="43.61675" lon="6.68769">
        <ele>246.352417</ele>
        <time>2011-02-20T08:37:41Z</time>
      </trkpt>
      <trkpt lat="43.61727" lon="6.68818">
        <ele>247.685272</ele>
        <time>2011-02-20T08:37:59Z</time>
      </trkpt>
      <trkpt lat="43.6178" lon="6.68851">
        <ele>248.90593</ele>
        <time>2011-02-20T08:38:16Z</time>
      </trkpt>
      <trkpt lat="43.61795" lon="6.68866">
        <ele>249.376465</ele>
        <time>2011-02-20T08:38:22Z</time>
      </trkpt>
      <trkpt lat="43.61806" lon="6.68887">
        <ele>249.967178</ele>
        <time>2011-02-20T08:38:28Z</time>
      </trkpt>
      <trkpt lat="43.61808" lon="6.68917">
        <ele>250.523987</ele>
        <time>2011-02-20T08:38:35Z</time>
      </trkpt>
      <trkpt lat="43.61808" lon="6.6893">
        <ele>250.537582</ele>
        <time>2011-02-20T08:38:38Z</time>
      </trkpt>
      <trkpt lat="43.61813" lon="6.68947">
        <ele>250.585007</ele>
        <time>2011-02-20T08:38:42Z</time>
      </trkpt>
      <trkpt lat="43.61819" lon="6.68962">
        <ele>250.775009</ele>
        <time>2011-02-20T08:38:46Z</time>
      </trkpt>
      <trkpt lat="43.61881" lon="6.68973">
        <ele>252.256042</ele>
        <time>2011-02-20T08:39:06Z</time>
      </trkpt>
      <trkpt lat="43.61937" lon="6.68982">
        <ele>253.594177</ele>
        <time>2011-02-20T08:39:23Z</time>
      </trkpt>
      <trkpt lat="43.62004" lon="6.69016">
        <ele>255.023727</ele>
        <time>2011-02-20T08:39:47Z</time>
      </trkpt>
      <trkpt lat="43.6207" lon="6.69031">
        <ele>257.503204</ele>
        <time>2011-02-20T08:40:12Z</time>
      </trkpt>
      <trkpt lat="43.62083" lon="6.69033">
        <ele>257.791168</ele>
        <time>2011-02-20T08:40:17Z</time>
      </trkpt>
      <trkpt lat="43.62092" lon="6.69035">
        <ele>257.983795</ele>
        <time>2011-02-20T08:40:21Z</time>
      </trkpt>
      <trkpt lat="43.62102" lon="6.69037">
        <ele>258.787933</ele>
        <time>2011-02-20T08:40:26Z</time>
      </trkpt>
      <trkpt lat="43.62109" lon="6.69039">
        <ele>259.307434</ele>
        <time>2011-02-20T08:40:29Z</time>
      </trkpt>
      <trkpt lat="43.62132" lon="6.69052">
        <ele>261.368011</ele>
        <time>2011-02-20T08:40:41Z</time>
      </trkpt>
      <trkpt lat="43.62154" lon="6.69065">
        <ele>264.186218</ele>
        <time>2011-02-20T08:40:52Z</time>
      </trkpt>
      <trkpt lat="43.62162" lon="6.6907">
        <ele>265.44342</ele>
        <time>2011-02-20T08:40:56Z</time>
      </trkpt>
      <trkpt lat="43.62182" lon="6.69078">
        <ele>268.407928</ele>
        <time>2011-02-20T08:41:06Z</time>
      </trkpt>
      <trkpt lat="43.6219" lon="6.69085">
        <ele>269.638367</ele>
        <time>2011-02-20T08:41:11Z</time>
      </trkpt>
      <trkpt lat="43.62195" lon="6.69091">
        <ele>270.535156</ele>
        <time>2011-02-20T08:41:15Z</time>
      </trkpt>
      <trkpt lat="43.62203" lon="6.69097">
        <ele>271.896545</ele>
        <time>2011-02-20T08:41:20Z</time>
      </trkpt>
      <trkpt lat="43.62205" lon="6.69104">
        <ele>272.66983</ele>
        <time>2011-02-20T08:41:23Z</time>
      </trkpt>
      <trkpt lat="43.62212" lon="6.69112">
        <ele>274.123383</ele>
        <time>2011-02-20T08:41:28Z</time>
      </trkpt>
      <trkpt lat="43.62216" lon="6.69125">
        <ele>275.823792</ele>
        <time>2011-02-20T08:41:34Z</time>
      </trkpt>
      <trkpt lat="43.62212" lon="6.69134">
        <ele>276.122223</ele>
        <time>2011-02-20T08:41:37Z</time>
      </trkpt>
      <trkpt lat="43.62186" lon="6.69192">
        <ele>277.158173</ele>
        <time>2011-02-20T08:41:59Z</time>
      </trkpt>
      <trkpt lat="43.62182" lon="6.69207">
        <ele>277.596405</ele>
        <time>2011-02-20T08:42:05Z</time>
      </trkpt>
      <trkpt lat="43.6218" lon="6.69215">
        <ele>277.881195</ele>
        <time>2011-02-20T08:42:08Z</time>
      </trkpt>
      <trkpt lat="43.62175" lon="6.69222">
        <ele>277.690826</ele>
        <time>2011-02-20T08:42:11Z</time>
      </trkpt>
      <trkpt lat="43.62171" lon="6.69237">
        <ele>278.22699</ele>
        <time>2011-02-20T08:42:16Z</time>
      </trkpt>
      <trkpt lat="43.62167" lon="6.69245">
        <ele>278.356445</ele>
        <time>2011-02-20T08:42:20Z</time>
      </trkpt>
      <trkpt lat="43.62164" lon="6.69256">
        <ele>278.896301</ele>
        <time>2011-02-20T08:42:24Z</time>
      </trkpt>
      <trkpt lat="43.62158" lon="6.69284">
        <ele>280.28006</ele>
        <time>2011-02-20T08:42:35Z</time>
      </trkpt>
      <trkpt lat="43.6216" lon="6.69297">
        <ele>281.423798</ele>
        <time>2011-02-20T08:42:40Z</time>
      </trkpt>
      <trkpt lat="43.62164" lon="6.69299">
        <ele>281.970367</ele>
        <time>2011-02-20T08:42:43Z</time>
      </trkpt>
      <trkpt lat="43.62164" lon="6.69299">
        <ele>281.970367</ele>
        <time>2011-02-20T08:42:44Z</time>
      </trkpt>
      <trkpt lat="43.62177" lon="6.69299">
        <ele>283.485352</ele>
        <time>2011-02-20T08:42:50Z</time>
      </trkpt>
      <trkpt lat="43.62182" lon="6.69297">
        <ele>283.979645</ele>
        <time>2011-02-20T08:42:53Z</time>
      </trkpt>
      <trkpt lat="43.62192" lon="6.69288">
        <ele>284.987396</ele>
        <time>2011-02-20T08:42:58Z</time>
      </trkpt>
      <trkpt lat="43.62203" lon="6.69276">
        <ele>285.691193</ele>
        <time>2011-02-20T08:43:05Z</time>
      </trkpt>
      <trkpt lat="43.62207" lon="6.69267">
        <ele>285.729553</ele>
        <time>2011-02-20T08:43:09Z</time>
      </trkpt>
      <trkpt lat="43.6221" lon="6.69265">
        <ele>285.900726</ele>
        <time>2011-02-20T08:43:10Z</time>
      </trkpt>
      <trkpt lat="43.62214" lon="6.69258">
        <ele>286.091064</ele>
        <time>2011-02-20T08:43:13Z</time>
      </trkpt>
      <trkpt lat="43.6225" lon="6.69213">
        <ele>287.284027</ele>
        <time>2011-02-20T08:43:35Z</time>
      </trkpt>
      <trkpt lat="43.62291" lon="6.69173">
        <ele>286.389313</ele>
        <time>2011-02-20T08:43:58Z</time>
      </trkpt>
      <trkpt lat="43.62291" lon="6.69173">
        <ele>286.389313</ele>
        <time>2011-02-20T08:43:59Z</time>
      </trkpt>
      <trkpt lat="43.62235" lon="6.69263">
        <ele>289.61795</ele>
        <time>2011-02-20T08:44:12Z</time>
      </trkpt>
      <trkpt lat="43.62237" lon="6.69278">
        <ele>291.114655</ele>
        <time>2011-02-20T08:44:13Z</time>
      </trkpt>
      <trkpt lat="43.62233" lon="6.69293">
        <ele>291.602875</ele>
        <time>2011-02-20T08:44:16Z</time>
      </trkpt>
      <trkpt lat="43.62229" lon="6.69299">
        <ele>291.399475</ele>
        <time>2011-02-20T08:44:17Z</time>
      </trkpt>
      <trkpt lat="43.6222" lon="6.69325">
        <ele>291.901459</ele>
        <time>2011-02-20T08:44:28Z</time>
      </trkpt>
      <trkpt lat="43.62216" lon="6.69338">
        <ele>292.515869</ele>
        <time>2011-02-20T08:44:34Z</time>
      </trkpt>
      <trkpt lat="43.62216" lon="6.69342">
        <ele>292.967224</ele>
        <time>2011-02-20T08:44:36Z</time>
      </trkpt>
      <trkpt lat="43.62214" lon="6.69351">
        <ele>293.496948</ele>
        <time>2011-02-20T08:44:39Z</time>
      </trkpt>
      <trkpt lat="43.6221" lon="6.69357">
        <ele>293.525024</ele>
        <time>2011-02-20T08:44:42Z</time>
      </trkpt>
      <trkpt lat="43.62188" lon="6.69394">
        <ele>294.267548</ele>
        <time>2011-02-20T08:44:59Z</time>
      </trkpt>
      <trkpt lat="43.62182" lon="6.69402">
        <ele>294.34552</ele>
        <time>2011-02-20T08:45:03Z</time>
      </trkpt>
      <trkpt lat="43.6218" lon="6.69406">
        <ele>294.542084</ele>
        <time>2011-02-20T08:45:05Z</time>
      </trkpt>
      <trkpt lat="43.6216" lon="6.69469">
        <ele>299.832855</ele>
        <time>2011-02-20T08:45:29Z</time>
      </trkpt>
      <trkpt lat="43.62152" lon="6.69497">
        <ele>302.031189</ele>
        <time>2011-02-20T08:45:41Z</time>
      </trkpt>
      <trkpt lat="43.62149" lon="6.69509">
        <ele>302.914337</ele>
        <time>2011-02-20T08:45:46Z</time>
      </trkpt>
      <trkpt lat="43.62156" lon="6.69518">
        <ele>305.077759</ele>
        <time>2011-02-20T08:45:50Z</time>
      </trkpt>
      <trkpt lat="43.6216" lon="6.6952">
        <ele>306.302307</ele>
        <time>2011-02-20T08:45:52Z</time>
      </trkpt>
      <trkpt lat="43.62162" lon="6.6952">
        <ele>306.838806</ele>
        <time>2011-02-20T08:45:53Z</time>
      </trkpt>
      <trkpt lat="43.62173" lon="6.69518">
        <ele>309.067291</ele>
        <time>2011-02-20T08:45:58Z</time>
      </trkpt>
      <trkpt lat="43.6218" lon="6.69514">
        <ele>310.147949</ele>
        <time>2011-02-20T08:46:02Z</time>
      </trkpt>
      <trkpt lat="43.62186" lon="6.69512">
        <ele>311.382538</ele>
        <time>2011-02-20T08:46:05Z</time>
      </trkpt>
      <trkpt lat="43.62188" lon="6.69509">
        <ele>311.67337</ele>
        <time>2011-02-20T08:46:07Z</time>
      </trkpt>
      <trkpt lat="43.62201" lon="6.69501">
        <ele>312.889679</ele>
        <time>2011-02-20T08:46:13Z</time>
      </trkpt>
      <trkpt lat="43.6222" lon="6.69484">
        <ele>312.929626</ele>
        <time>2011-02-20T08:46:24Z</time>
      </trkpt>
      <trkpt lat="43.62244" lon="6.69456">
        <ele>312.382446</ele>
        <time>2011-02-20T08:46:40Z</time>
      </trkpt>
      <trkpt lat="43.62274" lon="6.69424">
        <ele>315.937622</ele>
        <time>2011-02-20T08:46:59Z</time>
      </trkpt>
      <trkpt lat="43.62285" lon="6.69404">
        <ele>316.835602</ele>
        <time>2011-02-20T08:47:06Z</time>
      </trkpt>
      <trkpt lat="43.62287" lon="6.69402">
        <ele>317.229645</ele>
        <time>2011-02-20T08:47:07Z</time>
      </trkpt>
      <trkpt lat="43.623" lon="6.69374">
        <ele>317.447205</ele>
        <time>2011-02-20T08:47:15Z</time>
      </trkpt>
      <trkpt lat="43.62319" lon="6.69336">
        <ele>316.912659</ele>
        <time>2011-02-20T08:47:25Z</time>
      </trkpt>
      <trkpt lat="43.62328" lon="6.69327">
        <ele>317.438538</ele>
        <time>2011-02-20T08:47:28Z</time>
      </trkpt>
      <trkpt lat="43.6236" lon="6.69295">
        <ele>316.911163</ele>
        <time>2011-02-20T08:47:40Z</time>
      </trkpt>
      <trkpt lat="43.62368" lon="6.69293">
        <ele>317.036041</ele>
        <time>2011-02-20T08:47:43Z</time>
      </trkpt>
      <trkpt lat="43.62377" lon="6.69293">
        <ele>317.587616</ele>
        <time>2011-02-20T08:47:47Z</time>
      </trkpt>
      <trkpt lat="43.62405" lon="6.69303">
        <ele>320.844299</ele>
        <time>2011-02-20T08:47:58Z</time>
      </trkpt>
      <trkpt lat="43.62411" lon="6.69306">
        <ele>321.000458</ele>
        <time>2011-02-20T08:48:02Z</time>
      </trkpt>
      <trkpt lat="43.62418" lon="6.6931">
        <ele>321.662811</ele>
        <time>2011-02-20T08:48:06Z</time>
      </trkpt>
      <trkpt lat="43.62424" lon="6.69318">
        <ele>323.35083</ele>
        <time>2011-02-20T08:48:11Z</time>
      </trkpt>
      <trkpt lat="43.62426" lon="6.69321">
        <ele>323.753662</ele>
        <time>2011-02-20T08:48:12Z</time>
      </trkpt>
      <trkpt lat="43.62463" lon="6.69357">
        <ele>331.820984</ele>
        <time>2011-02-20T08:48:33Z</time>
      </trkpt>
      <trkpt lat="43.62491" lon="6.69376">
        <ele>336.265656</ele>
        <time>2011-02-20T08:48:47Z</time>
      </trkpt>
      <trkpt lat="43.62499" lon="6.69381">
        <ele>337.834076</ele>
        <time>2011-02-20T08:48:52Z</time>
      </trkpt>
      <trkpt lat="43.62516" lon="6.69355">
        <ele>333.857666</ele>
        <time>2011-02-20T08:49:03Z</time>
      </trkpt>
      <trkpt lat="43.62534" lon="6.69323">
        <ele>331.940369</ele>
        <time>2011-02-20T08:49:16Z</time>
      </trkpt>
      <trkpt lat="43.62536" lon="6.69321">
        <ele>332.252075</ele>
        <time>2011-02-20T08:49:17Z</time>
      </trkpt>
      <trkpt lat="43.62576" lon="6.69278">
        <ele>334.491089</ele>
        <time>2011-02-20T08:49:41Z</time>
      </trkpt>
      <trkpt lat="43.62587" lon="6.69267">
        <ele>334.583557</ele>
        <time>2011-02-20T08:49:47Z</time>
      </trkpt>
      <trkpt lat="43.62637" lon="6.69222">
        <ele>334.402039</ele>
        <time>2011-02-20T08:50:11Z</time>
      </trkpt>
      <trkpt lat="43.62634" lon="6.69218">
        <ele>333.318298</ele>
        <time>2011-02-20T08:50:12Z</time>
      </trkpt>
      <trkpt lat="43.62647" lon="6.6923">
        <ele>337.646637</ele>
        <time>2011-02-20T08:50:17Z</time>
      </trkpt>
      <trkpt lat="43.62649" lon="6.69237">
        <ele>339.428284</ele>
        <time>2011-02-20T08:50:20Z</time>
      </trkpt>
      <trkpt lat="43.62649" lon="6.69243">
        <ele>341.047058</ele>
        <time>2011-02-20T08:50:23Z</time>
      </trkpt>
      <trkpt lat="43.62647" lon="6.69254">
        <ele>343.376373</ele>
        <time>2011-02-20T08:50:27Z</time>
      </trkpt>
      <trkpt lat="43.62647" lon="6.69258">
        <ele>344.452972</ele>
        <time>2011-02-20T08:50:29Z</time>
      </trkpt>
      <trkpt lat="43.62639" lon="6.69267">
        <ele>345.029297</ele>
        <time>2011-02-20T08:50:34Z</time>
      </trkpt>
      <trkpt lat="43.62637" lon="6.69271">
        <ele>345.679901</ele>
        <time>2011-02-20T08:50:36Z</time>
      </trkpt>
      <trkpt lat="43.62632" lon="6.69273">
        <ele>345.389954</ele>
        <time>2011-02-20T08:50:38Z</time>
      </trkpt>
      <trkpt lat="43.62628" lon="6.6928">
        <ele>346.107727</ele>
        <time>2011-02-20T08:50:41Z</time>
      </trkpt>
      <trkpt lat="43.62613" lon="6.69295">
        <ele>346.429169</ele>
        <time>2011-02-20T08:50:49Z</time>
      </trkpt>
      <trkpt lat="43.62607" lon="6.69297">
        <ele>345.453918</ele>
        <time>2011-02-20T08:50:52Z</time>
      </trkpt>
      <trkpt lat="43.62598" lon="6.69306">
        <ele>345.396393</ele>
        <time>2011-02-20T08:50:57Z</time>
      </trkpt>
      <trkpt lat="43.62592" lon="6.69312">
        <ele>345.245789</ele>
        <time>2011-02-20T08:51:00Z</time>
      </trkpt>
      <trkpt lat="43.62587" lon="6.69316">
        <ele>345.094238</ele>
        <time>2011-02-20T08:51:02Z</time>
      </trkpt>
      <trkpt lat="43.62583" lon="6.69323">
        <ele>345.357788</ele>
        <time>2011-02-20T08:51:05Z</time>
      </trkpt>
      <trkpt lat="43.62549" lon="6.69387">
        <ele>347.803467</ele>
        <time>2011-02-20T08:51:32Z</time>
      </trkpt>
      <trkpt lat="43.62544" lon="6.69398">
        <ele>348.493469</ele>
        <time>2011-02-20T08:51:36Z</time>
      </trkpt>
      <trkpt lat="43.62542" lon="6.69406">
        <ele>349.461212</ele>
        <time>2011-02-20T08:51:39Z</time>
      </trkpt>
      <trkpt lat="43.62538" lon="6.69413">
        <ele>349.406708</ele>
        <time>2011-02-20T08:51:42Z</time>
      </trkpt>
      <trkpt lat="43.62527" lon="6.69426">
        <ele>349.594391</ele>
        <time>2011-02-20T08:51:48Z</time>
      </trkpt>
      <trkpt lat="43.62523" lon="6.69432">
        <ele>351.198761</ele>
        <time>2011-02-20T08:51:51Z</time>
      </trkpt>
      <trkpt lat="43.62521" lon="6.69432">
        <ele>351.184357</ele>
        <time>2011-02-20T08:51:52Z</time>
      </trkpt>
      <trkpt lat="43.6251" lon="6.69439">
        <ele>352.967804</ele>
        <time>2011-02-20T08:51:57Z</time>
      </trkpt>
      <trkpt lat="43.62504" lon="6.69436">
        <ele>352.339325</ele>
        <time>2011-02-20T08:52:00Z</time>
      </trkpt>
      <trkpt lat="43.62495" lon="6.69436">
        <ele>352.329315</ele>
        <time>2011-02-20T08:52:04Z</time>
      </trkpt>
      <trkpt lat="43.62405" lon="6.69426">
        <ele>349.019226</ele>
        <time>2011-02-20T08:52:41Z</time>
      </trkpt>
      <trkpt lat="43.62405" lon="6.69426">
        <ele>349.019226</ele>
        <time>2011-02-20T08:52:41Z</time>
      </trkpt>
      <trkpt lat="43.62386" lon="6.69458">
        <ele>352.144135</ele>
        <time>2011-02-20T08:52:57Z</time>
      </trkpt>
      <trkpt lat="43.62381" lon="6.69477">
        <ele>353.013611</ele>
        <time>2011-02-20T08:52:58Z</time>
      </trkpt>
      <trkpt lat="43.62375" lon="6.69505">
        <ele>353.940674</ele>
        <time>2011-02-20T08:53:02Z</time>
      </trkpt>
      <trkpt lat="43.62366" lon="6.69602">
        <ele>355.755249</ele>
        <time>2011-02-20T08:53:23Z</time>
      </trkpt>
      <trkpt lat="43.62366" lon="6.6961">
        <ele>355.746613</ele>
        <time>2011-02-20T08:53:26Z</time>
      </trkpt>
      <trkpt lat="43.6237" lon="6.69636">
        <ele>356.583771</ele>
        <time>2011-02-20T08:53:35Z</time>
      </trkpt>
      <trkpt lat="43.62386" lon="6.69698">
        <ele>357.168945</ele>
        <time>2011-02-20T08:53:56Z</time>
      </trkpt>
      <trkpt lat="43.62392" lon="6.69718">
        <ele>358.055511</ele>
        <time>2011-02-20T08:54:04Z</time>
      </trkpt>
      <trkpt lat="43.62401" lon="6.69724">
        <ele>359.395874</ele>
        <time>2011-02-20T08:54:08Z</time>
      </trkpt>
      <trkpt lat="43.62439" lon="6.69754">
        <ele>364.420227</ele>
        <time>2011-02-20T08:54:30Z</time>
      </trkpt>
      <trkpt lat="43.62454" lon="6.69765">
        <ele>365.967773</ele>
        <time>2011-02-20T08:54:39Z</time>
      </trkpt>
      <trkpt lat="43.62456" lon="6.69767">
        <ele>366.153137</ele>
        <time>2011-02-20T08:54:40Z</time>
      </trkpt>
      <trkpt lat="43.62458" lon="6.69771">
        <ele>366.289307</ele>
        <time>2011-02-20T08:54:42Z</time>
      </trkpt>
      <trkpt lat="43.62465" lon="6.69775">
        <ele>366.799347</ele>
        <time>2011-02-20T08:54:46Z</time>
      </trkpt>
      <trkpt lat="43.62499" lon="6.69806">
        <ele>369.838989</ele>
        <time>2011-02-20T08:55:06Z</time>
      </trkpt>
      <trkpt lat="43.62519" lon="6.69818">
        <ele>370.8909</ele>
        <time>2011-02-20T08:55:17Z</time>
      </trkpt>
      <trkpt lat="43.62544" lon="6.69825">
        <ele>372.922974</ele>
        <time>2011-02-20T08:55:29Z</time>
      </trkpt>
      <trkpt lat="43.62587" lon="6.69829">
        <ele>375.655853</ele>
        <time>2011-02-20T08:55:51Z</time>
      </trkpt>
      <trkpt lat="43.62594" lon="6.69829">
        <ele>376.089508</ele>
        <time>2011-02-20T08:55:54Z</time>
      </trkpt>
      <trkpt lat="43.62611" lon="6.69829">
        <ele>376.882507</ele>
        <time>2011-02-20T08:56:02Z</time>
      </trkpt>
      <trkpt lat="43.62617" lon="6.69829">
        <ele>377.089081</ele>
        <time>2011-02-20T08:56:05Z</time>
      </trkpt>
      <trkpt lat="43.6263" lon="6.69831">
        <ele>377.227112</ele>
        <time>2011-02-20T08:56:11Z</time>
      </trkpt>
      <trkpt lat="43.62654" lon="6.69829">
        <ele>378.559235</ele>
        <time>2011-02-20T08:56:23Z</time>
      </trkpt>
      <trkpt lat="43.6269" lon="6.69831">
        <ele>380.756897</ele>
        <time>2011-02-20T08:56:40Z</time>
      </trkpt>
      <trkpt lat="43.6269" lon="6.69831">
        <ele>380.756897</ele>
        <time>2011-02-20T08:56:41Z</time>
      </trkpt>
      <trkpt lat="43.62727" lon="6.69848">
        <ele>383.94632</ele>
        <time>2011-02-20T08:57:01Z</time>
      </trkpt>
      <trkpt lat="43.62776" lon="6.69881">
        <ele>390.005768</ele>
        <time>2011-02-20T08:57:28Z</time>
      </trkpt>
      <trkpt lat="43.6278" lon="6.69889">
        <ele>390.706604</ele>
        <time>2011-02-20T08:57:31Z</time>
      </trkpt>
      <trkpt lat="43.6278" lon="6.69891">
        <ele>390.661987</ele>
        <time>2011-02-20T08:57:32Z</time>
      </trkpt>
      <trkpt lat="43.62782" lon="6.69898">
        <ele>391.065247</ele>
        <time>2011-02-20T08:57:35Z</time>
      </trkpt>
      <trkpt lat="43.62782" lon="6.69911">
        <ele>390.827606</ele>
        <time>2011-02-20T08:57:40Z</time>
      </trkpt>
      <trkpt lat="43.62785" lon="6.69919">
        <ele>391.242493</ele>
        <time>2011-02-20T08:57:43Z</time>
      </trkpt>
      <trkpt lat="43.62785" lon="6.69936">
        <ele>391.57724</ele>
        <time>2011-02-20T08:57:49Z</time>
      </trkpt>
      <trkpt lat="43.62787" lon="6.69945">
        <ele>392.426239</ele>
        <time>2011-02-20T08:57:52Z</time>
      </trkpt>
      <trkpt lat="43.62789" lon="6.69951">
        <ele>393.175262</ele>
        <time>2011-02-20T08:57:55Z</time>
      </trkpt>
      <trkpt lat="43.62793" lon="6.69971">
        <ele>394.792755</ele>
        <time>2011-02-20T08:58:02Z</time>
      </trkpt>
      <trkpt lat="43.628" lon="6.69994">
        <ele>396.781555</ele>
        <time>2011-02-20T08:58:11Z</time>
      </trkpt>
      <trkpt lat="43.62804" lon="6.70012">
        <ele>397.839172</ele>
        <time>2011-02-20T08:58:17Z</time>
      </trkpt>
      <trkpt lat="43.6284" lon="6.70102">
        <ele>400.2099</ele>
        <time>2011-02-20T08:58:53Z</time>
      </trkpt>
      <trkpt lat="43.62843" lon="6.70106">
        <ele>400.154724</ele>
        <time>2011-02-20T08:58:55Z</time>
      </trkpt>
      <trkpt lat="43.629" lon="6.70164">
        <ele>400.337463</ele>
        <time>2011-02-20T08:59:17Z</time>
      </trkpt>
      <trkpt lat="43.62916" lon="6.70181">
        <ele>400.092407</ele>
        <time>2011-02-20T08:59:23Z</time>
      </trkpt>
      <trkpt lat="43.63003" lon="6.70237">
        <ele>400.182495</ele>
        <time>2011-02-20T08:59:50Z</time>
      </trkpt>
      <trkpt lat="43.6307" lon="6.70245">
        <ele>401.370087</ele>
        <time>2011-02-20T09:00:09Z</time>
      </trkpt>
      <trkpt lat="43.63111" lon="6.7025">
        <ele>403.56488</ele>
        <time>2011-02-20T09:00:25Z</time>
      </trkpt>
      <trkpt lat="43.63134" lon="6.70256">
        <ele>404.667511</ele>
        <time>2011-02-20T09:00:35Z</time>
      </trkpt>
      <trkpt lat="43.63145" lon="6.7026">
        <ele>405.039917</ele>
        <time>2011-02-20T09:00:40Z</time>
      </trkpt>
      <trkpt lat="43.63186" lon="6.70282">
        <ele>406.453583</ele>
        <time>2011-02-20T09:00:59Z</time>
      </trkpt>
      <trkpt lat="43.6324" lon="6.70299">
        <ele>407.669434</ele>
        <time>2011-02-20T09:01:17Z</time>
      </trkpt>
      <trkpt lat="43.63252" lon="6.70301">
        <ele>407.919983</ele>
        <time>2011-02-20T09:01:24Z</time>
      </trkpt>
      <trkpt lat="43.63255" lon="6.70303">
        <ele>407.905609</ele>
        <time>2011-02-20T09:01:28Z</time>
      </trkpt>
      <trkpt lat="43.63252" lon="6.70303">
        <ele>407.852631</ele>
        <time>2011-02-20T09:02:35Z</time>
      </trkpt>
      <trkpt lat="43.63252" lon="6.70308">
        <ele>407.717987</ele>
        <time>2011-02-20T09:02:41Z</time>
      </trkpt>
      <trkpt lat="43.63255" lon="6.70305">
        <ele>407.838287</ele>
        <time>2011-02-20T09:02:46Z</time>
      </trkpt>
      <trkpt lat="43.63263" lon="6.7031">
        <ele>408.167877</ele>
        <time>2011-02-20T09:02:50Z</time>
      </trkpt>
      <trkpt lat="43.63267" lon="6.7031">
        <ele>408.426971</ele>
        <time>2011-02-20T09:02:51Z</time>
      </trkpt>
      <trkpt lat="43.63295" lon="6.70316">
        <ele>409.984619</ele>
        <time>2011-02-20T09:03:00Z</time>
      </trkpt>
      <trkpt lat="43.63308" lon="6.70321">
        <ele>410.595459</ele>
        <time>2011-02-20T09:03:04Z</time>
      </trkpt>
      <trkpt lat="43.63394" lon="6.70346">
        <ele>414.950867</ele>
        <time>2011-02-20T09:03:33Z</time>
      </trkpt>
      <trkpt lat="43.63418" lon="6.70353">
        <ele>415.18512</ele>
        <time>2011-02-20T09:03:41Z</time>
      </trkpt>
      <trkpt lat="43.63431" lon="6.70357">
        <ele>415.230774</ele>
        <time>2011-02-20T09:03:46Z</time>
      </trkpt>
      <trkpt lat="43.63439" lon="6.70353">
        <ele>415.889954</ele>
        <time>2011-02-20T09:03:49Z</time>
      </trkpt>
      <trkpt lat="43.63476" lon="6.70331">
        <ele>418.450287</ele>
        <time>2011-02-20T09:04:03Z</time>
      </trkpt>
      <trkpt lat="43.63499" lon="6.70303">
        <ele>419.92926</ele>
        <time>2011-02-20T09:04:14Z</time>
      </trkpt>
      <trkpt lat="43.6351" lon="6.70282">
        <ele>420.930878</ele>
        <time>2011-02-20T09:04:20Z</time>
      </trkpt>
      <trkpt lat="43.63521" lon="6.70256">
        <ele>421.57843</ele>
        <time>2011-02-20T09:04:27Z</time>
      </trkpt>
      <trkpt lat="43.63546" lon="6.70153">
        <ele>422.829071</ele>
        <time>2011-02-20T09:04:55Z</time>
      </trkpt>
      <trkpt lat="43.63564" lon="6.70095">
        <ele>426.009918</ele>
        <time>2011-02-20T09:05:11Z</time>
      </trkpt>
      <trkpt lat="43.63549" lon="6.70059">
        <ele>422.864716</ele>
        <time>2011-02-20T09:05:18Z</time>
      </trkpt>
      <trkpt lat="43.63557" lon="6.70029">
        <ele>424.504425</ele>
        <time>2011-02-20T09:05:26Z</time>
      </trkpt>
      <trkpt lat="43.63576" lon="6.69951">
        <ele>426.642639</ele>
        <time>2011-02-20T09:05:46Z</time>
      </trkpt>
      <trkpt lat="43.63585" lon="6.69874">
        <ele>423.315918</ele>
        <time>2011-02-20T09:06:06Z</time>
      </trkpt>
      <trkpt lat="43.63591" lon="6.69831">
        <ele>422.192657</ele>
        <time>2011-02-20T09:06:17Z</time>
      </trkpt>
      <trkpt lat="43.63611" lon="6.69739">
        <ele>427.886444</ele>
        <time>2011-02-20T09:06:41Z</time>
      </trkpt>
      <trkpt lat="43.63615" lon="6.69718">
        <ele>429.164398</ele>
        <time>2011-02-20T09:06:47Z</time>
      </trkpt>
      <trkpt lat="43.63682" lon="6.69735">
        <ele>436.475891</ele>
        <time>2011-02-20T09:06:54Z</time>
      </trkpt>
      <trkpt lat="43.63682" lon="6.69735">
        <ele>436.475891</ele>
        <time>2011-02-20T09:06:55Z</time>
      </trkpt>
      <trkpt lat="43.63727" lon="6.69694">
        <ele>438.210999</ele>
        <time>2011-02-20T09:07:18Z</time>
      </trkpt>
      <trkpt lat="43.63729" lon="6.69694">
        <ele>438.311981</ele>
        <time>2011-02-20T09:07:19Z</time>
      </trkpt>
      <trkpt lat="43.63735" lon="6.69692">
        <ele>438.614197</ele>
        <time>2011-02-20T09:07:22Z</time>
      </trkpt>
      <trkpt lat="43.63744" lon="6.69688">
        <ele>439.123596</ele>
        <time>2011-02-20T09:07:26Z</time>
      </trkpt>
      <trkpt lat="43.6375" lon="6.69683">
        <ele>439.7323</ele>
        <time>2011-02-20T09:07:29Z</time>
      </trkpt>
      <trkpt lat="43.63763" lon="6.69677">
        <ele>440.765625</ele>
        <time>2011-02-20T09:07:35Z</time>
      </trkpt>
      <trkpt lat="43.63819" lon="6.69653">
        <ele>441.028992</ele>
        <time>2011-02-20T09:08:00Z</time>
      </trkpt>
      <trkpt lat="43.6383" lon="6.69649">
        <ele>440.66391</ele>
        <time>2011-02-20T09:08:05Z</time>
      </trkpt>
      <trkpt lat="43.6383" lon="6.69649">
        <ele>440.66391</ele>
        <time>2011-02-20T09:08:42Z</time>
      </trkpt>
      <trkpt lat="43.6383" lon="6.69649">
        <ele>440.66391</ele>
        <time>2011-02-20T09:08:58Z</time>
      </trkpt>
      <trkpt lat="43.6383" lon="6.69649">
        <ele>440.66391</ele>
        <time>2011-02-20T09:09:18Z</time>
      </trkpt>
      <trkpt lat="43.63943" lon="6.69445">
        <ele>452.865753</ele>
        <time>2011-02-20T09:09:26Z</time>
      </trkpt>
      <trkpt lat="43.63945" lon="6.69443">
        <ele>453.052094</ele>
        <time>2011-02-20T09:09:27Z</time>
      </trkpt>
      <trkpt lat="43.63948" lon="6.69436">
        <ele>453.584656</ele>
        <time>2011-02-20T09:09:29Z</time>
      </trkpt>
      <trkpt lat="43.63956" lon="6.69424">
        <ele>454.67627</ele>
        <time>2011-02-20T09:09:34Z</time>
      </trkpt>
      <trkpt lat="43.63967" lon="6.69409">
        <ele>455.954193</ele>
        <time>2011-02-20T09:09:41Z</time>
      </trkpt>
      <trkpt lat="43.63969" lon="6.69404">
        <ele>456.313629</ele>
        <time>2011-02-20T09:09:43Z</time>
      </trkpt>
      <trkpt lat="43.63978" lon="6.69396">
        <ele>457.037903</ele>
        <time>2011-02-20T09:09:48Z</time>
      </trkpt>
      <trkpt lat="43.63982" lon="6.69387">
        <ele>457.513306</ele>
        <time>2011-02-20T09:09:52Z</time>
      </trkpt>
      <trkpt lat="43.63993" lon="6.69374">
        <ele>458.327759</ele>
        <time>2011-02-20T09:09:59Z</time>
      </trkpt>
      <trkpt lat="43.63995" lon="6.69372">
        <ele>458.478088</ele>
        <time>2011-02-20T09:10:00Z</time>
      </trkpt>
      <trkpt lat="43.64016" lon="6.69353">
        <ele>460.007446</ele>
        <time>2011-02-20T09:10:11Z</time>
      </trkpt>
      <trkpt lat="43.64038" lon="6.6934">
        <ele>460.944183</ele>
        <time>2011-02-20T09:10:22Z</time>
      </trkpt>
      <trkpt lat="43.64091" lon="6.69276">
        <ele>462.2211</ele>
        <time>2011-02-20T09:10:49Z</time>
      </trkpt>
      <trkpt lat="43.64113" lon="6.6925">
        <ele>461.024506</ele>
        <time>2011-02-20T09:10:59Z</time>
      </trkpt>
      <trkpt lat="43.6413" lon="6.69241">
        <ele>461.249695</ele>
        <time>2011-02-20T09:11:05Z</time>
      </trkpt>
      <trkpt lat="43.64192" lon="6.69203">
        <ele>465.126831</ele>
        <time>2011-02-20T09:11:28Z</time>
      </trkpt>
      <trkpt lat="43.64265" lon="6.69108">
        <ele>471.355347</ele>
        <time>2011-02-20T09:11:58Z</time>
      </trkpt>
      <trkpt lat="43.6428" lon="6.69087">
        <ele>472.640656</ele>
        <time>2011-02-20T09:12:04Z</time>
      </trkpt>
      <trkpt lat="43.64297" lon="6.69067">
        <ele>474.129913</ele>
        <time>2011-02-20T09:12:10Z</time>
      </trkpt>
      <trkpt lat="43.64351" lon="6.69046">
        <ele>476.36792</ele>
        <time>2011-02-20T09:12:31Z</time>
      </trkpt>
      <trkpt lat="43.64368" lon="6.69042">
        <ele>476.734222</ele>
        <time>2011-02-20T09:12:38Z</time>
      </trkpt>
      <trkpt lat="43.6439" lon="6.69042">
        <ele>476.905762</ele>
        <time>2011-02-20T09:12:47Z</time>
      </trkpt>
      <trkpt lat="43.64415" lon="6.69037">
        <ele>476.921448</ele>
        <time>2011-02-20T09:12:59Z</time>
      </trkpt>
      <trkpt lat="43.6443" lon="6.69031">
        <ele>476.961426</ele>
        <time>2011-02-20T09:13:05Z</time>
      </trkpt>
      <trkpt lat="43.64501" lon="6.68988">
        <ele>475.858582</ele>
        <time>2011-02-20T09:13:35Z</time>
      </trkpt>
      <trkpt lat="43.64538" lon="6.68971">
        <ele>477.097382</ele>
        <time>2011-02-20T09:13:48Z</time>
      </trkpt>
      <trkpt lat="43.6454" lon="6.68971">
        <ele>477.180359</ele>
        <time>2011-02-20T09:13:49Z</time>
      </trkpt>
      <trkpt lat="43.64544" lon="6.68971">
        <ele>477.347137</ele>
        <time>2011-02-20T09:13:52Z</time>
      </trkpt>
      <trkpt lat="43.64555" lon="6.68967">
        <ele>478.015198</ele>
        <time>2011-02-20T09:13:57Z</time>
      </trkpt>
      <trkpt lat="43.64561" lon="6.68967">
        <ele>478.280853</ele>
        <time>2011-02-20T09:14:00Z</time>
      </trkpt>
      <trkpt lat="43.64576" lon="6.68964">
        <ele>479.249634</ele>
        <time>2011-02-20T09:14:07Z</time>
      </trkpt>
      <trkpt lat="43.6463" lon="6.6899">
        <ele>482.976501</ele>
        <time>2011-02-20T09:14:33Z</time>
      </trkpt>
      <trkpt lat="43.64658" lon="6.69005">
        <ele>486.686676</ele>
        <time>2011-02-20T09:14:46Z</time>
      </trkpt>
      <trkpt lat="43.6466" lon="6.69007">
        <ele>487.050476</ele>
        <time>2011-02-20T09:14:47Z</time>
      </trkpt>
      <trkpt lat="43.6466" lon="6.69007">
        <ele>487.050476</ele>
        <time>2011-02-20T09:15:02Z</time>
      </trkpt>
      <trkpt lat="43.64656" lon="6.69142">
        <ele>488.970154</ele>
        <time>2011-02-20T09:15:24Z</time>
      </trkpt>
      <trkpt lat="43.64658" lon="6.6914">
        <ele>489.643738</ele>
        <time>2011-02-20T09:15:25Z</time>
      </trkpt>
      <trkpt lat="43.64662" lon="6.69155">
        <ele>488.860107</ele>
        <time>2011-02-20T09:15:28Z</time>
      </trkpt>
      <trkpt lat="43.64675" lon="6.69162">
        <ele>490.627167</ele>
        <time>2011-02-20T09:15:33Z</time>
      </trkpt>
      <trkpt lat="43.64681" lon="6.69166">
        <ele>491.336639</ele>
        <time>2011-02-20T09:15:36Z</time>
      </trkpt>
      <trkpt lat="43.64705" lon="6.69185">
        <ele>492.762543</ele>
        <time>2011-02-20T09:15:50Z</time>
      </trkpt>
      <trkpt lat="43.64737" lon="6.69207">
        <ele>494.46524</ele>
        <time>2011-02-20T09:16:09Z</time>
      </trkpt>
      <trkpt lat="43.64748" lon="6.69209">
        <ele>495.236633</ele>
        <time>2011-02-20T09:16:14Z</time>
      </trkpt>
      <trkpt lat="43.64754" lon="6.69211">
        <ele>495.431274</ele>
        <time>2011-02-20T09:16:17Z</time>
      </trkpt>
      <trkpt lat="43.64761" lon="6.69211">
        <ele>495.931732</ele>
        <time>2011-02-20T09:16:21Z</time>
      </trkpt>
      <trkpt lat="43.64799" lon="6.69198">
        <ele>499.34259</ele>
        <time>2011-02-20T09:16:41Z</time>
      </trkpt>
      <trkpt lat="43.64832" lon="6.69188">
        <ele>501.111816</ele>
        <time>2011-02-20T09:16:59Z</time>
      </trkpt>
      <trkpt lat="43.64842" lon="6.69181">
        <ele>501.716248</ele>
        <time>2011-02-20T09:17:05Z</time>
      </trkpt>
      <trkpt lat="43.64864" lon="6.69173">
        <ele>502.809113</ele>
        <time>2011-02-20T09:17:16Z</time>
      </trkpt>
      <trkpt lat="43.64868" lon="6.6917">
        <ele>503.110229</ele>
        <time>2011-02-20T09:17:19Z</time>
      </trkpt>
      <trkpt lat="43.64887" lon="6.69162">
        <ele>504.542206</ele>
        <time>2011-02-20T09:17:29Z</time>
      </trkpt>
      <trkpt lat="43.64892" lon="6.69155">
        <ele>505.430389</ele>
        <time>2011-02-20T09:17:32Z</time>
      </trkpt>
      <trkpt lat="43.64898" lon="6.69145">
        <ele>507.0755</ele>
        <time>2011-02-20T09:17:37Z</time>
      </trkpt>
      <trkpt lat="43.64898" lon="6.69136">
        <ele>508.211639</ele>
        <time>2011-02-20T09:17:40Z</time>
      </trkpt>
      <trkpt lat="43.649" lon="6.69119">
        <ele>510.622223</ele>
        <time>2011-02-20T09:17:46Z</time>
      </trkpt>
      <trkpt lat="43.64894" lon="6.69106">
        <ele>511.766144</ele>
        <time>2011-02-20T09:17:52Z</time>
      </trkpt>
      <trkpt lat="43.64877" lon="6.69082">
        <ele>513.144958</ele>
        <time>2011-02-20T09:18:04Z</time>
      </trkpt>
      <trkpt lat="43.64857" lon="6.69065">
        <ele>513.0047</ele>
        <time>2011-02-20T09:18:17Z</time>
      </trkpt>
      <trkpt lat="43.64849" lon="6.69052">
        <ele>513.272949</ele>
        <time>2011-02-20T09:18:21Z</time>
      </trkpt>
      <trkpt lat="43.64845" lon="6.69044">
        <ele>513.529602</ele>
        <time>2011-02-20T09:18:25Z</time>
      </trkpt>
      <trkpt lat="43.64842" lon="6.69039">
        <ele>513.627014</ele>
        <time>2011-02-20T09:18:27Z</time>
      </trkpt>
      <trkpt lat="43.6484" lon="6.69029">
        <ele>514.303467</ele>
        <time>2011-02-20T09:18:31Z</time>
      </trkpt>
      <trkpt lat="43.6484" lon="6.69027">
        <ele>514.617432</ele>
        <time>2011-02-20T09:18:32Z</time>
      </trkpt>
      <trkpt lat="43.6484" lon="6.69022">
        <ele>515.285706</ele>
        <time>2011-02-20T09:18:34Z</time>
      </trkpt>
      <trkpt lat="43.64838" lon="6.69016">
        <ele>515.912903</ele>
        <time>2011-02-20T09:18:37Z</time>
      </trkpt>
      <trkpt lat="43.64838" lon="6.69014">
        <ele>516.243103</ele>
        <time>2011-02-20T09:18:38Z</time>
      </trkpt>
      <trkpt lat="43.64832" lon="6.68999">
        <ele>517.262573</ele>
        <time>2011-02-20T09:18:43Z</time>
      </trkpt>
      <trkpt lat="43.64827" lon="6.68982">
        <ele>518.820068</ele>
        <time>2011-02-20T09:18:51Z</time>
      </trkpt>
      <trkpt lat="43.64823" lon="6.68967">
        <ele>519.910645</ele>
        <time>2011-02-20T09:18:58Z</time>
      </trkpt>
      <trkpt lat="43.64804" lon="6.68928">
        <ele>521.326782</ele>
        <time>2011-02-20T09:19:16Z</time>
      </trkpt>
      <trkpt lat="43.64782" lon="6.68887">
        <ele>521.691284</ele>
        <time>2011-02-20T09:19:35Z</time>
      </trkpt>
      <trkpt lat="43.6478" lon="6.6884">
        <ele>528.202271</ele>
        <time>2011-02-20T09:19:48Z</time>
      </trkpt>
      <trkpt lat="43.6478" lon="6.6884">
        <ele>528.202271</ele>
        <time>2011-02-20T09:19:49Z</time>
      </trkpt>
      <trkpt lat="43.64782" lon="6.68823">
        <ele>530.361328</ele>
        <time>2011-02-20T09:19:56Z</time>
      </trkpt>
      <trkpt lat="43.64776" lon="6.68803">
        <ele>530.389648</ele>
        <time>2011-02-20T09:20:02Z</time>
      </trkpt>
      <trkpt lat="43.64772" lon="6.68788">
        <ele>530.717651</ele>
        <time>2011-02-20T09:20:07Z</time>
      </trkpt>
      <trkpt lat="43.64769" lon="6.68778">
        <ele>531.228455</ele>
        <time>2011-02-20T09:20:11Z</time>
      </trkpt>
      <trkpt lat="43.64763" lon="6.68688">
        <ele>532.336426</ele>
        <time>2011-02-20T09:20:45Z</time>
      </trkpt>
      <trkpt lat="43.64763" lon="6.68681">
        <ele>532.272522</ele>
        <time>2011-02-20T09:20:47Z</time>
      </trkpt>
      <trkpt lat="43.64763" lon="6.68681">
        <ele>532.272522</ele>
        <time>2011-02-20T09:21:08Z</time>
      </trkpt>
      <trkpt lat="43.64763" lon="6.68681">
        <ele>532.272522</ele>
        <time>2011-02-20T09:21:27Z</time>
      </trkpt>
      <trkpt lat="43.6478" lon="6.68552">
        <ele>541.460144</ele>
        <time>2011-02-20T09:21:36Z</time>
      </trkpt>
      <trkpt lat="43.6478" lon="6.6855">
        <ele>541.673462</ele>
        <time>2011-02-20T09:21:37Z</time>
      </trkpt>
      <trkpt lat="43.64763" lon="6.68518">
        <ele>541.738953</ele>
        <time>2011-02-20T09:21:52Z</time>
      </trkpt>
      <trkpt lat="43.64761" lon="6.68512">
        <ele>542.503235</ele>
        <time>2011-02-20T09:21:55Z</time>
      </trkpt>
      <trkpt lat="43.64759" lon="6.68507">
        <ele>542.858826</ele>
        <time>2011-02-20T09:21:57Z</time>
      </trkpt>
      <trkpt lat="43.64731" lon="6.68458">
        <ele>544.557739</ele>
        <time>2011-02-20T09:22:20Z</time>
      </trkpt>
      <trkpt lat="43.64714" lon="6.68428">
        <ele>540.649231</ele>
        <time>2011-02-20T09:22:35Z</time>
      </trkpt>
      <trkpt lat="43.64714" lon="6.68417">
        <ele>541.452393</ele>
        <time>2011-02-20T09:22:39Z</time>
      </trkpt>
      <trkpt lat="43.64716" lon="6.68361">
        <ele>541.850586</ele>
        <time>2011-02-20T09:22:59Z</time>
      </trkpt>
      <trkpt lat="43.64716" lon="6.68331">
        <ele>540.236084</ele>
        <time>2011-02-20T09:23:11Z</time>
      </trkpt>
      <trkpt lat="43.6475" lon="6.68413">
        <ele>554.497803</ele>
        <time>2011-02-20T09:23:16Z</time>
      </trkpt>
      <trkpt lat="43.64752" lon="6.68413">
        <ele>555.073975</ele>
        <time>2011-02-20T09:23:18Z</time>
      </trkpt>
      <trkpt lat="43.64754" lon="6.68424">
        <ele>554.342896</ele>
        <time>2011-02-20T09:23:21Z</time>
      </trkpt>
      <trkpt lat="43.64757" lon="6.68428">
        <ele>554.37207</ele>
        <time>2011-02-20T09:23:23Z</time>
      </trkpt>
      <trkpt lat="43.64761" lon="6.68432">
        <ele>554.936157</ele>
        <time>2011-02-20T09:23:25Z</time>
      </trkpt>
      <trkpt lat="43.64765" lon="6.68437">
        <ele>555.474792</ele>
        <time>2011-02-20T09:23:28Z</time>
      </trkpt>
      <trkpt lat="43.64784" lon="6.68447">
        <ele>557.588318</ele>
        <time>2011-02-20T09:23:38Z</time>
      </trkpt>
      <trkpt lat="43.64823" lon="6.68467">
        <ele>561.381653</ele>
        <time>2011-02-20T09:23:57Z</time>
      </trkpt>
      <trkpt lat="43.64851" lon="6.68479">
        <ele>567.634033</ele>
        <time>2011-02-20T09:24:11Z</time>
      </trkpt>
      <trkpt lat="43.64853" lon="6.68488">
        <ele>567.34729</ele>
        <time>2011-02-20T09:24:14Z</time>
      </trkpt>
      <trkpt lat="43.64853" lon="6.68492">
        <ele>566.90863</ele>
        <time>2011-02-20T09:24:16Z</time>
      </trkpt>
      <trkpt lat="43.64872" lon="6.68529">
        <ele>568.179138</ele>
        <time>2011-02-20T09:24:34Z</time>
      </trkpt>
      <trkpt lat="43.64887" lon="6.68565">
        <ele>570.097412</ele>
        <time>2011-02-20T09:24:48Z</time>
      </trkpt>
      <trkpt lat="43.64902" lon="6.68615">
        <ele>572.400208</ele>
        <time>2011-02-20T09:25:07Z</time>
      </trkpt>
      <trkpt lat="43.64915" lon="6.68653">
        <ele>575.008423</ele>
        <time>2011-02-20T09:25:23Z</time>
      </trkpt>
      <trkpt lat="43.64905" lon="6.68685">
        <ele>570.775879</ele>
        <time>2011-02-20T09:25:30Z</time>
      </trkpt>
      <trkpt lat="43.64915" lon="6.68709">
        <ele>571.532532</ele>
        <time>2011-02-20T09:25:39Z</time>
      </trkpt>
      <trkpt lat="43.64922" lon="6.6872">
        <ele>572.232849</ele>
        <time>2011-02-20T09:25:44Z</time>
      </trkpt>
      <trkpt lat="43.6493" lon="6.6873">
        <ele>573.440918</ele>
        <time>2011-02-20T09:25:50Z</time>
      </trkpt>
      <trkpt lat="43.64939" lon="6.68739">
        <ele>574.770996</ele>
        <time>2011-02-20T09:25:55Z</time>
      </trkpt>
      <trkpt lat="43.64969" lon="6.68761">
        <ele>578.402954</ele>
        <time>2011-02-20T09:26:13Z</time>
      </trkpt>
      <trkpt lat="43.64975" lon="6.68767">
        <ele>578.957825</ele>
        <time>2011-02-20T09:26:18Z</time>
      </trkpt>
      <trkpt lat="43.6498" lon="6.68769">
        <ele>579.502563</ele>
        <time>2011-02-20T09:26:20Z</time>
      </trkpt>
      <trkpt lat="43.64988" lon="6.68778">
        <ele>580.128418</ele>
        <time>2011-02-20T09:26:25Z</time>
      </trkpt>
      <trkpt lat="43.65005" lon="6.68791">
        <ele>581.764343</ele>
        <time>2011-02-20T09:26:35Z</time>
      </trkpt>
      <trkpt lat="43.65046" lon="6.68821">
        <ele>584.874634</ele>
        <time>2011-02-20T09:26:58Z</time>
      </trkpt>
      <trkpt lat="43.65083" lon="6.68849">
        <ele>586.448486</ele>
        <time>2011-02-20T09:27:20Z</time>
      </trkpt>
      <trkpt lat="43.65087" lon="6.68853">
        <ele>586.401489</ele>
        <time>2011-02-20T09:27:23Z</time>
      </trkpt>
      <trkpt lat="43.65087" lon="6.68853">
        <ele>586.401489</ele>
        <time>2011-02-20T09:27:40Z</time>
      </trkpt>
      <trkpt lat="43.6513" lon="6.68812">
        <ele>592.216553</ele>
        <time>2011-02-20T09:27:47Z</time>
      </trkpt>
      <trkpt lat="43.65132" lon="6.68808">
        <ele>592.516296</ele>
        <time>2011-02-20T09:27:48Z</time>
      </trkpt>
      <trkpt lat="43.65141" lon="6.68803">
        <ele>592.434509</ele>
        <time>2011-02-20T09:27:52Z</time>
      </trkpt>
      <trkpt lat="43.65151" lon="6.68801">
        <ele>592.262634</ele>
        <time>2011-02-20T09:27:59Z</time>
      </trkpt>
      <trkpt lat="43.65156" lon="6.68799">
        <ele>592.490234</ele>
        <time>2011-02-20T09:28:01Z</time>
      </trkpt>
      <trkpt lat="43.65164" lon="6.68795">
        <ele>592.952148</ele>
        <time>2011-02-20T09:28:06Z</time>
      </trkpt>
      <trkpt lat="43.65175" lon="6.68788">
        <ele>593.338745</ele>
        <time>2011-02-20T09:28:12Z</time>
      </trkpt>
      <trkpt lat="43.65184" lon="6.68786">
        <ele>593.125122</ele>
        <time>2011-02-20T09:28:16Z</time>
      </trkpt>
      <trkpt lat="43.65194" lon="6.68782">
        <ele>593.495667</ele>
        <time>2011-02-20T09:28:22Z</time>
      </trkpt>
      <trkpt lat="43.65216" lon="6.68771">
        <ele>595.268555</ele>
        <time>2011-02-20T09:28:35Z</time>
      </trkpt>
      <trkpt lat="43.65224" lon="6.68767">
        <ele>595.892273</ele>
        <time>2011-02-20T09:28:39Z</time>
      </trkpt>
      <trkpt lat="43.65231" lon="6.68763">
        <ele>596.851257</ele>
        <time>2011-02-20T09:28:43Z</time>
      </trkpt>
      <trkpt lat="43.65246" lon="6.68756">
        <ele>598.104065</ele>
        <time>2011-02-20T09:28:51Z</time>
      </trkpt>
      <trkpt lat="43.65261" lon="6.68748">
        <ele>598.869385</ele>
        <time>2011-02-20T09:28:59Z</time>
      </trkpt>
      <trkpt lat="43.65272" lon="6.68743">
        <ele>597.184753</ele>
        <time>2011-02-20T09:29:05Z</time>
      </trkpt>
      <trkpt lat="43.65289" lon="6.68726">
        <ele>597.940857</ele>
        <time>2011-02-20T09:29:16Z</time>
      </trkpt>
      <trkpt lat="43.65304" lon="6.68705">
        <ele>601.053528</ele>
        <time>2011-02-20T09:29:28Z</time>
      </trkpt>
      <trkpt lat="43.65319" lon="6.68681">
        <ele>602.776855</ele>
        <time>2011-02-20T09:29:40Z</time>
      </trkpt>
      <trkpt lat="43.65327" lon="6.6867">
        <ele>602.947021</ele>
        <time>2011-02-20T09:29:45Z</time>
      </trkpt>
      <trkpt lat="43.65334" lon="6.68664">
        <ele>602.819519</ele>
        <time>2011-02-20T09:29:49Z</time>
      </trkpt>
      <trkpt lat="43.65349" lon="6.68647">
        <ele>603.807678</ele>
        <time>2011-02-20T09:29:58Z</time>
      </trkpt>
      <trkpt lat="43.65355" lon="6.6864">
        <ele>604.351563</ele>
        <time>2011-02-20T09:30:02Z</time>
      </trkpt>
      <trkpt lat="43.65364" lon="6.68632">
        <ele>604.938477</ele>
        <time>2011-02-20T09:30:07Z</time>
      </trkpt>
      <trkpt lat="43.65368" lon="6.68628">
        <ele>604.917603</ele>
        <time>2011-02-20T09:30:10Z</time>
      </trkpt>
      <trkpt lat="43.65392" lon="6.68597">
        <ele>608.821899</ele>
        <time>2011-02-20T09:30:26Z</time>
      </trkpt>
      <trkpt lat="43.65413" lon="6.6857">
        <ele>617.160461</ele>
        <time>2011-02-20T09:30:41Z</time>
      </trkpt>
      <trkpt lat="43.65454" lon="6.686">
        <ele>609.882996</ele>
        <time>2011-02-20T09:30:54Z</time>
      </trkpt>
      <trkpt lat="43.65456" lon="6.686">
        <ele>610.098511</ele>
        <time>2011-02-20T09:30:55Z</time>
      </trkpt>
      <trkpt lat="43.65469" lon="6.68591">
        <ele>613.127319</ele>
        <time>2011-02-20T09:31:02Z</time>
      </trkpt>
      <trkpt lat="43.65499" lon="6.68572">
        <ele>617.258118</ele>
        <time>2011-02-20T09:31:19Z</time>
      </trkpt>
      <trkpt lat="43.65499" lon="6.68572">
        <ele>617.258118</ele>
        <time>2011-02-20T09:31:20Z</time>
      </trkpt>
      <trkpt lat="43.65512" lon="6.68563">
        <ele>618.742371</ele>
        <time>2011-02-20T09:31:27Z</time>
      </trkpt>
      <trkpt lat="43.65557" lon="6.68533">
        <ele>622.212463</ele>
        <time>2011-02-20T09:31:53Z</time>
      </trkpt>
      <trkpt lat="43.65578" lon="6.6852">
        <ele>621.347595</ele>
        <time>2011-02-20T09:32:06Z</time>
      </trkpt>
      <trkpt lat="43.65583" lon="6.68516">
        <ele>622.182434</ele>
        <time>2011-02-20T09:32:12Z</time>
      </trkpt>
      <trkpt lat="43.65583" lon="6.68516">
        <ele>622.182434</ele>
        <time>2011-02-20T09:32:16Z</time>
      </trkpt>
      <trkpt lat="43.65583" lon="6.68516">
        <ele>622.182434</ele>
        <time>2011-02-20T09:32:17Z</time>
      </trkpt>
      <trkpt lat="43.65583" lon="6.68514">
        <ele>622.248962</ele>
        <time>2011-02-20T09:34:24Z</time>
      </trkpt>
      <trkpt lat="43.65583" lon="6.68514">
        <ele>622.248962</ele>
        <time>2011-02-20T09:35:46Z</time>
      </trkpt>
      <trkpt lat="43.65587" lon="6.68512">
        <ele>622.991638</ele>
        <time>2011-02-20T09:35:48Z</time>
      </trkpt>
      <trkpt lat="43.65587" lon="6.68512">
        <ele>622.991638</ele>
        <time>2011-02-20T09:35:57Z</time>
      </trkpt>
      <trkpt lat="43.65589" lon="6.68509">
        <ele>623.355286</ele>
        <time>2011-02-20T09:35:59Z</time>
      </trkpt>
      <trkpt lat="43.65596" lon="6.68509">
        <ele>624.307312</ele>
        <time>2011-02-20T09:36:02Z</time>
      </trkpt>
      <trkpt lat="43.65602" lon="6.68512">
        <ele>625.290955</ele>
        <time>2011-02-20T09:36:06Z</time>
      </trkpt>
      <trkpt lat="43.65604" lon="6.68514">
        <ele>625.675354</ele>
        <time>2011-02-20T09:36:08Z</time>
      </trkpt>
      <trkpt lat="43.65608" lon="6.68522">
        <ele>626.708435</ele>
        <time>2011-02-20T09:36:12Z</time>
      </trkpt>
      <trkpt lat="43.65613" lon="6.68531">
        <ele>628.059326</ele>
        <time>2011-02-20T09:36:16Z</time>
      </trkpt>
      <trkpt lat="43.65617" lon="6.68546">
        <ele>630.852417</ele>
        <time>2011-02-20T09:36:22Z</time>
      </trkpt>
      <trkpt lat="43.65615" lon="6.68561">
        <ele>632.35907</ele>
        <time>2011-02-20T09:36:28Z</time>
      </trkpt>
      <trkpt lat="43.65611" lon="6.68578">
        <ele>633.571716</ele>
        <time>2011-02-20T09:36:34Z</time>
      </trkpt>
      <trkpt lat="43.65587" lon="6.68617">
        <ele>633.19635</ele>
        <time>2011-02-20T09:36:52Z</time>
      </trkpt>
      <trkpt lat="43.65566" lon="6.68662">
        <ele>634.67395</ele>
        <time>2011-02-20T09:37:11Z</time>
      </trkpt>
      <trkpt lat="43.65561" lon="6.68677">
        <ele>635.764343</ele>
        <time>2011-02-20T09:37:17Z</time>
      </trkpt>
      <trkpt lat="43.65553" lon="6.68709">
        <ele>638.011475</ele>
        <time>2011-02-20T09:37:29Z</time>
      </trkpt>
      <trkpt lat="43.65546" lon="6.68735">
        <ele>638.517944</ele>
        <time>2011-02-20T09:37:38Z</time>
      </trkpt>
      <trkpt lat="43.65546" lon="6.68737">
        <ele>638.717407</ele>
        <time>2011-02-20T09:37:39Z</time>
      </trkpt>
      <trkpt lat="43.65544" lon="6.68773">
        <ele>641.351501</ele>
        <time>2011-02-20T09:37:52Z</time>
      </trkpt>
      <trkpt lat="43.65542" lon="6.68831">
        <ele>643.797241</ele>
        <time>2011-02-20T09:38:11Z</time>
      </trkpt>
      <trkpt lat="43.65546" lon="6.68866">
        <ele>646.215759</ele>
        <time>2011-02-20T09:38:23Z</time>
      </trkpt>
      <trkpt lat="43.65546" lon="6.68876">
        <ele>646.489746</ele>
        <time>2011-02-20T09:38:28Z</time>
      </trkpt>
      <trkpt lat="43.65559" lon="6.68928">
        <ele>650.11615</ele>
        <time>2011-02-20T09:38:49Z</time>
      </trkpt>
      <trkpt lat="43.65572" lon="6.68975">
        <ele>651.205688</ele>
        <time>2011-02-20T09:39:06Z</time>
      </trkpt>
      <trkpt lat="43.65576" lon="6.68986">
        <ele>651.096313</ele>
        <time>2011-02-20T09:39:10Z</time>
      </trkpt>
      <trkpt lat="43.656" lon="6.69009">
        <ele>653.36499</ele>
        <time>2011-02-20T09:39:23Z</time>
      </trkpt>
      <trkpt lat="43.65621" lon="6.69029">
        <ele>654.934814</ele>
        <time>2011-02-20T09:39:34Z</time>
      </trkpt>
      <trkpt lat="43.65606" lon="6.68952">
        <ele>661.532166</ele>
        <time>2011-02-20T09:39:39Z</time>
      </trkpt>
      <trkpt lat="43.65604" lon="6.68945">
        <ele>661.232605</ele>
        <time>2011-02-20T09:39:41Z</time>
      </trkpt>
      <trkpt lat="43.656" lon="6.68932">
        <ele>660.601013</ele>
        <time>2011-02-20T09:39:47Z</time>
      </trkpt>
      <trkpt lat="43.65598" lon="6.68921">
        <ele>660.416992</ele>
        <time>2011-02-20T09:39:50Z</time>
      </trkpt>
      <trkpt lat="43.65598" lon="6.68919">
        <ele>660.490845</ele>
        <time>2011-02-20T09:39:51Z</time>
      </trkpt>
      <trkpt lat="43.656" lon="6.68909">
        <ele>661.43103</ele>
        <time>2011-02-20T09:39:55Z</time>
      </trkpt>
      <trkpt lat="43.65613" lon="6.68853">
        <ele>663.680115</ele>
        <time>2011-02-20T09:40:15Z</time>
      </trkpt>
      <trkpt lat="43.65626" lon="6.68814">
        <ele>665.187378</ele>
        <time>2011-02-20T09:40:29Z</time>
      </trkpt>
      <trkpt lat="43.65632" lon="6.6881">
        <ele>666.269714</ele>
        <time>2011-02-20T09:40:32Z</time>
      </trkpt>
      <trkpt lat="43.65643" lon="6.68801">
        <ele>667.976563</ele>
        <time>2011-02-20T09:40:38Z</time>
      </trkpt>
      <trkpt lat="43.65647" lon="6.68797">
        <ele>668.608887</ele>
        <time>2011-02-20T09:40:41Z</time>
      </trkpt>
      <trkpt lat="43.6566" lon="6.68793">
        <ele>670.664368</ele>
        <time>2011-02-20T09:40:47Z</time>
      </trkpt>
      <trkpt lat="43.65699" lon="6.68782">
        <ele>675.246155</ele>
        <time>2011-02-20T09:41:06Z</time>
      </trkpt>
      <trkpt lat="43.65718" lon="6.68771">
        <ele>677.610962</ele>
        <time>2011-02-20T09:41:17Z</time>
      </trkpt>
      <trkpt lat="43.65729" lon="6.68761">
        <ele>678.696045</ele>
        <time>2011-02-20T09:41:23Z</time>
      </trkpt>
      <trkpt lat="43.65733" lon="6.68748">
        <ele>678.514954</ele>
        <time>2011-02-20T09:41:28Z</time>
      </trkpt>
      <trkpt lat="43.65754" lon="6.68724">
        <ele>680.389099</ele>
        <time>2011-02-20T09:41:41Z</time>
      </trkpt>
      <trkpt lat="43.65763" lon="6.68713">
        <ele>680.368896</ele>
        <time>2011-02-20T09:41:47Z</time>
      </trkpt>
      <trkpt lat="43.65774" lon="6.68705">
        <ele>681.001221</ele>
        <time>2011-02-20T09:41:53Z</time>
      </trkpt>
      <trkpt lat="43.65804" lon="6.68679">
        <ele>682.984192</ele>
        <time>2011-02-20T09:42:11Z</time>
      </trkpt>
      <trkpt lat="43.65847" lon="6.68647">
        <ele>687.1698</ele>
        <time>2011-02-20T09:42:35Z</time>
      </trkpt>
      <trkpt lat="43.65885" lon="6.68621">
        <ele>693.306885</ele>
        <time>2011-02-20T09:42:58Z</time>
      </trkpt>
      <trkpt lat="43.65905" lon="6.68608">
        <ele>695.760803</ele>
        <time>2011-02-20T09:43:10Z</time>
      </trkpt>
      <trkpt lat="43.65915" lon="6.68602">
        <ele>696.944031</ele>
        <time>2011-02-20T09:43:16Z</time>
      </trkpt>
      <trkpt lat="43.65922" lon="6.68589">
        <ele>695.245728</ele>
        <time>2011-02-20T09:43:32Z</time>
      </trkpt>
      <trkpt lat="43.6592" lon="6.68589">
        <ele>694.687378</ele>
        <time>2011-02-20T09:44:11Z</time>
      </trkpt>
      <trkpt lat="43.65926" lon="6.68589">
        <ele>696.361694</ele>
        <time>2011-02-20T09:44:14Z</time>
      </trkpt>
      <trkpt lat="43.65928" lon="6.68589">
        <ele>696.91925</ele>
        <time>2011-02-20T09:44:15Z</time>
      </trkpt>
      <trkpt lat="43.65941" lon="6.68587">
        <ele>699.568848</ele>
        <time>2011-02-20T09:44:21Z</time>
      </trkpt>
      <trkpt lat="43.65978" lon="6.68572">
        <ele>703.895386</ele>
        <time>2011-02-20T09:44:39Z</time>
      </trkpt>
      <trkpt lat="43.65978" lon="6.68572">
        <ele>703.895386</ele>
        <time>2011-02-20T09:44:40Z</time>
      </trkpt>
      <trkpt lat="43.6599" lon="6.68559">
        <ele>702.234375</ele>
        <time>2011-02-20T09:44:47Z</time>
      </trkpt>
      <trkpt lat="43.65999" lon="6.68552">
        <ele>701.226868</ele>
        <time>2011-02-20T09:44:52Z</time>
      </trkpt>
      <trkpt lat="43.66005" lon="6.6855">
        <ele>701.301819</ele>
        <time>2011-02-20T09:44:56Z</time>
      </trkpt>
      <trkpt lat="43.66035" lon="6.68544">
        <ele>702.522583</ele>
        <time>2011-02-20T09:45:12Z</time>
      </trkpt>
      <trkpt lat="43.66091" lon="6.68537">
        <ele>704.363647</ele>
        <time>2011-02-20T09:45:40Z</time>
      </trkpt>
      <trkpt lat="43.66117" lon="6.68537">
        <ele>705.541321</ele>
        <time>2011-02-20T09:45:53Z</time>
      </trkpt>
      <trkpt lat="43.66145" lon="6.6854">
        <ele>705.623779</ele>
        <time>2011-02-20T09:46:05Z</time>
      </trkpt>
      <trkpt lat="43.66188" lon="6.6855">
        <ele>707.174683</ele>
        <time>2011-02-20T09:46:26Z</time>
      </trkpt>
      <trkpt lat="43.66194" lon="6.68555">
        <ele>707.957397</ele>
        <time>2011-02-20T09:46:29Z</time>
      </trkpt>
      <trkpt lat="43.66218" lon="6.68572">
        <ele>711.712952</ele>
        <time>2011-02-20T09:46:41Z</time>
      </trkpt>
      <trkpt lat="43.66226" lon="6.68576">
        <ele>712.828796</ele>
        <time>2011-02-20T09:46:46Z</time>
      </trkpt>
      <trkpt lat="43.66265" lon="6.6858">
        <ele>715.065552</ele>
        <time>2011-02-20T09:47:04Z</time>
      </trkpt>
      <trkpt lat="43.66295" lon="6.68582">
        <ele>717.03186</ele>
        <time>2011-02-20T09:47:18Z</time>
      </trkpt>
      <trkpt lat="43.66314" lon="6.68582">
        <ele>719.414612</ele>
        <time>2011-02-20T09:47:28Z</time>
      </trkpt>
      <trkpt lat="43.66327" lon="6.68582">
        <ele>721.160156</ele>
        <time>2011-02-20T09:47:34Z</time>
      </trkpt>
      <trkpt lat="43.66374" lon="6.68587">
        <ele>726.003967</ele>
        <time>2011-02-20T09:47:56Z</time>
      </trkpt>
      <trkpt lat="43.66392" lon="6.68587">
        <ele>727.509277</ele>
        <time>2011-02-20T09:48:04Z</time>
      </trkpt>
      <trkpt lat="43.66402" lon="6.68587">
        <ele>728.303284</ele>
        <time>2011-02-20T09:48:10Z</time>
      </trkpt>
      <trkpt lat="43.66417" lon="6.68589">
        <ele>729.255615</ele>
        <time>2011-02-20T09:48:17Z</time>
      </trkpt>
      <trkpt lat="43.66426" lon="6.68593">
        <ele>729.515686</ele>
        <time>2011-02-20T09:48:22Z</time>
      </trkpt>
      <trkpt lat="43.6646" lon="6.68619">
        <ele>730.435791</ele>
        <time>2011-02-20T09:48:40Z</time>
      </trkpt>
      <trkpt lat="43.66482" lon="6.6863">
        <ele>731.844055</ele>
        <time>2011-02-20T09:48:52Z</time>
      </trkpt>
      <trkpt lat="43.6649" lon="6.6863">
        <ele>733.363831</ele>
        <time>2011-02-20T09:48:58Z</time>
      </trkpt>
      <trkpt lat="43.66495" lon="6.68621">
        <ele>735.111145</ele>
        <time>2011-02-20T09:49:01Z</time>
      </trkpt>
      <trkpt lat="43.66495" lon="6.68619">
        <ele>735.358704</ele>
        <time>2011-02-20T09:49:02Z</time>
      </trkpt>
      <trkpt lat="43.66495" lon="6.68591">
        <ele>738.49646</ele>
        <time>2011-02-20T09:49:12Z</time>
      </trkpt>
      <trkpt lat="43.66488" lon="6.68567">
        <ele>739.8797</ele>
        <time>2011-02-20T09:49:21Z</time>
      </trkpt>
      <trkpt lat="43.66486" lon="6.68561">
        <ele>740.219116</ele>
        <time>2011-02-20T09:49:23Z</time>
      </trkpt>
      <trkpt lat="43.66484" lon="6.68552">
        <ele>740.794678</ele>
        <time>2011-02-20T09:49:27Z</time>
      </trkpt>
      <trkpt lat="43.66482" lon="6.6854">
        <ele>741.840576</ele>
        <time>2011-02-20T09:49:32Z</time>
      </trkpt>
      <trkpt lat="43.66469" lon="6.68499">
        <ele>742.743652</ele>
        <time>2011-02-20T09:49:47Z</time>
      </trkpt>
      <trkpt lat="43.66467" lon="6.68488">
        <ele>743.081726</ele>
        <time>2011-02-20T09:49:51Z</time>
      </trkpt>
      <trkpt lat="43.66462" lon="6.68475">
        <ele>743.250122</ele>
        <time>2011-02-20T09:49:56Z</time>
      </trkpt>
      <trkpt lat="43.6645" lon="6.68428">
        <ele>743.105957</ele>
        <time>2011-02-20T09:50:15Z</time>
      </trkpt>
      <trkpt lat="43.66439" lon="6.68398">
        <ele>742.419128</ele>
        <time>2011-02-20T09:50:27Z</time>
      </trkpt>
      <trkpt lat="43.66439" lon="6.68391">
        <ele>742.704712</ele>
        <time>2011-02-20T09:50:29Z</time>
      </trkpt>
      <trkpt lat="43.66445" lon="6.68385">
        <ele>743.893066</ele>
        <time>2011-02-20T09:50:32Z</time>
      </trkpt>
      <trkpt lat="43.66465" lon="6.68366">
        <ele>747.125183</ele>
        <time>2011-02-20T09:50:41Z</time>
      </trkpt>
      <trkpt lat="43.66486" lon="6.68342">
        <ele>750.19043</ele>
        <time>2011-02-20T09:50:53Z</time>
      </trkpt>
      <trkpt lat="43.66499" lon="6.68338">
        <ele>751.848755</ele>
        <time>2011-02-20T09:50:59Z</time>
      </trkpt>
      <trkpt lat="43.66568" lon="6.68321">
        <ele>757.584717</ele>
        <time>2011-02-20T09:51:29Z</time>
      </trkpt>
      <trkpt lat="43.66656" lon="6.68306">
        <ele>757.982788</ele>
        <time>2011-02-20T09:51:59Z</time>
      </trkpt>
      <trkpt lat="43.6672" lon="6.68288">
        <ele>757.865234</ele>
        <time>2011-02-20T09:52:17Z</time>
      </trkpt>
      <trkpt lat="43.66733" lon="6.68269">
        <ele>756.294189</ele>
        <time>2011-02-20T09:52:25Z</time>
      </trkpt>
      <trkpt lat="43.66735" lon="6.68265">
        <ele>755.92041</ele>
        <time>2011-02-20T09:52:27Z</time>
      </trkpt>
      <trkpt lat="43.66739" lon="6.68261">
        <ele>755.539063</ele>
        <time>2011-02-20T09:52:30Z</time>
      </trkpt>
      <trkpt lat="43.66746" lon="6.68254">
        <ele>754.941406</ele>
        <time>2011-02-20T09:52:34Z</time>
      </trkpt>
      <trkpt lat="43.66746" lon="6.68254">
        <ele>754.941406</ele>
        <time>2011-02-20T09:52:36Z</time>
      </trkpt>
      <trkpt lat="43.6675" lon="6.68256">
        <ele>755.127197</ele>
        <time>2011-02-20T09:53:10Z</time>
      </trkpt>
      <trkpt lat="43.6675" lon="6.68256">
        <ele>755.127197</ele>
        <time>2011-02-20T09:54:05Z</time>
      </trkpt>
      <trkpt lat="43.66746" lon="6.68252">
        <ele>754.744263</ele>
        <time>2011-02-20T09:54:11Z</time>
      </trkpt>
      <trkpt lat="43.66744" lon="6.68252">
        <ele>754.752869</ele>
        <time>2011-02-20T09:54:17Z</time>
      </trkpt>
      <trkpt lat="43.66744" lon="6.68241">
        <ele>754.043884</ele>
        <time>2011-02-20T09:54:22Z</time>
      </trkpt>
      <trkpt lat="43.66761" lon="6.68168">
        <ele>754.673096</ele>
        <time>2011-02-20T09:54:36Z</time>
      </trkpt>
      <trkpt lat="43.66786" lon="6.68057">
        <ele>754.663452</ele>
        <time>2011-02-20T09:54:50Z</time>
      </trkpt>
      <trkpt lat="43.66804" lon="6.67988">
        <ele>753.30365</ele>
        <time>2011-02-20T09:54:58Z</time>
      </trkpt>
      <trkpt lat="43.66832" lon="6.67949">
        <ele>755.753357</ele>
        <time>2011-02-20T09:55:09Z</time>
      </trkpt>
      <trkpt lat="43.6684" lon="6.67939">
        <ele>757.10907</ele>
        <time>2011-02-20T09:55:14Z</time>
      </trkpt>
      <trkpt lat="43.66857" lon="6.67911">
        <ele>760.557861</ele>
        <time>2011-02-20T09:55:27Z</time>
      </trkpt>
      <trkpt lat="43.66859" lon="6.67909">
        <ele>760.983826</ele>
        <time>2011-02-20T09:55:28Z</time>
      </trkpt>
      <trkpt lat="43.66866" lon="6.67892">
        <ele>762.811584</ele>
        <time>2011-02-20T09:55:35Z</time>
      </trkpt>
      <trkpt lat="43.66866" lon="6.67879">
        <ele>763.367554</ele>
        <time>2011-02-20T09:55:39Z</time>
      </trkpt>
      <trkpt lat="43.66866" lon="6.67864">
        <ele>764.211853</ele>
        <time>2011-02-20T09:55:44Z</time>
      </trkpt>
      <trkpt lat="43.66864" lon="6.67821">
        <ele>766.204529</ele>
        <time>2011-02-20T09:55:59Z</time>
      </trkpt>
      <trkpt lat="43.66862" lon="6.67769">
        <ele>770.132507</ele>
        <time>2011-02-20T09:56:17Z</time>
      </trkpt>
      <trkpt lat="43.66862" lon="6.67754">
        <ele>771.498047</ele>
        <time>2011-02-20T09:56:22Z</time>
      </trkpt>
      <trkpt lat="43.66868" lon="6.6775">
        <ele>773.506897</ele>
        <time>2011-02-20T09:56:26Z</time>
      </trkpt>
      <trkpt lat="43.6687" lon="6.6775">
        <ele>773.986267</ele>
        <time>2011-02-20T09:56:27Z</time>
      </trkpt>
      <trkpt lat="43.66894" lon="6.67763">
        <ele>775.921814</ele>
        <time>2011-02-20T09:56:40Z</time>
      </trkpt>
      <trkpt lat="43.66904" lon="6.67771">
        <ele>776.759399</ele>
        <time>2011-02-20T09:56:46Z</time>
      </trkpt>
      <trkpt lat="43.66917" lon="6.67791">
        <ele>777.183105</ele>
        <time>2011-02-20T09:56:55Z</time>
      </trkpt>
      <trkpt lat="43.6692" lon="6.67799">
        <ele>776.882385</ele>
        <time>2011-02-20T09:56:58Z</time>
      </trkpt>
      <trkpt lat="43.66937" lon="6.67851">
        <ele>777.15686</ele>
        <time>2011-02-20T09:57:17Z</time>
      </trkpt>
      <trkpt lat="43.66952" lon="6.67881">
        <ele>778.748291</ele>
        <time>2011-02-20T09:57:29Z</time>
      </trkpt>
      <trkpt lat="43.66986" lon="6.67919">
        <ele>781.321411</ele>
        <time>2011-02-20T09:57:49Z</time>
      </trkpt>
      <trkpt lat="43.6699" lon="6.67924">
        <ele>781.690002</ele>
        <time>2011-02-20T09:57:52Z</time>
      </trkpt>
      <trkpt lat="43.67016" lon="6.67945">
        <ele>782.570496</ele>
        <time>2011-02-20T09:58:04Z</time>
      </trkpt>
      <trkpt lat="43.6702" lon="6.67943">
        <ele>782.703796</ele>
        <time>2011-02-20T09:58:10Z</time>
      </trkpt>
      <trkpt lat="43.6702" lon="6.67943">
        <ele>782.703796</ele>
        <time>2011-02-20T09:58:11Z</time>
      </trkpt>
      <trkpt lat="43.67023" lon="6.67939">
        <ele>782.819458</ele>
        <time>2011-02-20T09:58:51Z</time>
      </trkpt>
      <trkpt lat="43.67023" lon="6.67939">
        <ele>782.819458</ele>
        <time>2011-02-20T09:58:53Z</time>
      </trkpt>
      <trkpt lat="43.67023" lon="6.67939">
        <ele>782.819458</ele>
        <time>2011-02-20T09:59:04Z</time>
      </trkpt>
      <trkpt lat="43.67025" lon="6.67945">
        <ele>782.771729</ele>
        <time>2011-02-20T09:59:06Z</time>
      </trkpt>
      <trkpt lat="43.67038" lon="6.67952">
        <ele>782.975464</ele>
        <time>2011-02-20T09:59:11Z</time>
      </trkpt>
      <trkpt lat="43.67059" lon="6.67952">
        <ele>782.681702</ele>
        <time>2011-02-20T09:59:16Z</time>
      </trkpt>
      <trkpt lat="43.6713" lon="6.67919">
        <ele>778.575989</ele>
        <time>2011-02-20T09:59:28Z</time>
      </trkpt>
      <trkpt lat="43.6716" lon="6.67904">
        <ele>775.134155</ele>
        <time>2011-02-20T09:59:32Z</time>
      </trkpt>
      <trkpt lat="43.67175" lon="6.67898">
        <ele>773.45929</ele>
        <time>2011-02-20T09:59:34Z</time>
      </trkpt>
      <trkpt lat="43.67177" lon="6.67883">
        <ele>773.276917</ele>
        <time>2011-02-20T09:59:35Z</time>
      </trkpt>
      <trkpt lat="43.67179" lon="6.67857">
        <ele>773.147461</ele>
        <time>2011-02-20T09:59:37Z</time>
      </trkpt>
      <trkpt lat="43.67192" lon="6.67789">
        <ele>771.157959</ele>
        <time>2011-02-20T09:59:42Z</time>
      </trkpt>
      <trkpt lat="43.67196" lon="6.67776">
        <ele>770.630859</ele>
        <time>2011-02-20T09:59:43Z</time>
      </trkpt>
      <trkpt lat="43.67209" lon="6.67752">
        <ele>769.305908</ele>
        <time>2011-02-20T09:59:45Z</time>
      </trkpt>
      <trkpt lat="43.67248" lon="6.67726">
        <ele>765.130127</ele>
        <time>2011-02-20T09:59:49Z</time>
      </trkpt>
      <trkpt lat="43.67289" lon="6.67741">
        <ele>760.534302</ele>
        <time>2011-02-20T09:59:53Z</time>
      </trkpt>
      <trkpt lat="43.67306" lon="6.67758">
        <ele>758.550842</ele>
        <time>2011-02-20T09:59:55Z</time>
      </trkpt>
      <trkpt lat="43.67332" lon="6.67789">
        <ele>755.826904</ele>
        <time>2011-02-20T09:59:58Z</time>
      </trkpt>
      <trkpt lat="43.67349" lon="6.67808">
        <ele>754.477661</ele>
        <time>2011-02-20T10:00:00Z</time>
      </trkpt>
      <trkpt lat="43.67374" lon="6.67838">
        <ele>752.535095</ele>
        <time>2011-02-20T10:00:03Z</time>
      </trkpt>
      <trkpt lat="43.674" lon="6.67868">
        <ele>750.592468</ele>
        <time>2011-02-20T10:00:06Z</time>
      </trkpt>
      <trkpt lat="43.67426" lon="6.67898">
        <ele>748.165955</ele>
        <time>2011-02-20T10:00:09Z</time>
      </trkpt>
      <trkpt lat="43.6746" lon="6.67937">
        <ele>745.160889</ele>
        <time>2011-02-20T10:00:13Z</time>
      </trkpt>
      <trkpt lat="43.67469" lon="6.67947">
        <ele>744.573364</ele>
        <time>2011-02-20T10:00:14Z</time>
      </trkpt>
      <trkpt lat="43.67503" lon="6.67988">
        <ele>742.118103</ele>
        <time>2011-02-20T10:00:18Z</time>
      </trkpt>
      <trkpt lat="43.6754" lon="6.68027">
        <ele>740.080261</ele>
        <time>2011-02-20T10:00:22Z</time>
      </trkpt>
      <trkpt lat="43.67587" lon="6.68025">
        <ele>736.507874</ele>
        <time>2011-02-20T10:00:26Z</time>
      </trkpt>
      <trkpt lat="43.67619" lon="6.68035">
        <ele>734.19751</ele>
        <time>2011-02-20T10:00:29Z</time>
      </trkpt>
      <trkpt lat="43.67709" lon="6.68104">
        <ele>727.363098</ele>
        <time>2011-02-20T10:00:41Z</time>
      </trkpt>
      <trkpt lat="43.67829" lon="6.68254">
        <ele>726.625732</ele>
        <time>2011-02-20T10:01:04Z</time>
      </trkpt>
      <trkpt lat="43.67836" lon="6.68269">
        <ele>726.683105</ele>
        <time>2011-02-20T10:01:06Z</time>
      </trkpt>
      <trkpt lat="43.6784" lon="6.68291">
        <ele>726.780701</ele>
        <time>2011-02-20T10:01:09Z</time>
      </trkpt>
      <trkpt lat="43.67862" lon="6.68482">
        <ele>727.999146</ele>
        <time>2011-02-20T10:01:34Z</time>
      </trkpt>
      <trkpt lat="43.67877" lon="6.68619">
        <ele>731.848999</ele>
        <time>2011-02-20T10:01:52Z</time>
      </trkpt>
      <trkpt lat="43.67868" lon="6.6864">
        <ele>731.835999</ele>
        <time>2011-02-20T10:01:55Z</time>
      </trkpt>
      <trkpt lat="43.67838" lon="6.68703">
        <ele>732.435303</ele>
        <time>2011-02-20T10:02:05Z</time>
      </trkpt>
      <trkpt lat="43.67831" lon="6.68748">
        <ele>730.786316</ele>
        <time>2011-02-20T10:02:11Z</time>
      </trkpt>
      <trkpt lat="43.67823" lon="6.68876">
        <ele>722.848572</ele>
        <time>2011-02-20T10:02:28Z</time>
      </trkpt>
      <trkpt lat="43.67894" lon="6.68986">
        <ele>727.610779</ele>
        <time>2011-02-20T10:02:46Z</time>
      </trkpt>
      <trkpt lat="43.67898" lon="6.68994">
        <ele>727.709167</ele>
        <time>2011-02-20T10:02:47Z</time>
      </trkpt>
      <trkpt lat="43.67898" lon="6.69005">
        <ele>726.594055</ele>
        <time>2011-02-20T10:02:48Z</time>
      </trkpt>
      <trkpt lat="43.67889" lon="6.69048">
        <ele>724.855774</ele>
        <time>2011-02-20T10:02:52Z</time>
      </trkpt>
      <trkpt lat="43.67885" lon="6.6907">
        <ele>724.71936</ele>
        <time>2011-02-20T10:02:54Z</time>
      </trkpt>
      <trkpt lat="43.67896" lon="6.69138">
        <ele>727.937927</ele>
        <time>2011-02-20T10:03:00Z</time>
      </trkpt>
      <trkpt lat="43.67926" lon="6.69162">
        <ele>723.747314</ele>
        <time>2011-02-20T10:03:04Z</time>
      </trkpt>
      <trkpt lat="43.67943" lon="6.69168">
        <ele>721.933167</ele>
        <time>2011-02-20T10:03:06Z</time>
      </trkpt>
      <trkpt lat="43.67971" lon="6.69177">
        <ele>717.587585</ele>
        <time>2011-02-20T10:03:09Z</time>
      </trkpt>
      <trkpt lat="43.68022" lon="6.69181">
        <ele>710.871887</ele>
        <time>2011-02-20T10:03:14Z</time>
      </trkpt>
      <trkpt lat="43.68033" lon="6.69177">
        <ele>710.562134</ele>
        <time>2011-02-20T10:03:15Z</time>
      </trkpt>
      <trkpt lat="43.68055" lon="6.69173">
        <ele>707.283203</ele>
        <time>2011-02-20T10:03:17Z</time>
      </trkpt>
      <trkpt lat="43.68083" lon="6.69147">
        <ele>706.085022</ele>
        <time>2011-02-20T10:03:20Z</time>
      </trkpt>
      <trkpt lat="43.68091" lon="6.69136">
        <ele>706.247253</ele>
        <time>2011-02-20T10:03:21Z</time>
      </trkpt>
      <trkpt lat="43.68108" lon="6.69117">
        <ele>707.477661</ele>
        <time>2011-02-20T10:03:23Z</time>
      </trkpt>
      <trkpt lat="43.68151" lon="6.69095">
        <ele>705.021729</ele>
        <time>2011-02-20T10:03:27Z</time>
      </trkpt>
      <trkpt lat="43.68186" lon="6.69095">
        <ele>700.666748</ele>
        <time>2011-02-20T10:03:30Z</time>
      </trkpt>
      <trkpt lat="43.68222" lon="6.69097">
        <ele>702.620789</ele>
        <time>2011-02-20T10:03:33Z</time>
      </trkpt>
      <trkpt lat="43.68258" lon="6.69136">
        <ele>695.638916</ele>
        <time>2011-02-20T10:03:37Z</time>
      </trkpt>
      <trkpt lat="43.68276" lon="6.69158">
        <ele>689.888794</ele>
        <time>2011-02-20T10:03:39Z</time>
      </trkpt>
      <trkpt lat="43.6831" lon="6.69162">
        <ele>691.008057</ele>
        <time>2011-02-20T10:03:43Z</time>
      </trkpt>
      <trkpt lat="43.68319" lon="6.69158">
        <ele>691.645996</ele>
        <time>2011-02-20T10:03:44Z</time>
      </trkpt>
      <trkpt lat="43.6834" lon="6.69149">
        <ele>692.843445</ele>
        <time>2011-02-20T10:03:46Z</time>
      </trkpt>
      <trkpt lat="43.68357" lon="6.69147">
        <ele>693.460083</ele>
        <time>2011-02-20T10:03:48Z</time>
      </trkpt>
      <trkpt lat="43.68376" lon="6.69164">
        <ele>684.706726</ele>
        <time>2011-02-20T10:03:51Z</time>
      </trkpt>
      <trkpt lat="43.68381" lon="6.69173">
        <ele>680.79187</ele>
        <time>2011-02-20T10:03:52Z</time>
      </trkpt>
      <trkpt lat="43.68387" lon="6.6919">
        <ele>684.828308</ele>
        <time>2011-02-20T10:03:54Z</time>
      </trkpt>
      <trkpt lat="43.6837" lon="6.69215">
        <ele>690.858276</ele>
        <time>2011-02-20T10:03:59Z</time>
      </trkpt>
      <trkpt lat="43.68359" lon="6.69226">
        <ele>691.680725</ele>
        <time>2011-02-20T10:04:03Z</time>
      </trkpt>
      <trkpt lat="43.68353" lon="6.69235">
        <ele>692.262268</ele>
        <time>2011-02-20T10:04:06Z</time>
      </trkpt>
      <trkpt lat="43.68344" lon="6.6925">
        <ele>693.697632</ele>
        <time>2011-02-20T10:04:12Z</time>
      </trkpt>
      <trkpt lat="43.68316" lon="6.69297">
        <ele>698.529236</ele>
        <time>2011-02-20T10:04:31Z</time>
      </trkpt>
      <trkpt lat="43.6831" lon="6.6931">
        <ele>700.947021</ele>
        <time>2011-02-20T10:04:36Z</time>
      </trkpt>
      <trkpt lat="43.68304" lon="6.69323">
        <ele>703.534912</ele>
        <time>2011-02-20T10:04:41Z</time>
      </trkpt>
      <trkpt lat="43.68293" lon="6.69333">
        <ele>704.871033</ele>
        <time>2011-02-20T10:04:47Z</time>
      </trkpt>
      <trkpt lat="43.68286" lon="6.69338">
        <ele>705.626465</ele>
        <time>2011-02-20T10:04:51Z</time>
      </trkpt>
      <trkpt lat="43.68241" lon="6.69359">
        <ele>706.346741</ele>
        <time>2011-02-20T10:05:14Z</time>
      </trkpt>
      <trkpt lat="43.68222" lon="6.69366">
        <ele>702.585083</ele>
        <time>2011-02-20T10:05:23Z</time>
      </trkpt>
      <trkpt lat="43.68222" lon="6.69366">
        <ele>702.585083</ele>
        <time>2011-02-20T10:05:42Z</time>
      </trkpt>
      <trkpt lat="43.68222" lon="6.69366">
        <ele>702.585083</ele>
        <time>2011-02-20T10:06:03Z</time>
      </trkpt>
      <trkpt lat="43.68164" lon="6.69499">
        <ele>715.504639</ele>
        <time>2011-02-20T10:06:24Z</time>
      </trkpt>
      <trkpt lat="43.68164" lon="6.69499">
        <ele>715.504639</ele>
        <time>2011-02-20T10:06:25Z</time>
      </trkpt>
      <trkpt lat="43.68158" lon="6.69497">
        <ele>715.088318</ele>
        <time>2011-02-20T10:06:29Z</time>
      </trkpt>
      <trkpt lat="43.68138" lon="6.6949">
        <ele>715.151672</ele>
        <time>2011-02-20T10:06:40Z</time>
      </trkpt>
      <trkpt lat="43.68123" lon="6.69488">
        <ele>716.483154</ele>
        <time>2011-02-20T10:06:48Z</time>
      </trkpt>
      <trkpt lat="43.68106" lon="6.69494">
        <ele>719.323608</ele>
        <time>2011-02-20T10:06:58Z</time>
      </trkpt>
      <trkpt lat="43.68095" lon="6.69507">
        <ele>720.812561</ele>
        <time>2011-02-20T10:07:05Z</time>
      </trkpt>
      <trkpt lat="43.68087" lon="6.69518">
        <ele>722.158142</ele>
        <time>2011-02-20T10:07:11Z</time>
      </trkpt>
      <trkpt lat="43.68072" lon="6.69533">
        <ele>724.049988</ele>
        <time>2011-02-20T10:07:20Z</time>
      </trkpt>
      <trkpt lat="43.68065" lon="6.69539">
        <ele>724.900452</ele>
        <time>2011-02-20T10:07:24Z</time>
      </trkpt>
      <trkpt lat="43.68061" lon="6.69544">
        <ele>725.501526</ele>
        <time>2011-02-20T10:07:27Z</time>
      </trkpt>
      <trkpt lat="43.68048" lon="6.6955">
        <ele>726.264709</ele>
        <time>2011-02-20T10:07:34Z</time>
      </trkpt>
      <trkpt lat="43.68025" lon="6.69563">
        <ele>728.319763</ele>
        <time>2011-02-20T10:07:47Z</time>
      </trkpt>
      <trkpt lat="43.6802" lon="6.69567">
        <ele>729.164856</ele>
        <time>2011-02-20T10:07:50Z</time>
      </trkpt>
      <trkpt lat="43.68016" lon="6.69569">
        <ele>729.609253</ele>
        <time>2011-02-20T10:07:52Z</time>
      </trkpt>
      <trkpt lat="43.67982" lon="6.6961">
        <ele>730.794373</ele>
        <time>2011-02-20T10:08:14Z</time>
      </trkpt>
      <trkpt lat="43.67971" lon="6.69627">
        <ele>730.84668</ele>
        <time>2011-02-20T10:08:22Z</time>
      </trkpt>
      <trkpt lat="43.67967" lon="6.69642">
        <ele>730.416199</ele>
        <time>2011-02-20T10:08:28Z</time>
      </trkpt>
      <trkpt lat="43.67971" lon="6.6966">
        <ele>726.523804</ele>
        <time>2011-02-20T10:08:34Z</time>
      </trkpt>
      <trkpt lat="43.67977" lon="6.69664">
        <ele>725.846497</ele>
        <time>2011-02-20T10:08:37Z</time>
      </trkpt>
      <trkpt lat="43.67982" lon="6.69666">
        <ele>725.551086</ele>
        <time>2011-02-20T10:08:39Z</time>
      </trkpt>
      <trkpt lat="43.67988" lon="6.69666">
        <ele>725.935852</ele>
        <time>2011-02-20T10:08:42Z</time>
      </trkpt>
      <trkpt lat="43.67995" lon="6.69666">
        <ele>726.327393</ele>
        <time>2011-02-20T10:08:45Z</time>
      </trkpt>
      <trkpt lat="43.67999" lon="6.69666">
        <ele>726.592224</ele>
        <time>2011-02-20T10:08:47Z</time>
      </trkpt>
      <trkpt lat="43.68042" lon="6.69657">
        <ele>734.25238</ele>
        <time>2011-02-20T10:09:07Z</time>
      </trkpt>
      <trkpt lat="43.6805" lon="6.69657">
        <ele>735.4245</ele>
        <time>2011-02-20T10:09:11Z</time>
      </trkpt>
      <trkpt lat="43.68074" lon="6.6967">
        <ele>736.587524</ele>
        <time>2011-02-20T10:09:23Z</time>
      </trkpt>
      <trkpt lat="43.681" lon="6.6969">
        <ele>741.347595</ele>
        <time>2011-02-20T10:09:36Z</time>
      </trkpt>
      <trkpt lat="43.68115" lon="6.697">
        <ele>744.180725</ele>
        <time>2011-02-20T10:09:44Z</time>
      </trkpt>
      <trkpt lat="43.68119" lon="6.69705">
        <ele>745.292358</ele>
        <time>2011-02-20T10:09:46Z</time>
      </trkpt>
      <trkpt lat="43.6816" lon="6.69737">
        <ele>749.296021</ele>
        <time>2011-02-20T10:10:07Z</time>
      </trkpt>
      <trkpt lat="43.68196" lon="6.69763">
        <ele>752.997498</ele>
        <time>2011-02-20T10:10:26Z</time>
      </trkpt>
      <trkpt lat="43.68235" lon="6.69795">
        <ele>754.257019</ele>
        <time>2011-02-20T10:10:47Z</time>
      </trkpt>
      <trkpt lat="43.68254" lon="6.69829">
        <ele>753.629211</ele>
        <time>2011-02-20T10:11:02Z</time>
      </trkpt>
      <trkpt lat="43.68273" lon="6.69861">
        <ele>754.255188</ele>
        <time>2011-02-20T10:11:17Z</time>
      </trkpt>
      <trkpt lat="43.68306" lon="6.69913">
        <ele>756.504028</ele>
        <time>2011-02-20T10:11:41Z</time>
      </trkpt>
      <trkpt lat="43.68306" lon="6.69915">
        <ele>756.437622</ele>
        <time>2011-02-20T10:11:42Z</time>
      </trkpt>
      <trkpt lat="43.68312" lon="6.69928">
        <ele>757.636047</ele>
        <time>2011-02-20T10:11:47Z</time>
      </trkpt>
      <trkpt lat="43.68316" lon="6.69939">
        <ele>758.502869</ele>
        <time>2011-02-20T10:11:52Z</time>
      </trkpt>
      <trkpt lat="43.68321" lon="6.69958">
        <ele>759.42395</ele>
        <time>2011-02-20T10:11:59Z</time>
      </trkpt>
      <trkpt lat="43.68325" lon="6.70009">
        <ele>761.525452</ele>
        <time>2011-02-20T10:12:18Z</time>
      </trkpt>
      <trkpt lat="43.68329" lon="6.70059">
        <ele>764.10675</ele>
        <time>2011-02-20T10:12:35Z</time>
      </trkpt>
      <trkpt lat="43.68331" lon="6.70093">
        <ele>765.186768</ele>
        <time>2011-02-20T10:12:47Z</time>
      </trkpt>
      <trkpt lat="43.68336" lon="6.70108">
        <ele>766.255127</ele>
        <time>2011-02-20T10:12:53Z</time>
      </trkpt>
      <trkpt lat="43.68351" lon="6.70136">
        <ele>768.639832</ele>
        <time>2011-02-20T10:13:05Z</time>
      </trkpt>
      <trkpt lat="43.68366" lon="6.70153">
        <ele>771.203064</ele>
        <time>2011-02-20T10:13:14Z</time>
      </trkpt>
      <trkpt lat="43.68398" lon="6.70192">
        <ele>773.636475</ele>
        <time>2011-02-20T10:13:34Z</time>
      </trkpt>
      <trkpt lat="43.68419" lon="6.70218">
        <ele>777.54303</ele>
        <time>2011-02-20T10:13:47Z</time>
      </trkpt>
      <trkpt lat="43.68443" lon="6.70258">
        <ele>776.491577</ele>
        <time>2011-02-20T10:14:05Z</time>
      </trkpt>
      <trkpt lat="43.68452" lon="6.70271">
        <ele>775.113098</ele>
        <time>2011-02-20T10:14:11Z</time>
      </trkpt>
      <trkpt lat="43.68456" lon="6.70275">
        <ele>775.09845</ele>
        <time>2011-02-20T10:14:14Z</time>
      </trkpt>
      <trkpt lat="43.68458" lon="6.70278">
        <ele>775.057861</ele>
        <time>2011-02-20T10:14:15Z</time>
      </trkpt>
      <trkpt lat="43.68462" lon="6.70282">
        <ele>774.910095</ele>
        <time>2011-02-20T10:14:19Z</time>
      </trkpt>
      <trkpt lat="43.68462" lon="6.70282">
        <ele>774.910095</ele>
        <time>2011-02-20T10:14:34Z</time>
      </trkpt>
      <trkpt lat="43.6846" lon="6.70284">
        <ele>773.177002</ele>
        <time>2011-02-20T10:14:59Z</time>
      </trkpt>
      <trkpt lat="43.68462" lon="6.70284">
        <ele>773.989075</ele>
        <time>2011-02-20T10:15:06Z</time>
      </trkpt>
      <trkpt lat="43.68462" lon="6.70282">
        <ele>774.910095</ele>
        <time>2011-02-20T10:15:24Z</time>
      </trkpt>
      <trkpt lat="43.68469" lon="6.70284">
        <ele>776.436035</ele>
        <time>2011-02-20T10:15:27Z</time>
      </trkpt>
      <trkpt lat="43.68471" lon="6.70284">
        <ele>777.255188</ele>
        <time>2011-02-20T10:15:28Z</time>
      </trkpt>
      <trkpt lat="43.68477" lon="6.70288">
        <ele>777.717407</ele>
        <time>2011-02-20T10:15:31Z</time>
      </trkpt>
      <trkpt lat="43.68479" lon="6.70288">
        <ele>778.621887</ele>
        <time>2011-02-20T10:15:32Z</time>
      </trkpt>
      <trkpt lat="43.68484" lon="6.70293">
        <ele>778.62793</ele>
        <time>2011-02-20T10:15:35Z</time>
      </trkpt>
      <trkpt lat="43.68492" lon="6.70299">
        <ele>779.826904</ele>
        <time>2011-02-20T10:15:39Z</time>
      </trkpt>
      <trkpt lat="43.68495" lon="6.70299">
        <ele>780.848694</ele>
        <time>2011-02-20T10:15:40Z</time>
      </trkpt>
      <trkpt lat="43.6854" lon="6.70327">
        <ele>793.002991</ele>
        <time>2011-02-20T10:16:03Z</time>
      </trkpt>
      <trkpt lat="43.68555" lon="6.70338">
        <ele>798.464478</ele>
        <time>2011-02-20T10:16:11Z</time>
      </trkpt>
      <trkpt lat="43.68561" lon="6.70348">
        <ele>800.237854</ele>
        <time>2011-02-20T10:16:16Z</time>
      </trkpt>
      <trkpt lat="43.6855" lon="6.70389">
        <ele>785.867371</ele>
        <time>2011-02-20T10:16:19Z</time>
      </trkpt>
      <trkpt lat="43.68559" lon="6.70413">
        <ele>787.953003</ele>
        <time>2011-02-20T10:16:27Z</time>
      </trkpt>
      <trkpt lat="43.68561" lon="6.70419">
        <ele>788.483154</ele>
        <time>2011-02-20T10:16:29Z</time>
      </trkpt>
      <trkpt lat="43.6857" lon="6.70445">
        <ele>787.611816</ele>
        <time>2011-02-20T10:16:38Z</time>
      </trkpt>
      <trkpt lat="43.68574" lon="6.70458">
        <ele>787.134949</ele>
        <time>2011-02-20T10:16:42Z</time>
      </trkpt>
      <trkpt lat="43.6858" lon="6.70473">
        <ele>787.825623</ele>
        <time>2011-02-20T10:16:47Z</time>
      </trkpt>
      <trkpt lat="43.68608" lon="6.70539">
        <ele>790.281921</ele>
        <time>2011-02-20T10:17:10Z</time>
      </trkpt>
      <trkpt lat="43.68613" lon="6.70546">
        <ele>790.854858</ele>
        <time>2011-02-20T10:17:13Z</time>
      </trkpt>
      <trkpt lat="43.68617" lon="6.70554">
        <ele>791.256653</ele>
        <time>2011-02-20T10:17:16Z</time>
      </trkpt>
      <trkpt lat="43.68623" lon="6.70561">
        <ele>792.838196</ele>
        <time>2011-02-20T10:17:20Z</time>
      </trkpt>
      <trkpt lat="43.68632" lon="6.70569">
        <ele>794.59613</ele>
        <time>2011-02-20T10:17:24Z</time>
      </trkpt>
      <trkpt lat="43.68636" lon="6.70576">
        <ele>795.007019</ele>
        <time>2011-02-20T10:17:27Z</time>
      </trkpt>
      <trkpt lat="43.68638" lon="6.70578">
        <ele>795.558777</ele>
        <time>2011-02-20T10:17:28Z</time>
      </trkpt>
      <trkpt lat="43.6864" lon="6.70582">
        <ele>795.557312</ele>
        <time>2011-02-20T10:17:30Z</time>
      </trkpt>
      <trkpt lat="43.68643" lon="6.70589">
        <ele>795.042786</ele>
        <time>2011-02-20T10:17:32Z</time>
      </trkpt>
      <trkpt lat="43.68647" lon="6.70597">
        <ele>795.119995</ele>
        <time>2011-02-20T10:17:35Z</time>
      </trkpt>
      <trkpt lat="43.68651" lon="6.7061">
        <ele>793.842651</ele>
        <time>2011-02-20T10:17:40Z</time>
      </trkpt>
      <trkpt lat="43.68668" lon="6.70634">
        <ele>799.611633</ele>
        <time>2011-02-20T10:17:50Z</time>
      </trkpt>
      <trkpt lat="43.68673" lon="6.7064">
        <ele>801.636841</ele>
        <time>2011-02-20T10:17:53Z</time>
      </trkpt>
      <trkpt lat="43.68701" lon="6.70709">
        <ele>805.832092</ele>
        <time>2011-02-20T10:18:26Z</time>
      </trkpt>
      <trkpt lat="43.68692" lon="6.70705">
        <ele>805.056091</ele>
        <time>2011-02-20T10:18:49Z</time>
      </trkpt>
      <trkpt lat="43.6869" lon="6.70702">
        <ele>805.02832</ele>
        <time>2011-02-20T10:18:53Z</time>
      </trkpt>
      <trkpt lat="43.68685" lon="6.707">
        <ele>804.356323</ele>
        <time>2011-02-20T10:18:58Z</time>
      </trkpt>
      <trkpt lat="43.68685" lon="6.707">
        <ele>804.356323</ele>
        <time>2011-02-20T10:18:59Z</time>
      </trkpt>
      <trkpt lat="43.68662" lon="6.70705">
        <ele>793.855225</ele>
        <time>2011-02-20T10:19:29Z</time>
      </trkpt>
      <trkpt lat="43.6866" lon="6.70705">
        <ele>792.951721</ele>
        <time>2011-02-20T10:19:35Z</time>
      </trkpt>
      <trkpt lat="43.6866" lon="6.70707">
        <ele>792.559021</ele>
        <time>2011-02-20T10:19:37Z</time>
      </trkpt>
      <trkpt lat="43.68662" lon="6.70709">
        <ele>793.083496</ele>
        <time>2011-02-20T10:19:40Z</time>
      </trkpt>
      <trkpt lat="43.68668" lon="6.70705">
        <ele>796.559692</ele>
        <time>2011-02-20T10:19:48Z</time>
      </trkpt>
      <trkpt lat="43.68668" lon="6.70705">
        <ele>796.559692</ele>
        <time>2011-02-20T10:19:49Z</time>
      </trkpt>
      <trkpt lat="43.6867" lon="6.70702">
        <ele>797.81958</ele>
        <time>2011-02-20T10:19:52Z</time>
      </trkpt>
      <trkpt lat="43.68675" lon="6.707">
        <ele>799.950073</ele>
        <time>2011-02-20T10:23:23Z</time>
      </trkpt>
      <trkpt lat="43.68679" lon="6.70698">
        <ele>802.050781</ele>
        <time>2011-02-20T10:23:35Z</time>
      </trkpt>
      <trkpt lat="43.68683" lon="6.70698">
        <ele>803.799133</ele>
        <time>2011-02-20T10:23:41Z</time>
      </trkpt>
      <trkpt lat="43.68685" lon="6.707">
        <ele>804.356323</ele>
        <time>2011-02-20T10:23:58Z</time>
      </trkpt>
      <trkpt lat="43.68722" lon="6.70748">
        <ele>803.450195</ele>
        <time>2011-02-20T10:24:13Z</time>
      </trkpt>
      <trkpt lat="43.68819" lon="6.70874">
        <ele>803.438049</ele>
        <time>2011-02-20T10:24:48Z</time>
      </trkpt>
      <trkpt lat="43.68885" lon="6.70928">
        <ele>799.812012</ele>
        <time>2011-02-20T10:25:00Z</time>
      </trkpt>
      <trkpt lat="43.68887" lon="6.70932">
        <ele>799.163635</ele>
        <time>2011-02-20T10:25:01Z</time>
      </trkpt>
      <trkpt lat="43.68898" lon="6.70947">
        <ele>796.798096</ele>
        <time>2011-02-20T10:25:05Z</time>
      </trkpt>
      <trkpt lat="43.68904" lon="6.70954">
        <ele>796.153625</ele>
        <time>2011-02-20T10:25:08Z</time>
      </trkpt>
      <trkpt lat="43.68904" lon="6.70956">
        <ele>795.744629</ele>
        <time>2011-02-20T10:25:10Z</time>
      </trkpt>
      <trkpt lat="43.68906" lon="6.70958">
        <ele>795.730835</ele>
        <time>2011-02-20T10:25:38Z</time>
      </trkpt>
      <trkpt lat="43.68906" lon="6.70958">
        <ele>795.730835</ele>
        <time>2011-02-20T10:25:44Z</time>
      </trkpt>
      <trkpt lat="43.68915" lon="6.70966">
        <ele>795.549011</ele>
        <time>2011-02-20T10:25:47Z</time>
      </trkpt>
      <trkpt lat="43.68922" lon="6.70973">
        <ele>795.279541</ele>
        <time>2011-02-20T10:25:49Z</time>
      </trkpt>
      <trkpt lat="43.68982" lon="6.71041">
        <ele>791.051086</ele>
        <time>2011-02-20T10:26:03Z</time>
      </trkpt>
      <trkpt lat="43.69076" lon="6.71155">
        <ele>790.090454</ele>
        <time>2011-02-20T10:26:23Z</time>
      </trkpt>
      <trkpt lat="43.69181" lon="6.71278">
        <ele>797.298035</ele>
        <time>2011-02-20T10:26:50Z</time>
      </trkpt>
      <trkpt lat="43.69235" lon="6.71335">
        <ele>801.349243</ele>
        <time>2011-02-20T10:27:13Z</time>
      </trkpt>
      <trkpt lat="43.6925" lon="6.7135">
        <ele>802.473816</ele>
        <time>2011-02-20T10:27:20Z</time>
      </trkpt>
      <trkpt lat="43.69252" lon="6.71355">
        <ele>802.56897</ele>
        <time>2011-02-20T10:27:22Z</time>
      </trkpt>
      <trkpt lat="43.69261" lon="6.71372">
        <ele>802.744141</ele>
        <time>2011-02-20T10:27:28Z</time>
      </trkpt>
      <trkpt lat="43.69258" lon="6.71385">
        <ele>801.979675</ele>
        <time>2011-02-20T10:27:32Z</time>
      </trkpt>
      <trkpt lat="43.69248" lon="6.71426">
        <ele>801.398621</ele>
        <time>2011-02-20T10:27:46Z</time>
      </trkpt>
      <trkpt lat="43.69239" lon="6.71428">
        <ele>801.367554</ele>
        <time>2011-02-20T10:27:49Z</time>
      </trkpt>
      <trkpt lat="43.69237" lon="6.71428">
        <ele>801.425476</ele>
        <time>2011-02-20T10:27:50Z</time>
      </trkpt>
      <trkpt lat="43.69231" lon="6.71426">
        <ele>801.45874</ele>
        <time>2011-02-20T10:27:53Z</time>
      </trkpt>
      <trkpt lat="43.69215" lon="6.71411">
        <ele>801.257324</ele>
        <time>2011-02-20T10:28:00Z</time>
      </trkpt>
      <trkpt lat="43.69168" lon="6.71368">
        <ele>798.350159</ele>
        <time>2011-02-20T10:28:17Z</time>
      </trkpt>
      <trkpt lat="43.69037" lon="6.71308">
        <ele>798.996643</ele>
        <time>2011-02-20T10:28:57Z</time>
      </trkpt>
      <trkpt lat="43.69007" lon="6.71299">
        <ele>799.543945</ele>
        <time>2011-02-20T10:29:05Z</time>
      </trkpt>
      <trkpt lat="43.68992" lon="6.71303">
        <ele>801.176941</ele>
        <time>2011-02-20T10:29:09Z</time>
      </trkpt>
      <trkpt lat="43.68986" lon="6.71305">
        <ele>801.826904</ele>
        <time>2011-02-20T10:29:11Z</time>
      </trkpt>
      <trkpt lat="43.68982" lon="6.71318">
        <ele>803.598267</ele>
        <time>2011-02-20T10:29:14Z</time>
      </trkpt>
      <trkpt lat="43.68964" lon="6.7135">
        <ele>801.886292</ele>
        <time>2011-02-20T10:29:22Z</time>
      </trkpt>
      <trkpt lat="43.68956" lon="6.71372">
        <ele>798.124878</ele>
        <time>2011-02-20T10:29:28Z</time>
      </trkpt>
      <trkpt lat="43.68932" lon="6.71368">
        <ele>794.376282</ele>
        <time>2011-02-20T10:29:37Z</time>
      </trkpt>
      <trkpt lat="43.68932" lon="6.71368">
        <ele>794.376282</ele>
        <time>2011-02-20T10:29:38Z</time>
      </trkpt>
      <trkpt lat="43.6893" lon="6.71365">
        <ele>794.376587</ele>
        <time>2011-02-20T10:29:44Z</time>
      </trkpt>
      <trkpt lat="43.68928" lon="6.71363">
        <ele>794.198059</ele>
        <time>2011-02-20T10:31:59Z</time>
      </trkpt>
      <trkpt lat="43.6893" lon="6.71365">
        <ele>794.376587</ele>
        <time>2011-02-20T10:32:05Z</time>
      </trkpt>
      <trkpt lat="43.68934" lon="6.71365">
        <ele>795.148926</ele>
        <time>2011-02-20T10:32:10Z</time>
      </trkpt>
      <trkpt lat="43.68939" lon="6.71359">
        <ele>796.978333</ele>
        <time>2011-02-20T10:32:13Z</time>
      </trkpt>
      <trkpt lat="43.68949" lon="6.71359">
        <ele>798.687866</ele>
        <time>2011-02-20T10:32:17Z</time>
      </trkpt>
      <trkpt lat="43.68954" lon="6.71359">
        <ele>799.359314</ele>
        <time>2011-02-20T10:32:19Z</time>
      </trkpt>
      <trkpt lat="43.68964" lon="6.71348">
        <ele>802.108521</ele>
        <time>2011-02-20T10:32:24Z</time>
      </trkpt>
      <trkpt lat="43.68971" lon="6.71335">
        <ele>804.048889</ele>
        <time>2011-02-20T10:32:28Z</time>
      </trkpt>
      <trkpt lat="43.68982" lon="6.71312">
        <ele>802.824524</ele>
        <time>2011-02-20T10:32:34Z</time>
      </trkpt>
      <trkpt lat="43.68992" lon="6.71312">
        <ele>802.363647</ele>
        <time>2011-02-20T10:32:37Z</time>
      </trkpt>
      <trkpt lat="43.69007" lon="6.71308">
        <ele>800.955444</ele>
        <time>2011-02-20T10:32:41Z</time>
      </trkpt>
      <trkpt lat="43.69104" lon="6.71333">
        <ele>799.115967</ele>
        <time>2011-02-20T10:33:05Z</time>
      </trkpt>
      <trkpt lat="43.6917" lon="6.71376">
        <ele>799.24469</ele>
        <time>2011-02-20T10:33:17Z</time>
      </trkpt>
      <trkpt lat="43.69226" lon="6.71432">
        <ele>801.943665</ele>
        <time>2011-02-20T10:33:29Z</time>
      </trkpt>
      <trkpt lat="43.69222" lon="6.7146">
        <ele>803.486511</ele>
        <time>2011-02-20T10:33:33Z</time>
      </trkpt>
      <trkpt lat="43.6922" lon="6.71475">
        <ele>803.681946</ele>
        <time>2011-02-20T10:33:35Z</time>
      </trkpt>
      <trkpt lat="43.69228" lon="6.71496">
        <ele>802.125</ele>
        <time>2011-02-20T10:33:38Z</time>
      </trkpt>
      <trkpt lat="43.69233" lon="6.71505">
        <ele>802.185364</ele>
        <time>2011-02-20T10:33:39Z</time>
      </trkpt>
      <trkpt lat="43.69241" lon="6.71526">
        <ele>803.468262</ele>
        <time>2011-02-20T10:33:42Z</time>
      </trkpt>
      <trkpt lat="43.69231" lon="6.71578">
        <ele>804.025696</ele>
        <time>2011-02-20T10:33:49Z</time>
      </trkpt>
      <trkpt lat="43.69192" lon="6.71649">
        <ele>804.353394</ele>
        <time>2011-02-20T10:34:03Z</time>
      </trkpt>
      <trkpt lat="43.6919" lon="6.71651">
        <ele>804.253906</ele>
        <time>2011-02-20T10:34:04Z</time>
      </trkpt>
      <trkpt lat="43.69188" lon="6.71653">
        <ele>804.169373</ele>
        <time>2011-02-20T10:34:06Z</time>
      </trkpt>
      <trkpt lat="43.69185" lon="6.71662">
        <ele>804.979553</ele>
        <time>2011-02-20T10:34:09Z</time>
      </trkpt>
      <trkpt lat="43.69183" lon="6.71666">
        <ele>804.969604</ele>
        <time>2011-02-20T10:34:10Z</time>
      </trkpt>
      <trkpt lat="43.69181" lon="6.71672">
        <ele>805.280334</ele>
        <time>2011-02-20T10:34:12Z</time>
      </trkpt>
      <trkpt lat="43.69175" lon="6.71687">
        <ele>805.863586</ele>
        <time>2011-02-20T10:34:17Z</time>
      </trkpt>
      <trkpt lat="43.69168" lon="6.71698">
        <ele>806.11145</ele>
        <time>2011-02-20T10:34:32Z</time>
      </trkpt>
      <trkpt lat="43.6917" lon="6.71694">
        <ele>805.894287</ele>
        <time>2011-02-20T10:35:10Z</time>
      </trkpt>
      <trkpt lat="43.69168" lon="6.71707">
        <ele>807.427246</ele>
        <time>2011-02-20T10:35:13Z</time>
      </trkpt>
      <trkpt lat="43.69162" lon="6.7173">
        <ele>807.511841</ele>
        <time>2011-02-20T10:35:19Z</time>
      </trkpt>
      <trkpt lat="43.69162" lon="6.71752">
        <ele>807.142456</ele>
        <time>2011-02-20T10:35:23Z</time>
      </trkpt>
      <trkpt lat="43.69162" lon="6.71769">
        <ele>806.83728</ele>
        <time>2011-02-20T10:35:26Z</time>
      </trkpt>
      <trkpt lat="43.6916" lon="6.7178">
        <ele>806.169373</ele>
        <time>2011-02-20T10:35:28Z</time>
      </trkpt>
      <trkpt lat="43.69162" lon="6.71797">
        <ele>804.940002</ele>
        <time>2011-02-20T10:35:31Z</time>
      </trkpt>
      <trkpt lat="43.69166" lon="6.71825">
        <ele>802.899292</ele>
        <time>2011-02-20T10:35:35Z</time>
      </trkpt>
      <trkpt lat="43.69173" lon="6.71846">
        <ele>801.341309</ele>
        <time>2011-02-20T10:35:38Z</time>
      </trkpt>
      <trkpt lat="43.69196" lon="6.71887">
        <ele>798.494995</ele>
        <time>2011-02-20T10:35:44Z</time>
      </trkpt>
      <trkpt lat="43.69239" lon="6.71951">
        <ele>796.461914</ele>
        <time>2011-02-20T10:35:53Z</time>
      </trkpt>
      <trkpt lat="43.69254" lon="6.72005">
        <ele>793.717651</ele>
        <time>2011-02-20T10:35:58Z</time>
      </trkpt>
      <trkpt lat="43.69261" lon="6.72039">
        <ele>792.800781</ele>
        <time>2011-02-20T10:36:01Z</time>
      </trkpt>
      <trkpt lat="43.69256" lon="6.72063">
        <ele>793.217224</ele>
        <time>2011-02-20T10:36:03Z</time>
      </trkpt>
      <trkpt lat="43.6922" lon="6.72099">
        <ele>787.880005</ele>
        <time>2011-02-20T10:36:08Z</time>
      </trkpt>
      <trkpt lat="43.69188" lon="6.72144">
        <ele>786.059082</ele>
        <time>2011-02-20T10:36:13Z</time>
      </trkpt>
      <trkpt lat="43.69162" lon="6.72183">
        <ele>784.808594</ele>
        <time>2011-02-20T10:36:17Z</time>
      </trkpt>
      <trkpt lat="43.69119" lon="6.72258">
        <ele>781.014648</ele>
        <time>2011-02-20T10:36:24Z</time>
      </trkpt>
      <trkpt lat="43.69095" lon="6.72301">
        <ele>778.225464</ele>
        <time>2011-02-20T10:36:28Z</time>
      </trkpt>
      <trkpt lat="43.69093" lon="6.72307">
        <ele>778.132446</ele>
        <time>2011-02-20T10:36:29Z</time>
      </trkpt>
      <trkpt lat="43.69082" lon="6.72295">
        <ele>775.005005</ele>
        <time>2011-02-20T10:36:34Z</time>
      </trkpt>
      <trkpt lat="43.69085" lon="6.72288">
        <ele>775.061096</ele>
        <time>2011-02-20T10:36:35Z</time>
      </trkpt>
      <trkpt lat="43.69091" lon="6.72265">
        <ele>774.829529</ele>
        <time>2011-02-20T10:36:38Z</time>
      </trkpt>
      <trkpt lat="43.69119" lon="6.72162">
        <ele>769.611511</ele>
        <time>2011-02-20T10:36:49Z</time>
      </trkpt>
      <trkpt lat="43.69121" lon="6.72151">
        <ele>768.780762</ele>
        <time>2011-02-20T10:36:50Z</time>
      </trkpt>
      <trkpt lat="43.69128" lon="6.72132">
        <ele>767.260864</ele>
        <time>2011-02-20T10:36:52Z</time>
      </trkpt>
      <trkpt lat="43.69136" lon="6.72125">
        <ele>768.561401</ele>
        <time>2011-02-20T10:36:53Z</time>
      </trkpt>
      <trkpt lat="43.6914" lon="6.72099">
        <ele>765.212219</ele>
        <time>2011-02-20T10:36:58Z</time>
      </trkpt>
      <trkpt lat="43.69128" lon="6.72106">
        <ele>762.429077</ele>
        <time>2011-02-20T10:37:00Z</time>
      </trkpt>
      <trkpt lat="43.69123" lon="6.72112">
        <ele>762.400513</ele>
        <time>2011-02-20T10:37:01Z</time>
      </trkpt>
      <trkpt lat="43.69117" lon="6.72117">
        <ele>761.41333</ele>
        <time>2011-02-20T10:37:02Z</time>
      </trkpt>
      <trkpt lat="43.691" lon="6.72142">
        <ele>760.138977</ele>
        <time>2011-02-20T10:37:05Z</time>
      </trkpt>
      <trkpt lat="43.69076" lon="6.72181">
        <ele>758.764038</ele>
        <time>2011-02-20T10:37:09Z</time>
      </trkpt>
      <trkpt lat="43.69022" lon="6.72237">
        <ele>755.923767</ele>
        <time>2011-02-20T10:37:16Z</time>
      </trkpt>
      <trkpt lat="43.69014" lon="6.72245">
        <ele>755.844116</ele>
        <time>2011-02-20T10:37:17Z</time>
      </trkpt>
      <trkpt lat="43.68964" lon="6.7231">
        <ele>749.721802</ele>
        <time>2011-02-20T10:37:24Z</time>
      </trkpt>
      <trkpt lat="43.68943" lon="6.7234">
        <ele>746.216431</ele>
        <time>2011-02-20T10:37:27Z</time>
      </trkpt>
      <trkpt lat="43.68937" lon="6.7235">
        <ele>745.414856</ele>
        <time>2011-02-20T10:37:28Z</time>
      </trkpt>
      <trkpt lat="43.6893" lon="6.72398">
        <ele>744.767822</ele>
        <time>2011-02-20T10:37:32Z</time>
      </trkpt>
      <trkpt lat="43.68954" lon="6.7243">
        <ele>744.654663</ele>
        <time>2011-02-20T10:37:36Z</time>
      </trkpt>
      <trkpt lat="43.68962" lon="6.72434">
        <ele>744.924805</ele>
        <time>2011-02-20T10:37:37Z</time>
      </trkpt>
      <trkpt lat="43.68971" lon="6.72441">
        <ele>744.62262</ele>
        <time>2011-02-20T10:37:38Z</time>
      </trkpt>
      <trkpt lat="43.68997" lon="6.72466">
        <ele>747.293762</ele>
        <time>2011-02-20T10:37:41Z</time>
      </trkpt>
      <trkpt lat="43.69005" lon="6.72473">
        <ele>749.452881</ele>
        <time>2011-02-20T10:37:42Z</time>
      </trkpt>
      <trkpt lat="43.69005" lon="6.72498">
        <ele>745.059448</ele>
        <time>2011-02-20T10:37:45Z</time>
      </trkpt>
      <trkpt lat="43.68997" lon="6.72509">
        <ele>739.327271</ele>
        <time>2011-02-20T10:37:47Z</time>
      </trkpt>
      <trkpt lat="43.68945" lon="6.72559">
        <ele>736.522217</ele>
        <time>2011-02-20T10:37:59Z</time>
      </trkpt>
      <trkpt lat="43.68947" lon="6.72625">
        <ele>739.446655</ele>
        <time>2011-02-20T10:38:21Z</time>
      </trkpt>
      <trkpt lat="43.68947" lon="6.72621">
        <ele>739.534302</ele>
        <time>2011-02-20T10:38:27Z</time>
      </trkpt>
      <trkpt lat="43.68947" lon="6.72627">
        <ele>739.402039</ele>
        <time>2011-02-20T10:38:32Z</time>
      </trkpt>
      <trkpt lat="43.68954" lon="6.72647">
        <ele>742.49469</ele>
        <time>2011-02-20T10:38:36Z</time>
      </trkpt>
      <trkpt lat="43.6893" lon="6.72677">
        <ele>739.299988</ele>
        <time>2011-02-20T10:38:42Z</time>
      </trkpt>
      <trkpt lat="43.68902" lon="6.72672">
        <ele>735.260376</ele>
        <time>2011-02-20T10:38:46Z</time>
      </trkpt>
      <trkpt lat="43.68857" lon="6.72668">
        <ele>731.648315</ele>
        <time>2011-02-20T10:38:52Z</time>
      </trkpt>
      <trkpt lat="43.68816" lon="6.72674">
        <ele>731.989319</ele>
        <time>2011-02-20T10:38:58Z</time>
      </trkpt>
      <trkpt lat="43.68773" lon="6.72681">
        <ele>729.578247</ele>
        <time>2011-02-20T10:39:04Z</time>
      </trkpt>
      <trkpt lat="43.68711" lon="6.7273">
        <ele>726.97821</ele>
        <time>2011-02-20T10:39:12Z</time>
      </trkpt>
      <trkpt lat="43.68638" lon="6.72795">
        <ele>724.642944</ele>
        <time>2011-02-20T10:39:22Z</time>
      </trkpt>
      <trkpt lat="43.68621" lon="6.72805">
        <ele>722.694824</ele>
        <time>2011-02-20T10:39:24Z</time>
      </trkpt>
      <trkpt lat="43.6858" lon="6.7281">
        <ele>717.497437</ele>
        <time>2011-02-20T10:39:28Z</time>
      </trkpt>
      <trkpt lat="43.68533" lon="6.72835">
        <ele>713.717163</ele>
        <time>2011-02-20T10:39:33Z</time>
      </trkpt>
      <trkpt lat="43.68518" lon="6.72859">
        <ele>712.49939</ele>
        <time>2011-02-20T10:39:35Z</time>
      </trkpt>
      <trkpt lat="43.68479" lon="6.72919">
        <ele>707.542847</ele>
        <time>2011-02-20T10:39:40Z</time>
      </trkpt>
      <trkpt lat="43.68458" lon="6.72958">
        <ele>705.939514</ele>
        <time>2011-02-20T10:39:43Z</time>
      </trkpt>
      <trkpt lat="43.68439" lon="6.73001">
        <ele>704.072144</ele>
        <time>2011-02-20T10:39:46Z</time>
      </trkpt>
      <trkpt lat="43.68426" lon="6.73028">
        <ele>702.051697</ele>
        <time>2011-02-20T10:39:48Z</time>
      </trkpt>
      <trkpt lat="43.68409" lon="6.73071">
        <ele>699.041748</ele>
        <time>2011-02-20T10:39:51Z</time>
      </trkpt>
      <trkpt lat="43.68398" lon="6.73123">
        <ele>696.322876</ele>
        <time>2011-02-20T10:39:54Z</time>
      </trkpt>
      <trkpt lat="43.68396" lon="6.7314">
        <ele>695.625061</ele>
        <time>2011-02-20T10:39:55Z</time>
      </trkpt>
      <trkpt lat="43.68404" lon="6.73192">
        <ele>695.719299</ele>
        <time>2011-02-20T10:39:58Z</time>
      </trkpt>
      <trkpt lat="43.68407" lon="6.73226">
        <ele>693.828491</ele>
        <time>2011-02-20T10:40:00Z</time>
      </trkpt>
      <trkpt lat="43.68409" lon="6.73258">
        <ele>691.401611</ele>
        <time>2011-02-20T10:40:02Z</time>
      </trkpt>
      <trkpt lat="43.68407" lon="6.73277">
        <ele>689.050964</ele>
        <time>2011-02-20T10:40:04Z</time>
      </trkpt>
      <trkpt lat="43.68392" lon="6.73271">
        <ele>686.392212</ele>
        <time>2011-02-20T10:40:08Z</time>
      </trkpt>
      <trkpt lat="43.68387" lon="6.73262">
        <ele>686.098938</ele>
        <time>2011-02-20T10:40:09Z</time>
      </trkpt>
      <trkpt lat="43.68372" lon="6.73237">
        <ele>684.274109</ele>
        <time>2011-02-20T10:40:12Z</time>
      </trkpt>
      <trkpt lat="43.68349" lon="6.73187">
        <ele>680.809814</ele>
        <time>2011-02-20T10:40:17Z</time>
      </trkpt>
      <trkpt lat="43.68342" lon="6.73177">
        <ele>679.625122</ele>
        <time>2011-02-20T10:40:18Z</time>
      </trkpt>
      <trkpt lat="43.68323" lon="6.73136">
        <ele>676.265198</ele>
        <time>2011-02-20T10:40:22Z</time>
      </trkpt>
      <trkpt lat="43.68289" lon="6.73063">
        <ele>670.298828</ele>
        <time>2011-02-20T10:40:29Z</time>
      </trkpt>
      <trkpt lat="43.68278" lon="6.73043">
        <ele>668.208374</ele>
        <time>2011-02-20T10:40:31Z</time>
      </trkpt>
      <trkpt lat="43.68263" lon="6.73011">
        <ele>665.294312</ele>
        <time>2011-02-20T10:40:34Z</time>
      </trkpt>
      <trkpt lat="43.68228" lon="6.72932">
        <ele>661.438965</ele>
        <time>2011-02-20T10:40:40Z</time>
      </trkpt>
      <trkpt lat="43.68224" lon="6.72917">
        <ele>661.259277</ele>
        <time>2011-02-20T10:40:41Z</time>
      </trkpt>
      <trkpt lat="43.68218" lon="6.72887">
        <ele>661.191345</ele>
        <time>2011-02-20T10:40:43Z</time>
      </trkpt>
      <trkpt lat="43.68209" lon="6.7284">
        <ele>659.891235</ele>
        <time>2011-02-20T10:40:46Z</time>
      </trkpt>
      <trkpt lat="43.68207" lon="6.72807">
        <ele>659.21405</ele>
        <time>2011-02-20T10:40:48Z</time>
      </trkpt>
      <trkpt lat="43.68207" lon="6.7276">
        <ele>658.197571</ele>
        <time>2011-02-20T10:40:51Z</time>
      </trkpt>
      <trkpt lat="43.68207" lon="6.7275">
        <ele>657.787292</ele>
        <time>2011-02-20T10:40:52Z</time>
      </trkpt>
      <trkpt lat="43.68188" lon="6.72732">
        <ele>654.796753</ele>
        <time>2011-02-20T10:40:55Z</time>
      </trkpt>
      <trkpt lat="43.68166" lon="6.72747">
        <ele>653.025452</ele>
        <time>2011-02-20T10:40:58Z</time>
      </trkpt>
      <trkpt lat="43.68134" lon="6.72771">
        <ele>649.912964</ele>
        <time>2011-02-20T10:41:02Z</time>
      </trkpt>
      <trkpt lat="43.68117" lon="6.72782">
        <ele>648.136108</ele>
        <time>2011-02-20T10:41:04Z</time>
      </trkpt>
      <trkpt lat="43.6808" lon="6.72803">
        <ele>644.852539</ele>
        <time>2011-02-20T10:41:08Z</time>
      </trkpt>
      <trkpt lat="43.68042" lon="6.72831">
        <ele>641.725464</ele>
        <time>2011-02-20T10:41:12Z</time>
      </trkpt>
      <trkpt lat="43.68012" lon="6.72853">
        <ele>639.516602</ele>
        <time>2011-02-20T10:41:15Z</time>
      </trkpt>
      <trkpt lat="43.67937" lon="6.72898">
        <ele>632.501953</ele>
        <time>2011-02-20T10:41:23Z</time>
      </trkpt>
      <trkpt lat="43.67926" lon="6.729">
        <ele>631.639893</ele>
        <time>2011-02-20T10:41:24Z</time>
      </trkpt>
      <trkpt lat="43.67907" lon="6.72908">
        <ele>630.184387</ele>
        <time>2011-02-20T10:41:26Z</time>
      </trkpt>
      <trkpt lat="43.67881" lon="6.7293">
        <ele>627.988037</ele>
        <time>2011-02-20T10:41:29Z</time>
      </trkpt>
      <trkpt lat="43.67862" lon="6.72968">
        <ele>625.747009</ele>
        <time>2011-02-20T10:41:32Z</time>
      </trkpt>
      <trkpt lat="43.67855" lon="6.72979">
        <ele>625.169495</ele>
        <time>2011-02-20T10:41:33Z</time>
      </trkpt>
      <trkpt lat="43.67821" lon="6.73022">
        <ele>621.9599</ele>
        <time>2011-02-20T10:41:37Z</time>
      </trkpt>
      <trkpt lat="43.67799" lon="6.73043">
        <ele>619.214783</ele>
        <time>2011-02-20T10:41:39Z</time>
      </trkpt>
      <trkpt lat="43.67765" lon="6.73069">
        <ele>614.995056</ele>
        <time>2011-02-20T10:41:42Z</time>
      </trkpt>
      <trkpt lat="43.67731" lon="6.73093">
        <ele>611.673645</ele>
        <time>2011-02-20T10:41:45Z</time>
      </trkpt>
      <trkpt lat="43.67698" lon="6.73119">
        <ele>607.926025</ele>
        <time>2011-02-20T10:41:48Z</time>
      </trkpt>
      <trkpt lat="43.67653" lon="6.73155">
        <ele>602.170105</ele>
        <time>2011-02-20T10:41:52Z</time>
      </trkpt>
      <trkpt lat="43.6763" lon="6.73174">
        <ele>599.313843</ele>
        <time>2011-02-20T10:41:54Z</time>
      </trkpt>
      <trkpt lat="43.67606" lon="6.73194">
        <ele>596.438354</ele>
        <time>2011-02-20T10:41:56Z</time>
      </trkpt>
      <trkpt lat="43.67583" lon="6.73213">
        <ele>593.392883</ele>
        <time>2011-02-20T10:41:58Z</time>
      </trkpt>
      <trkpt lat="43.67546" lon="6.73249">
        <ele>588.364319</ele>
        <time>2011-02-20T10:42:01Z</time>
      </trkpt>
      <trkpt lat="43.67507" lon="6.73282">
        <ele>584.742126</ele>
        <time>2011-02-20T10:42:04Z</time>
      </trkpt>
      <trkpt lat="43.67484" lon="6.73303">
        <ele>582.39032</ele>
        <time>2011-02-20T10:42:06Z</time>
      </trkpt>
      <trkpt lat="43.6745" lon="6.73335">
        <ele>578.754333</ele>
        <time>2011-02-20T10:42:09Z</time>
      </trkpt>
      <trkpt lat="43.67419" lon="6.73363">
        <ele>574.601135</ele>
        <time>2011-02-20T10:42:12Z</time>
      </trkpt>
      <trkpt lat="43.67398" lon="6.7338">
        <ele>571.84436</ele>
        <time>2011-02-20T10:42:15Z</time>
      </trkpt>
      <trkpt lat="43.67392" lon="6.73374">
        <ele>571.312561</ele>
        <time>2011-02-20T10:42:16Z</time>
      </trkpt>
      <trkpt lat="43.67381" lon="6.73357">
        <ele>570.57019</ele>
        <time>2011-02-20T10:42:18Z</time>
      </trkpt>
      <trkpt lat="43.67377" lon="6.73348">
        <ele>570.320862</ele>
        <time>2011-02-20T10:42:19Z</time>
      </trkpt>
      <trkpt lat="43.67353" lon="6.73288">
        <ele>567.66803</ele>
        <time>2011-02-20T10:42:25Z</time>
      </trkpt>
      <trkpt lat="43.67353" lon="6.73275">
        <ele>567.321167</ele>
        <time>2011-02-20T10:42:26Z</time>
      </trkpt>
      <trkpt lat="43.67357" lon="6.73252">
        <ele>567.332764</ele>
        <time>2011-02-20T10:42:28Z</time>
      </trkpt>
      <trkpt lat="43.67394" lon="6.73112">
        <ele>564.405579</ele>
        <time>2011-02-20T10:42:42Z</time>
      </trkpt>
      <trkpt lat="43.67417" lon="6.73026">
        <ele>563.162842</ele>
        <time>2011-02-20T10:42:50Z</time>
      </trkpt>
      <trkpt lat="43.67441" lon="6.72938">
        <ele>560.593384</ele>
        <time>2011-02-20T10:42:58Z</time>
      </trkpt>
      <trkpt lat="43.67492" lon="6.72831">
        <ele>560.456787</ele>
        <time>2011-02-20T10:43:11Z</time>
      </trkpt>
      <trkpt lat="43.67495" lon="6.72822">
        <ele>560.281799</ele>
        <time>2011-02-20T10:43:12Z</time>
      </trkpt>
      <trkpt lat="43.6752" lon="6.72734">
        <ele>558.567627</ele>
        <time>2011-02-20T10:43:21Z</time>
      </trkpt>
      <trkpt lat="43.6754" lon="6.72664">
        <ele>558.503845</ele>
        <time>2011-02-20T10:43:28Z</time>
      </trkpt>
      <trkpt lat="43.67525" lon="6.72541">
        <ele>556.981018</ele>
        <time>2011-02-20T10:43:40Z</time>
      </trkpt>
      <trkpt lat="43.67514" lon="6.72479">
        <ele>557.297607</ele>
        <time>2011-02-20T10:43:47Z</time>
      </trkpt>
      <trkpt lat="43.67501" lon="6.7243">
        <ele>554.143494</ele>
        <time>2011-02-20T10:43:53Z</time>
      </trkpt>
      <trkpt lat="43.67495" lon="6.72378">
        <ele>550.03363</ele>
        <time>2011-02-20T10:43:59Z</time>
      </trkpt>
      <trkpt lat="43.67531" lon="6.72282">
        <ele>551.664551</ele>
        <time>2011-02-20T10:44:11Z</time>
      </trkpt>
      <trkpt lat="43.6754" lon="6.72243">
        <ele>553.658508</ele>
        <time>2011-02-20T10:44:16Z</time>
      </trkpt>
      <trkpt lat="43.67525" lon="6.72185">
        <ele>546.349731</ele>
        <time>2011-02-20T10:44:22Z</time>
      </trkpt>
      <trkpt lat="43.67537" lon="6.72153">
        <ele>547.485779</ele>
        <time>2011-02-20T10:44:25Z</time>
      </trkpt>
      <trkpt lat="43.67542" lon="6.72138">
        <ele>546.583313</ele>
        <time>2011-02-20T10:44:27Z</time>
      </trkpt>
      <trkpt lat="43.67553" lon="6.72114">
        <ele>546.342468</ele>
        <time>2011-02-20T10:44:33Z</time>
      </trkpt>
      <trkpt lat="43.6755" lon="6.72114">
        <ele>545.638489</ele>
        <time>2011-02-20T10:44:57Z</time>
      </trkpt>
      <trkpt lat="43.6755" lon="6.72114">
        <ele>545.638489</ele>
        <time>2011-02-20T10:45:11Z</time>
      </trkpt>
      <trkpt lat="43.67548" lon="6.72101">
        <ele>542.499878</ele>
        <time>2011-02-20T10:45:16Z</time>
      </trkpt>
      <trkpt lat="43.67555" lon="6.72084">
        <ele>541.759705</ele>
        <time>2011-02-20T10:45:19Z</time>
      </trkpt>
      <trkpt lat="43.67561" lon="6.72063">
        <ele>539.432129</ele>
        <time>2011-02-20T10:45:22Z</time>
      </trkpt>
      <trkpt lat="43.67572" lon="6.72035">
        <ele>537.616516</ele>
        <time>2011-02-20T10:45:27Z</time>
      </trkpt>
      <trkpt lat="43.67574" lon="6.72026">
        <ele>536.555054</ele>
        <time>2011-02-20T10:45:30Z</time>
      </trkpt>
      <trkpt lat="43.67578" lon="6.72014">
        <ele>534.619202</ele>
        <time>2011-02-20T10:45:44Z</time>
      </trkpt>
      <trkpt lat="43.67578" lon="6.72014">
        <ele>534.619202</ele>
        <time>2011-02-20T10:45:53Z</time>
      </trkpt>
      <trkpt lat="43.67578" lon="6.72007">
        <ele>532.792603</ele>
        <time>2011-02-20T10:45:58Z</time>
      </trkpt>
      <trkpt lat="43.67583" lon="6.72001">
        <ele>532.647644</ele>
        <time>2011-02-20T10:46:01Z</time>
      </trkpt>
      <trkpt lat="43.67585" lon="6.72001">
        <ele>533.487488</ele>
        <time>2011-02-20T10:46:21Z</time>
      </trkpt>
      <trkpt lat="43.67585" lon="6.72001">
        <ele>533.487488</ele>
        <time>2011-02-20T10:46:34Z</time>
      </trkpt>
      <trkpt lat="43.67595" lon="6.71992">
        <ele>535.198364</ele>
        <time>2011-02-20T10:46:37Z</time>
      </trkpt>
      <trkpt lat="43.67634" lon="6.71971">
        <ele>536.825012</ele>
        <time>2011-02-20T10:46:46Z</time>
      </trkpt>
      <trkpt lat="43.67666" lon="6.71951">
        <ele>535.378967</ele>
        <time>2011-02-20T10:46:52Z</time>
      </trkpt>
      <trkpt lat="43.67688" lon="6.71936">
        <ele>535.240845</ele>
        <time>2011-02-20T10:46:56Z</time>
      </trkpt>
      <trkpt lat="43.67724" lon="6.71906">
        <ele>533.104858</ele>
        <time>2011-02-20T10:47:01Z</time>
      </trkpt>
      <trkpt lat="43.67754" lon="6.71863">
        <ele>525.488403</ele>
        <time>2011-02-20T10:47:05Z</time>
      </trkpt>
      <trkpt lat="43.67782" lon="6.7182">
        <ele>520.118591</ele>
        <time>2011-02-20T10:47:09Z</time>
      </trkpt>
      <trkpt lat="43.67786" lon="6.71812">
        <ele>518.997498</ele>
        <time>2011-02-20T10:47:10Z</time>
      </trkpt>
      <trkpt lat="43.67793" lon="6.71805">
        <ele>516.542358</ele>
        <time>2011-02-20T10:47:11Z</time>
      </trkpt>
      <trkpt lat="43.67804" lon="6.71814">
        <ele>518.963257</ele>
        <time>2011-02-20T10:47:13Z</time>
      </trkpt>
      <trkpt lat="43.67816" lon="6.71805">
        <ele>514.816345</ele>
        <time>2011-02-20T10:47:18Z</time>
      </trkpt>
      <trkpt lat="43.67812" lon="6.71788">
        <ele>510.028015</ele>
        <time>2011-02-20T10:47:20Z</time>
      </trkpt>
      <trkpt lat="43.6781" lon="6.7178">
        <ele>508.216278</ele>
        <time>2011-02-20T10:47:21Z</time>
      </trkpt>
      <trkpt lat="43.67786" lon="6.71786">
        <ele>511.015991</ele>
        <time>2011-02-20T10:47:25Z</time>
      </trkpt>
      <trkpt lat="43.67782" lon="6.71793">
        <ele>510.691254</ele>
        <time>2011-02-20T10:47:26Z</time>
      </trkpt>
      <trkpt lat="43.67776" lon="6.71799">
        <ele>509.682953</ele>
        <time>2011-02-20T10:47:27Z</time>
      </trkpt>
      <trkpt lat="43.67765" lon="6.71816">
        <ele>511.332947</ele>
        <time>2011-02-20T10:47:29Z</time>
      </trkpt>
      <trkpt lat="43.67759" lon="6.71823">
        <ele>511.129913</ele>
        <time>2011-02-20T10:47:30Z</time>
      </trkpt>
      <trkpt lat="43.67752" lon="6.71829">
        <ele>511.080231</ele>
        <time>2011-02-20T10:47:31Z</time>
      </trkpt>
      <trkpt lat="43.6772" lon="6.71855">
        <ele>510.165222</ele>
        <time>2011-02-20T10:47:35Z</time>
      </trkpt>
      <trkpt lat="43.67675" lon="6.71883">
        <ele>507.269806</ele>
        <time>2011-02-20T10:47:40Z</time>
      </trkpt>
      <trkpt lat="43.67634" lon="6.71904">
        <ele>505.398895</ele>
        <time>2011-02-20T10:47:44Z</time>
      </trkpt>
      <trkpt lat="43.67623" lon="6.71911">
        <ele>506.493073</ele>
        <time>2011-02-20T10:47:45Z</time>
      </trkpt>
      <trkpt lat="43.67583" lon="6.71928">
        <ele>506.811066</ele>
        <time>2011-02-20T10:47:49Z</time>
      </trkpt>
      <trkpt lat="43.6755" lon="6.71941">
        <ele>500.416534</ele>
        <time>2011-02-20T10:47:52Z</time>
      </trkpt>
      <trkpt lat="43.67548" lon="6.71936">
        <ele>497.585266</ele>
        <time>2011-02-20T10:47:53Z</time>
      </trkpt>
      <trkpt lat="43.67555" lon="6.71926">
        <ele>498.635559</ele>
        <time>2011-02-20T10:47:57Z</time>
      </trkpt>
      <trkpt lat="43.67561" lon="6.71923">
        <ele>500.326202</ele>
        <time>2011-02-20T10:47:58Z</time>
      </trkpt>
      <trkpt lat="43.67587" lon="6.71917">
        <ele>503.251831</ele>
        <time>2011-02-20T10:48:02Z</time>
      </trkpt>
      <trkpt lat="43.67615" lon="6.71893">
        <ele>497.852325</ele>
        <time>2011-02-20T10:48:06Z</time>
      </trkpt>
      <trkpt lat="43.67634" lon="6.71876">
        <ele>493.47702</ele>
        <time>2011-02-20T10:48:09Z</time>
      </trkpt>
      <trkpt lat="43.67688" lon="6.71831">
        <ele>491.515625</ele>
        <time>2011-02-20T10:48:16Z</time>
      </trkpt>
      <trkpt lat="43.67679" lon="6.71803">
        <ele>484.43808</ele>
        <time>2011-02-20T10:48:21Z</time>
      </trkpt>
      <trkpt lat="43.6766" lon="6.71803">
        <ele>485.567719</ele>
        <time>2011-02-20T10:48:26Z</time>
      </trkpt>
      <trkpt lat="43.67628" lon="6.71816">
        <ele>486.338715</ele>
        <time>2011-02-20T10:48:36Z</time>
      </trkpt>
      <trkpt lat="43.67606" lon="6.71818">
        <ele>486.264069</ele>
        <time>2011-02-20T10:48:46Z</time>
      </trkpt>
      <trkpt lat="43.676" lon="6.7182">
        <ele>484.888885</ele>
        <time>2011-02-20T10:48:49Z</time>
      </trkpt>
      <trkpt lat="43.67587" lon="6.7182">
        <ele>483.614929</ele>
        <time>2011-02-20T10:48:54Z</time>
      </trkpt>
      <trkpt lat="43.6758" lon="6.71816">
        <ele>484.669464</ele>
        <time>2011-02-20T10:48:58Z</time>
      </trkpt>
      <trkpt lat="43.67555" lon="6.71801">
        <ele>489.966705</ele>
        <time>2011-02-20T10:49:10Z</time>
      </trkpt>
      <trkpt lat="43.67537" lon="6.71788">
        <ele>496.150421</ele>
        <time>2011-02-20T10:49:19Z</time>
      </trkpt>
      <trkpt lat="43.67533" lon="6.71788">
        <ele>496.382599</ele>
        <time>2011-02-20T10:49:22Z</time>
      </trkpt>
      <trkpt lat="43.67525" lon="6.71795">
        <ele>494.828156</ele>
        <time>2011-02-20T10:49:47Z</time>
      </trkpt>
      <trkpt lat="43.67522" lon="6.71795">
        <ele>495.00119</ele>
        <time>2011-02-20T10:49:53Z</time>
      </trkpt>
      <trkpt lat="43.67527" lon="6.7179">
        <ele>496.052338</ele>
        <time>2011-02-20T10:50:00Z</time>
      </trkpt>
      <trkpt lat="43.67533" lon="6.71773">
        <ele>501.359131</ele>
        <time>2011-02-20T10:51:11Z</time>
      </trkpt>
      <trkpt lat="43.67533" lon="6.71773">
        <ele>501.359131</ele>
        <time>2011-02-20T10:51:30Z</time>
      </trkpt>
      <trkpt lat="43.67458" lon="6.7188">
        <ele>508.062317</ele>
        <time>2011-02-20T10:51:35Z</time>
      </trkpt>
      <trkpt lat="43.67454" lon="6.71921">
        <ele>498.882294</ele>
        <time>2011-02-20T10:51:38Z</time>
      </trkpt>
      <trkpt lat="43.67454" lon="6.71921">
        <ele>498.882294</ele>
        <time>2011-02-20T10:51:40Z</time>
      </trkpt>
      <trkpt lat="43.67447" lon="6.71945">
        <ele>495.660583</ele>
        <time>2011-02-20T10:51:47Z</time>
      </trkpt>
      <trkpt lat="43.67441" lon="6.71956">
        <ele>497.285278</ele>
        <time>2011-02-20T10:51:51Z</time>
      </trkpt>
      <trkpt lat="43.67439" lon="6.71964">
        <ele>494.811584</ele>
        <time>2011-02-20T10:51:54Z</time>
      </trkpt>
      <trkpt lat="43.67385" lon="6.72033">
        <ele>492.183472</ele>
        <time>2011-02-20T10:52:26Z</time>
      </trkpt>
      <trkpt lat="43.6737" lon="6.72052">
        <ele>489.71405</ele>
        <time>2011-02-20T10:52:35Z</time>
      </trkpt>
      <trkpt lat="43.67387" lon="6.72026">
        <ele>494.335022</ele>
        <time>2011-02-20T10:52:42Z</time>
      </trkpt>
      <trkpt lat="43.67392" lon="6.71992">
        <ele>508.447021</ele>
        <time>2011-02-20T10:52:43Z</time>
      </trkpt>
      <trkpt lat="43.67387" lon="6.71999">
        <ele>508.191559</ele>
        <time>2011-02-20T10:52:45Z</time>
      </trkpt>
      <trkpt lat="43.67379" lon="6.72007">
        <ele>510.266754</ele>
        <time>2011-02-20T10:52:48Z</time>
      </trkpt>
      <trkpt lat="43.67364" lon="6.72029">
        <ele>506.235199</ele>
        <time>2011-02-20T10:53:00Z</time>
      </trkpt>
      <trkpt lat="43.67359" lon="6.72031">
        <ele>506.845795</ele>
        <time>2011-02-20T10:53:02Z</time>
      </trkpt>
      <trkpt lat="43.67353" lon="6.72033">
        <ele>508.50293</ele>
        <time>2011-02-20T10:53:05Z</time>
      </trkpt>
      <trkpt lat="43.67334" lon="6.72029">
        <ele>518.762634</ele>
        <time>2011-02-20T10:53:15Z</time>
      </trkpt>
      <trkpt lat="43.67329" lon="6.72031">
        <ele>519.825134</ele>
        <time>2011-02-20T10:53:17Z</time>
      </trkpt>
      <trkpt lat="43.67316" lon="6.72052">
        <ele>516.706116</ele>
        <time>2011-02-20T10:53:23Z</time>
      </trkpt>
      <trkpt lat="43.67312" lon="6.72059">
        <ele>515.847229</ele>
        <time>2011-02-20T10:53:26Z</time>
      </trkpt>
      <trkpt lat="43.67282" lon="6.72086">
        <ele>509.429871</ele>
        <time>2011-02-20T10:53:40Z</time>
      </trkpt>
      <trkpt lat="43.67276" lon="6.72084">
        <ele>510.086823</ele>
        <time>2011-02-20T10:53:43Z</time>
      </trkpt>
      <trkpt lat="43.67269" lon="6.7208">
        <ele>511.624359</ele>
        <time>2011-02-20T10:53:46Z</time>
      </trkpt>
      <trkpt lat="43.67231" lon="6.72063">
        <ele>517.552917</ele>
        <time>2011-02-20T10:54:04Z</time>
      </trkpt>
      <trkpt lat="43.67209" lon="6.72052">
        <ele>518.630066</ele>
        <time>2011-02-20T10:54:14Z</time>
      </trkpt>
      <trkpt lat="43.67175" lon="6.72037">
        <ele>525.90448</ele>
        <time>2011-02-20T10:54:29Z</time>
      </trkpt>
      <trkpt lat="43.6713" lon="6.72024">
        <ele>537.527832</ele>
        <time>2011-02-20T10:54:50Z</time>
      </trkpt>
      <trkpt lat="43.67123" lon="6.72024">
        <ele>538.256958</ele>
        <time>2011-02-20T10:54:53Z</time>
      </trkpt>
      <trkpt lat="43.67072" lon="6.72022">
        <ele>538.21283</ele>
        <time>2011-02-20T10:55:18Z</time>
      </trkpt>
      <trkpt lat="43.671" lon="6.72091">
        <ele>508.933441</ele>
        <time>2011-02-20T10:55:23Z</time>
      </trkpt>
      <trkpt lat="43.671" lon="6.72091">
        <ele>508.933441</ele>
        <time>2011-02-20T10:55:24Z</time>
      </trkpt>
      <trkpt lat="43.671" lon="6.72091">
        <ele>508.933441</ele>
        <time>2011-02-20T10:55:27Z</time>
      </trkpt>
      <trkpt lat="43.671" lon="6.72084">
        <ele>513.583984</ele>
        <time>2011-02-20T10:55:31Z</time>
      </trkpt>
      <trkpt lat="43.67106" lon="6.72078">
        <ele>516.436829</ele>
        <time>2011-02-20T10:56:05Z</time>
      </trkpt>
      <trkpt lat="43.67098" lon="6.72091">
        <ele>508.700439</ele>
        <time>2011-02-20T10:58:03Z</time>
      </trkpt>
      <trkpt lat="43.67089" lon="6.72086">
        <ele>510.786194</ele>
        <time>2011-02-20T10:58:36Z</time>
      </trkpt>
      <trkpt lat="43.67091" lon="6.7208">
        <ele>515.560181</ele>
        <time>2011-02-20T10:59:42Z</time>
      </trkpt>
      <trkpt lat="43.67085" lon="6.72074">
        <ele>519.167358</ele>
        <time>2011-02-20T10:59:45Z</time>
      </trkpt>
      <trkpt lat="43.67063" lon="6.72048">
        <ele>531.524353</ele>
        <time>2011-02-20T10:59:54Z</time>
      </trkpt>
      <trkpt lat="43.67055" lon="6.72039">
        <ele>531.731384</ele>
        <time>2011-02-20T10:59:58Z</time>
      </trkpt>
      <trkpt lat="43.67044" lon="6.72029">
        <ele>530.482361</ele>
        <time>2011-02-20T11:00:02Z</time>
      </trkpt>
      <trkpt lat="43.67033" lon="6.72016">
        <ele>530.610718</ele>
        <time>2011-02-20T11:00:07Z</time>
      </trkpt>
      <trkpt lat="43.67023" lon="6.71999">
        <ele>533.108215</ele>
        <time>2011-02-20T11:00:12Z</time>
      </trkpt>
      <trkpt lat="43.67016" lon="6.71983">
        <ele>536.600098</ele>
        <time>2011-02-20T11:00:17Z</time>
      </trkpt>
      <trkpt lat="43.66999" lon="6.71936">
        <ele>537.695007</ele>
        <time>2011-02-20T11:00:30Z</time>
      </trkpt>
      <trkpt lat="43.66988" lon="6.71915">
        <ele>537.359131</ele>
        <time>2011-02-20T11:00:37Z</time>
      </trkpt>
      <trkpt lat="43.66984" lon="6.71902">
        <ele>537.981873</ele>
        <time>2011-02-20T11:00:41Z</time>
      </trkpt>
      <trkpt lat="43.66971" lon="6.71868">
        <ele>540.509644</ele>
        <time>2011-02-20T11:00:52Z</time>
      </trkpt>
      <trkpt lat="43.66967" lon="6.71857">
        <ele>541.496948</ele>
        <time>2011-02-20T11:00:55Z</time>
      </trkpt>
      <trkpt lat="43.66956" lon="6.71838">
        <ele>541.539978</ele>
        <time>2011-02-20T11:01:01Z</time>
      </trkpt>
      <trkpt lat="43.66952" lon="6.71831">
        <ele>541.484741</ele>
        <time>2011-02-20T11:01:03Z</time>
      </trkpt>
      <trkpt lat="43.66945" lon="6.71818">
        <ele>541.887939</ele>
        <time>2011-02-20T11:01:07Z</time>
      </trkpt>
      <trkpt lat="43.66939" lon="6.7181">
        <ele>541.843323</ele>
        <time>2011-02-20T11:01:10Z</time>
      </trkpt>
      <trkpt lat="43.66866" lon="6.717">
        <ele>548.697693</ele>
        <time>2011-02-20T11:01:46Z</time>
      </trkpt>
      <trkpt lat="43.66864" lon="6.71696">
        <ele>549.004639</ele>
        <time>2011-02-20T11:01:47Z</time>
      </trkpt>
      <trkpt lat="43.66814" lon="6.71709">
        <ele>544.158447</ele>
        <time>2011-02-20T11:01:55Z</time>
      </trkpt>
      <trkpt lat="43.6681" lon="6.71709">
        <ele>543.840515</ele>
        <time>2011-02-20T11:01:56Z</time>
      </trkpt>
      <trkpt lat="43.66759" lon="6.71681">
        <ele>544.394653</ele>
        <time>2011-02-20T11:02:13Z</time>
      </trkpt>
      <trkpt lat="43.66746" lon="6.71674">
        <ele>544.767944</ele>
        <time>2011-02-20T11:02:17Z</time>
      </trkpt>
      <trkpt lat="43.66679" lon="6.71649">
        <ele>545.749817</ele>
        <time>2011-02-20T11:02:36Z</time>
      </trkpt>
      <trkpt lat="43.66613" lon="6.71619">
        <ele>548.496033</ele>
        <time>2011-02-20T11:02:56Z</time>
      </trkpt>
      <trkpt lat="43.6652" lon="6.71576">
        <ele>553.425537</ele>
        <time>2011-02-20T11:03:23Z</time>
      </trkpt>
      <trkpt lat="43.66501" lon="6.71578">
        <ele>554.203796</ele>
        <time>2011-02-20T11:03:28Z</time>
      </trkpt>
      <trkpt lat="43.66469" lon="6.71619">
        <ele>558.72345</ele>
        <time>2011-02-20T11:03:40Z</time>
      </trkpt>
      <trkpt lat="43.66456" lon="6.71638">
        <ele>560.223022</ele>
        <time>2011-02-20T11:03:46Z</time>
      </trkpt>
      <trkpt lat="43.6646" lon="6.71664">
        <ele>561.220215</ele>
        <time>2011-02-20T11:03:52Z</time>
      </trkpt>
      <trkpt lat="43.6648" lon="6.71735">
        <ele>562.335754</ele>
        <time>2011-02-20T11:04:10Z</time>
      </trkpt>
      <trkpt lat="43.6648" lon="6.71762">
        <ele>561.848938</ele>
        <time>2011-02-20T11:04:16Z</time>
      </trkpt>
      <trkpt lat="43.6646" lon="6.7185">
        <ele>558.741516</ele>
        <time>2011-02-20T11:04:27Z</time>
      </trkpt>
      <trkpt lat="43.66422" lon="6.72003">
        <ele>551.933411</ele>
        <time>2011-02-20T11:04:46Z</time>
      </trkpt>
      <trkpt lat="43.66417" lon="6.72011">
        <ele>551.538208</ele>
        <time>2011-02-20T11:04:47Z</time>
      </trkpt>
      <trkpt lat="43.66415" lon="6.7202">
        <ele>551.160583</ele>
        <time>2011-02-20T11:04:48Z</time>
      </trkpt>
      <trkpt lat="43.66317" lon="6.72129">
        <ele>552.462402</ele>
        <time>2011-02-20T11:05:04Z</time>
      </trkpt>
      <trkpt lat="43.66229" lon="6.72232">
        <ele>557.032166</ele>
        <time>2011-02-20T11:05:22Z</time>
      </trkpt>
      <trkpt lat="43.66201" lon="6.72271">
        <ele>556.266052</ele>
        <time>2011-02-20T11:05:34Z</time>
      </trkpt>
      <trkpt lat="43.66132" lon="6.72363">
        <ele>559.495789</ele>
        <time>2011-02-20T11:06:01Z</time>
      </trkpt>
      <trkpt lat="43.66096" lon="6.72413">
        <ele>564.088623</ele>
        <time>2011-02-20T11:06:19Z</time>
      </trkpt>
      <trkpt lat="43.66074" lon="6.72462">
        <ele>565.382507</ele>
        <time>2011-02-20T11:06:41Z</time>
      </trkpt>
      <trkpt lat="43.66048" lon="6.72509">
        <ele>565.995667</ele>
        <time>2011-02-20T11:07:00Z</time>
      </trkpt>
      <trkpt lat="43.66035" lon="6.72524">
        <ele>565.525574</ele>
        <time>2011-02-20T11:07:05Z</time>
      </trkpt>
      <trkpt lat="43.66016" lon="6.72548">
        <ele>564.135681</ele>
        <time>2011-02-20T11:07:11Z</time>
      </trkpt>
      <trkpt lat="43.65999" lon="6.72578">
        <ele>562.291931</ele>
        <time>2011-02-20T11:07:14Z</time>
      </trkpt>
      <trkpt lat="43.65971" lon="6.7261">
        <ele>559.408325</ele>
        <time>2011-02-20T11:07:18Z</time>
      </trkpt>
      <trkpt lat="43.65954" lon="6.72625">
        <ele>557.777649</ele>
        <time>2011-02-20T11:07:20Z</time>
      </trkpt>
      <trkpt lat="43.65917" lon="6.72616">
        <ele>557.468567</ele>
        <time>2011-02-20T11:07:24Z</time>
      </trkpt>
      <trkpt lat="43.65894" lon="6.72651">
        <ele>556.685608</ele>
        <time>2011-02-20T11:07:29Z</time>
      </trkpt>
      <trkpt lat="43.6589" lon="6.72724">
        <ele>551.935425</ele>
        <time>2011-02-20T11:07:35Z</time>
      </trkpt>
      <trkpt lat="43.65881" lon="6.72775">
        <ele>548.729065</ele>
        <time>2011-02-20T11:07:39Z</time>
      </trkpt>
      <trkpt lat="43.65868" lon="6.72827">
        <ele>547.232117</ele>
        <time>2011-02-20T11:07:43Z</time>
      </trkpt>
      <trkpt lat="43.65844" lon="6.72917">
        <ele>544.144653</ele>
        <time>2011-02-20T11:07:50Z</time>
      </trkpt>
      <trkpt lat="43.65838" lon="6.72956">
        <ele>542.426514</ele>
        <time>2011-02-20T11:07:53Z</time>
      </trkpt>
      <trkpt lat="43.65832" lon="6.73022">
        <ele>536.586731</ele>
        <time>2011-02-20T11:07:58Z</time>
      </trkpt>
      <trkpt lat="43.65829" lon="6.73035">
        <ele>535.136536</ele>
        <time>2011-02-20T11:07:59Z</time>
      </trkpt>
      <trkpt lat="43.65797" lon="6.73052">
        <ele>534.166321</ele>
        <time>2011-02-20T11:08:02Z</time>
      </trkpt>
      <trkpt lat="43.65787" lon="6.73052">
        <ele>533.88324</ele>
        <time>2011-02-20T11:08:03Z</time>
      </trkpt>
      <trkpt lat="43.65776" lon="6.7305">
        <ele>533.888428</ele>
        <time>2011-02-20T11:08:04Z</time>
      </trkpt>
      <trkpt lat="43.65763" lon="6.7305">
        <ele>533.542603</ele>
        <time>2011-02-20T11:08:05Z</time>
      </trkpt>
      <trkpt lat="43.65752" lon="6.73054">
        <ele>532.608215</ele>
        <time>2011-02-20T11:08:06Z</time>
      </trkpt>
      <trkpt lat="43.65731" lon="6.73063">
        <ele>530.653198</ele>
        <time>2011-02-20T11:08:08Z</time>
      </trkpt>
      <trkpt lat="43.65711" lon="6.73076">
        <ele>528.142456</ele>
        <time>2011-02-20T11:08:10Z</time>
      </trkpt>
      <trkpt lat="43.65671" lon="6.73104">
        <ele>525.399536</ele>
        <time>2011-02-20T11:08:14Z</time>
      </trkpt>
      <trkpt lat="43.6563" lon="6.73127">
        <ele>523.032166</ele>
        <time>2011-02-20T11:08:18Z</time>
      </trkpt>
      <trkpt lat="43.65589" lon="6.73151">
        <ele>519.689392</ele>
        <time>2011-02-20T11:08:22Z</time>
      </trkpt>
      <trkpt lat="43.65557" lon="6.73134">
        <ele>518.275146</ele>
        <time>2011-02-20T11:08:25Z</time>
      </trkpt>
      <trkpt lat="43.65535" lon="6.73099">
        <ele>516.278625</ele>
        <time>2011-02-20T11:08:28Z</time>
      </trkpt>
      <trkpt lat="43.65529" lon="6.7305">
        <ele>515.581421</ele>
        <time>2011-02-20T11:08:33Z</time>
      </trkpt>
      <trkpt lat="43.65523" lon="6.73048">
        <ele>513.989502</ele>
        <time>2011-02-20T11:08:34Z</time>
      </trkpt>
      <trkpt lat="43.65516" lon="6.73059">
        <ele>512.474854</ele>
        <time>2011-02-20T11:08:36Z</time>
      </trkpt>
      <trkpt lat="43.65493" lon="6.73136">
        <ele>508.215912</ele>
        <time>2011-02-20T11:08:45Z</time>
      </trkpt>
      <trkpt lat="43.65486" lon="6.73155">
        <ele>507.474304</ele>
        <time>2011-02-20T11:08:47Z</time>
      </trkpt>
      <trkpt lat="43.65454" lon="6.732">
        <ele>504.470978</ele>
        <time>2011-02-20T11:08:52Z</time>
      </trkpt>
      <trkpt lat="43.65437" lon="6.73228">
        <ele>504.289124</ele>
        <time>2011-02-20T11:08:55Z</time>
      </trkpt>
      <trkpt lat="43.65402" lon="6.7328">
        <ele>500.324646</ele>
        <time>2011-02-20T11:09:00Z</time>
      </trkpt>
      <trkpt lat="43.65375" lon="6.7332">
        <ele>497.560883</ele>
        <time>2011-02-20T11:09:04Z</time>
      </trkpt>
      <trkpt lat="43.6534" lon="6.73374">
        <ele>494.247986</ele>
        <time>2011-02-20T11:09:09Z</time>
      </trkpt>
      <trkpt lat="43.65325" lon="6.73398">
        <ele>492.45282</ele>
        <time>2011-02-20T11:09:11Z</time>
      </trkpt>
      <trkpt lat="43.65276" lon="6.73473">
        <ele>488.315552</ele>
        <time>2011-02-20T11:09:18Z</time>
      </trkpt>
      <trkpt lat="43.65227" lon="6.73541">
        <ele>486.49295</ele>
        <time>2011-02-20T11:09:26Z</time>
      </trkpt>
      <trkpt lat="43.65177" lon="6.73576">
        <ele>484.299164</ele>
        <time>2011-02-20T11:09:33Z</time>
      </trkpt>
      <trkpt lat="43.65134" lon="6.73599">
        <ele>482.363037</ele>
        <time>2011-02-20T11:09:38Z</time>
      </trkpt>
      <trkpt lat="43.65108" lon="6.7361">
        <ele>481.323334</ele>
        <time>2011-02-20T11:09:41Z</time>
      </trkpt>
      <trkpt lat="43.65081" lon="6.73619">
        <ele>480.786255</ele>
        <time>2011-02-20T11:09:44Z</time>
      </trkpt>
      <trkpt lat="43.65036" lon="6.73627">
        <ele>478.839355</ele>
        <time>2011-02-20T11:09:49Z</time>
      </trkpt>
      <trkpt lat="43.65003" lon="6.73567">
        <ele>472.06897</ele>
        <time>2011-02-20T11:09:54Z</time>
      </trkpt>
      <trkpt lat="43.64997" lon="6.73554">
        <ele>470.694275</ele>
        <time>2011-02-20T11:09:55Z</time>
      </trkpt>
      <trkpt lat="43.64982" lon="6.73533">
        <ele>468.581207</ele>
        <time>2011-02-20T11:09:57Z</time>
      </trkpt>
      <trkpt lat="43.64975" lon="6.73524">
        <ele>467.911652</ele>
        <time>2011-02-20T11:09:58Z</time>
      </trkpt>
      <trkpt lat="43.64945" lon="6.7352">
        <ele>465.730072</ele>
        <time>2011-02-20T11:10:01Z</time>
      </trkpt>
      <trkpt lat="43.64937" lon="6.73522">
        <ele>465.157806</ele>
        <time>2011-02-20T11:10:02Z</time>
      </trkpt>
      <trkpt lat="43.64918" lon="6.73526">
        <ele>463.978516</ele>
        <time>2011-02-20T11:10:04Z</time>
      </trkpt>
      <trkpt lat="43.64909" lon="6.73531">
        <ele>463.615417</ele>
        <time>2011-02-20T11:10:05Z</time>
      </trkpt>
      <trkpt lat="43.64864" lon="6.73563">
        <ele>461.171387</ele>
        <time>2011-02-20T11:10:10Z</time>
      </trkpt>
      <trkpt lat="43.64812" lon="6.73601">
        <ele>457.050293</ele>
        <time>2011-02-20T11:10:16Z</time>
      </trkpt>
      <trkpt lat="43.64795" lon="6.73616">
        <ele>455.83374</ele>
        <time>2011-02-20T11:10:18Z</time>
      </trkpt>
      <trkpt lat="43.64789" lon="6.73623">
        <ele>455.159882</ele>
        <time>2011-02-20T11:10:19Z</time>
      </trkpt>
      <trkpt lat="43.64789" lon="6.73702">
        <ele>455.318848</ele>
        <time>2011-02-20T11:10:25Z</time>
      </trkpt>
      <trkpt lat="43.64787" lon="6.7373">
        <ele>455.251495</ele>
        <time>2011-02-20T11:10:27Z</time>
      </trkpt>
      <trkpt lat="43.64784" lon="6.73756">
        <ele>455.573883</ele>
        <time>2011-02-20T11:10:29Z</time>
      </trkpt>
      <trkpt lat="43.6475" lon="6.73786">
        <ele>452.574951</ele>
        <time>2011-02-20T11:10:33Z</time>
      </trkpt>
      <trkpt lat="43.64716" lon="6.73818">
        <ele>448.413147</ele>
        <time>2011-02-20T11:10:37Z</time>
      </trkpt>
      <trkpt lat="43.64705" lon="6.73857">
        <ele>445.622101</ele>
        <time>2011-02-20T11:10:40Z</time>
      </trkpt>
      <trkpt lat="43.6469" lon="6.73913">
        <ele>442.642944</ele>
        <time>2011-02-20T11:10:44Z</time>
      </trkpt>
      <trkpt lat="43.64677" lon="6.73966">
        <ele>440.486877</ele>
        <time>2011-02-20T11:10:48Z</time>
      </trkpt>
      <trkpt lat="43.6466" lon="6.74035">
        <ele>437.201141</ele>
        <time>2011-02-20T11:10:53Z</time>
      </trkpt>
      <trkpt lat="43.64643" lon="6.74103">
        <ele>433.415131</ele>
        <time>2011-02-20T11:10:58Z</time>
      </trkpt>
      <trkpt lat="43.64636" lon="6.74142">
        <ele>431.766235</ele>
        <time>2011-02-20T11:11:01Z</time>
      </trkpt>
      <trkpt lat="43.64645" lon="6.74183">
        <ele>430.499359</ele>
        <time>2011-02-20T11:11:04Z</time>
      </trkpt>
      <trkpt lat="43.64666" lon="6.74282">
        <ele>425.006744</ele>
        <time>2011-02-20T11:11:11Z</time>
      </trkpt>
      <trkpt lat="43.64681" lon="6.74337">
        <ele>421.619843</ele>
        <time>2011-02-20T11:11:15Z</time>
      </trkpt>
      <trkpt lat="43.64686" lon="6.74372">
        <ele>421.27121</ele>
        <time>2011-02-20T11:11:18Z</time>
      </trkpt>
      <trkpt lat="43.64681" lon="6.74374">
        <ele>420.991028</ele>
        <time>2011-02-20T11:11:19Z</time>
      </trkpt>
      <trkpt lat="43.64658" lon="6.74355">
        <ele>419.673126</ele>
        <time>2011-02-20T11:11:23Z</time>
      </trkpt>
      <trkpt lat="43.64647" lon="6.7434">
        <ele>419.459839</ele>
        <time>2011-02-20T11:11:25Z</time>
      </trkpt>
      <trkpt lat="43.64632" lon="6.74329">
        <ele>419.5448</ele>
        <time>2011-02-20T11:11:27Z</time>
      </trkpt>
      <trkpt lat="43.64587" lon="6.74344">
        <ele>418.782532</ele>
        <time>2011-02-20T11:11:32Z</time>
      </trkpt>
      <trkpt lat="43.64542" lon="6.74363">
        <ele>418.227417</ele>
        <time>2011-02-20T11:11:37Z</time>
      </trkpt>
      <trkpt lat="43.64501" lon="6.74378">
        <ele>414.863953</ele>
        <time>2011-02-20T11:11:41Z</time>
      </trkpt>
      <trkpt lat="43.64448" lon="6.74415">
        <ele>409.235657</ele>
        <time>2011-02-20T11:11:47Z</time>
      </trkpt>
      <trkpt lat="43.64411" lon="6.74438">
        <ele>406.719086</ele>
        <time>2011-02-20T11:11:51Z</time>
      </trkpt>
      <trkpt lat="43.64394" lon="6.74449">
        <ele>406.016846</ele>
        <time>2011-02-20T11:11:53Z</time>
      </trkpt>
      <trkpt lat="43.64302" lon="6.74494">
        <ele>404.692108</ele>
        <time>2011-02-20T11:12:04Z</time>
      </trkpt>
      <trkpt lat="43.64254" lon="6.74503">
        <ele>401.96582</ele>
        <time>2011-02-20T11:12:10Z</time>
      </trkpt>
      <trkpt lat="43.64233" lon="6.74518">
        <ele>400.959351</ele>
        <time>2011-02-20T11:12:13Z</time>
      </trkpt>
      <trkpt lat="43.64149" lon="6.74593">
        <ele>393.570831</ele>
        <time>2011-02-20T11:12:26Z</time>
      </trkpt>
      <trkpt lat="43.64134" lon="6.74606">
        <ele>391.54303</ele>
        <time>2011-02-20T11:12:28Z</time>
      </trkpt>
      <trkpt lat="43.64109" lon="6.74621">
        <ele>387.930939</ele>
        <time>2011-02-20T11:12:31Z</time>
      </trkpt>
      <trkpt lat="43.641" lon="6.74627">
        <ele>386.81662</ele>
        <time>2011-02-20T11:12:32Z</time>
      </trkpt>
      <trkpt lat="43.64072" lon="6.74646">
        <ele>383.427368</ele>
        <time>2011-02-20T11:12:35Z</time>
      </trkpt>
      <trkpt lat="43.64064" lon="6.74653">
        <ele>383.117157</ele>
        <time>2011-02-20T11:12:36Z</time>
      </trkpt>
      <trkpt lat="43.64036" lon="6.74674">
        <ele>382.764557</ele>
        <time>2011-02-20T11:12:39Z</time>
      </trkpt>
      <trkpt lat="43.64025" lon="6.74683">
        <ele>382.759003</ele>
        <time>2011-02-20T11:12:40Z</time>
      </trkpt>
      <trkpt lat="43.63969" lon="6.74724">
        <ele>385.290009</ele>
        <time>2011-02-20T11:12:46Z</time>
      </trkpt>
      <trkpt lat="43.63941" lon="6.74743">
        <ele>386.943573</ele>
        <time>2011-02-20T11:12:49Z</time>
      </trkpt>
      <trkpt lat="43.63926" lon="6.74745">
        <ele>387.520264</ele>
        <time>2011-02-20T11:12:52Z</time>
      </trkpt>
      <trkpt lat="43.63885" lon="6.74758">
        <ele>389.255066</ele>
        <time>2011-02-20T11:13:04Z</time>
      </trkpt>
      <trkpt lat="43.63858" lon="6.74764">
        <ele>390.146332</ele>
        <time>2011-02-20T11:13:15Z</time>
      </trkpt>
      <trkpt lat="43.63827" lon="6.74767">
        <ele>390.668823</ele>
        <time>2011-02-20T11:13:28Z</time>
      </trkpt>
      <trkpt lat="43.63825" lon="6.74767">
        <ele>390.674194</ele>
        <time>2011-02-20T11:13:29Z</time>
      </trkpt>
      <trkpt lat="43.63804" lon="6.74773">
        <ele>390.935486</ele>
        <time>2011-02-20T11:13:38Z</time>
      </trkpt>
      <trkpt lat="43.63795" lon="6.74779">
        <ele>391.164642</ele>
        <time>2011-02-20T11:13:42Z</time>
      </trkpt>
      <trkpt lat="43.63782" lon="6.74784">
        <ele>391.062531</ele>
        <time>2011-02-20T11:14:02Z</time>
      </trkpt>
      <trkpt lat="43.63815" lon="6.74777">
        <ele>391.04718</ele>
        <time>2011-02-20T11:16:05Z</time>
      </trkpt>
      <trkpt lat="43.6381" lon="6.74777">
        <ele>391.057892</ele>
        <time>2011-02-20T11:17:33Z</time>
      </trkpt>
      <trkpt lat="43.63797" lon="6.74779">
        <ele>391.159271</ele>
        <time>2011-02-20T11:17:37Z</time>
      </trkpt>
      <trkpt lat="43.63791" lon="6.74779">
        <ele>391.089417</ele>
        <time>2011-02-20T11:17:39Z</time>
      </trkpt>
      <trkpt lat="43.63703" lon="6.74794">
        <ele>388.235687</ele>
        <time>2011-02-20T11:17:55Z</time>
      </trkpt>
      <trkpt lat="43.636" lon="6.74818">
        <ele>384.811829</ele>
        <time>2011-02-20T11:18:11Z</time>
      </trkpt>
      <trkpt lat="43.63518" lon="6.74859">
        <ele>387.485962</ele>
        <time>2011-02-20T11:18:25Z</time>
      </trkpt>
      <trkpt lat="43.63463" lon="6.74885">
        <ele>389.617188</ele>
        <time>2011-02-20T11:18:36Z</time>
      </trkpt>
      <trkpt lat="43.63452" lon="6.74887">
        <ele>389.878754</ele>
        <time>2011-02-20T11:18:38Z</time>
      </trkpt>
      <trkpt lat="43.63388" lon="6.74874">
        <ele>392.039825</ele>
        <time>2011-02-20T11:18:53Z</time>
      </trkpt>
      <trkpt lat="43.63319" lon="6.74857">
        <ele>395.007324</ele>
        <time>2011-02-20T11:19:09Z</time>
      </trkpt>
      <trkpt lat="43.6331" lon="6.74855">
        <ele>395.392609</ele>
        <time>2011-02-20T11:19:11Z</time>
      </trkpt>
      <trkpt lat="43.63304" lon="6.74902">
        <ele>396.262238</ele>
        <time>2011-02-20T11:19:24Z</time>
      </trkpt>
      <trkpt lat="43.63297" lon="6.74902">
        <ele>396.556305</ele>
        <time>2011-02-20T11:19:25Z</time>
      </trkpt>
      <trkpt lat="43.63255" lon="6.74912">
        <ele>398.585571</ele>
        <time>2011-02-20T11:19:42Z</time>
      </trkpt>
      <trkpt lat="43.63194" lon="6.74921">
        <ele>399.537933</ele>
        <time>2011-02-20T11:20:07Z</time>
      </trkpt>
      <trkpt lat="43.63156" lon="6.74927">
        <ele>400.539093</ele>
        <time>2011-02-20T11:20:22Z</time>
      </trkpt>
      <trkpt lat="43.63154" lon="6.74927">
        <ele>400.544464</ele>
        <time>2011-02-20T11:20:23Z</time>
      </trkpt>
      <trkpt lat="43.63141" lon="6.7493">
        <ele>400.645844</ele>
        <time>2011-02-20T11:20:29Z</time>
      </trkpt>
      <trkpt lat="43.63068" lon="6.74973">
        <ele>404.48764</ele>
        <time>2011-02-20T11:20:58Z</time>
      </trkpt>
      <trkpt lat="43.63044" lon="6.74992">
        <ele>407.471252</ele>
        <time>2011-02-20T11:21:05Z</time>
      </trkpt>
      <trkpt lat="43.63029" lon="6.75">
        <ele>408.962189</ele>
        <time>2011-02-20T11:21:09Z</time>
      </trkpt>
      <trkpt lat="43.6298" lon="6.75028">
        <ele>412.024811</ele>
        <time>2011-02-20T11:21:25Z</time>
      </trkpt>
      <trkpt lat="43.62907" lon="6.75073">
        <ele>410.614502</ele>
        <time>2011-02-20T11:21:53Z</time>
      </trkpt>
      <trkpt lat="43.62864" lon="6.75106">
        <ele>407.338989</ele>
        <time>2011-02-20T11:22:03Z</time>
      </trkpt>
      <trkpt lat="43.6286" lon="6.7511">
        <ele>406.990021</ele>
        <time>2011-02-20T11:22:04Z</time>
      </trkpt>
      <trkpt lat="43.62851" lon="6.75116">
        <ele>406.320892</ele>
        <time>2011-02-20T11:22:05Z</time>
      </trkpt>
      <trkpt lat="43.62806" lon="6.75142">
        <ele>402.746796</ele>
        <time>2011-02-20T11:22:10Z</time>
      </trkpt>
      <trkpt lat="43.62776" lon="6.75159">
        <ele>400.742615</ele>
        <time>2011-02-20T11:22:13Z</time>
      </trkpt>
      <trkpt lat="43.62746" lon="6.75183">
        <ele>399.259766</ele>
        <time>2011-02-20T11:22:16Z</time>
      </trkpt>
      <trkpt lat="43.62725" lon="6.752">
        <ele>397.79361</ele>
        <time>2011-02-20T11:22:18Z</time>
      </trkpt>
      <trkpt lat="43.62686" lon="6.7523">
        <ele>394.837646</ele>
        <time>2011-02-20T11:22:22Z</time>
      </trkpt>
      <trkpt lat="43.62658" lon="6.75254">
        <ele>392.056488</ele>
        <time>2011-02-20T11:22:25Z</time>
      </trkpt>
      <trkpt lat="43.6263" lon="6.75275">
        <ele>388.716125</ele>
        <time>2011-02-20T11:22:28Z</time>
      </trkpt>
      <trkpt lat="43.62607" lon="6.75258">
        <ele>386.858948</ele>
        <time>2011-02-20T11:22:31Z</time>
      </trkpt>
      <trkpt lat="43.62598" lon="6.75256">
        <ele>385.55426</ele>
        <time>2011-02-20T11:22:32Z</time>
      </trkpt>
      <trkpt lat="43.62566" lon="6.75275">
        <ele>381.840057</ele>
        <time>2011-02-20T11:22:36Z</time>
      </trkpt>
      <trkpt lat="43.62531" lon="6.75314">
        <ele>379.092621</ele>
        <time>2011-02-20T11:22:41Z</time>
      </trkpt>
      <trkpt lat="43.62516" lon="6.75333">
        <ele>376.921661</ele>
        <time>2011-02-20T11:22:43Z</time>
      </trkpt>
      <trkpt lat="43.62516" lon="6.75346">
        <ele>376.753784</ele>
        <time>2011-02-20T11:22:44Z</time>
      </trkpt>
      <trkpt lat="43.62527" lon="6.75385">
        <ele>374.012238</ele>
        <time>2011-02-20T11:22:47Z</time>
      </trkpt>
      <trkpt lat="43.62549" lon="6.75449">
        <ele>372.210358</ele>
        <time>2011-02-20T11:22:52Z</time>
      </trkpt>
      <trkpt lat="43.62549" lon="6.75492">
        <ele>370.617432</ele>
        <time>2011-02-20T11:22:55Z</time>
      </trkpt>
      <trkpt lat="43.62538" lon="6.75535">
        <ele>369.233368</ele>
        <time>2011-02-20T11:22:58Z</time>
      </trkpt>
      <trkpt lat="43.62529" lon="6.75563">
        <ele>368.096161</ele>
        <time>2011-02-20T11:23:00Z</time>
      </trkpt>
      <trkpt lat="43.62514" lon="6.75616">
        <ele>366.578888</ele>
        <time>2011-02-20T11:23:04Z</time>
      </trkpt>
      <trkpt lat="43.62473" lon="6.7573">
        <ele>360.447296</ele>
        <time>2011-02-20T11:23:13Z</time>
      </trkpt>
      <trkpt lat="43.62461" lon="6.75766">
        <ele>355.779633</ele>
        <time>2011-02-20T11:23:16Z</time>
      </trkpt>
      <trkpt lat="43.62482" lon="6.75829">
        <ele>357.167053</ele>
        <time>2011-02-20T11:23:22Z</time>
      </trkpt>
      <trkpt lat="43.62486" lon="6.75837">
        <ele>356.991974</ele>
        <time>2011-02-20T11:23:23Z</time>
      </trkpt>
      <trkpt lat="43.62489" lon="6.75857">
        <ele>354.341705</ele>
        <time>2011-02-20T11:23:25Z</time>
      </trkpt>
      <trkpt lat="43.62465" lon="6.75848">
        <ele>352.023376</ele>
        <time>2011-02-20T11:23:29Z</time>
      </trkpt>
      <trkpt lat="43.62454" lon="6.7582">
        <ele>351.886688</ele>
        <time>2011-02-20T11:23:32Z</time>
      </trkpt>
      <trkpt lat="43.62452" lon="6.75812">
        <ele>351.841187</ele>
        <time>2011-02-20T11:23:33Z</time>
      </trkpt>
      <trkpt lat="43.62448" lon="6.75779">
        <ele>351.67157</ele>
        <time>2011-02-20T11:23:36Z</time>
      </trkpt>
      <trkpt lat="43.62448" lon="6.75766">
        <ele>351.613678</ele>
        <time>2011-02-20T11:23:37Z</time>
      </trkpt>
      <trkpt lat="43.62446" lon="6.75717">
        <ele>349.735107</ele>
        <time>2011-02-20T11:23:41Z</time>
      </trkpt>
      <trkpt lat="43.62446" lon="6.75704">
        <ele>348.91983</ele>
        <time>2011-02-20T11:23:42Z</time>
      </trkpt>
      <trkpt lat="43.62443" lon="6.75668">
        <ele>345.679443</ele>
        <time>2011-02-20T11:23:45Z</time>
      </trkpt>
      <trkpt lat="43.62448" lon="6.75642">
        <ele>344.018585</ele>
        <time>2011-02-20T11:23:47Z</time>
      </trkpt>
      <trkpt lat="43.62452" lon="6.75629">
        <ele>343.883026</ele>
        <time>2011-02-20T11:23:48Z</time>
      </trkpt>
      <trkpt lat="43.62454" lon="6.75614">
        <ele>342.41394</ele>
        <time>2011-02-20T11:23:49Z</time>
      </trkpt>
      <trkpt lat="43.62461" lon="6.75558">
        <ele>339.01236</ele>
        <time>2011-02-20T11:23:53Z</time>
      </trkpt>
      <trkpt lat="43.62463" lon="6.75543">
        <ele>338.609344</ele>
        <time>2011-02-20T11:23:54Z</time>
      </trkpt>
      <trkpt lat="43.62465" lon="6.75515">
        <ele>341.260223</ele>
        <time>2011-02-20T11:23:56Z</time>
      </trkpt>
      <trkpt lat="43.62461" lon="6.75492">
        <ele>342.092468</ele>
        <time>2011-02-20T11:23:58Z</time>
      </trkpt>
      <trkpt lat="43.62456" lon="6.75483">
        <ele>343.243927</ele>
        <time>2011-02-20T11:23:59Z</time>
      </trkpt>
      <trkpt lat="43.6245" lon="6.75477">
        <ele>344.769043</ele>
        <time>2011-02-20T11:24:00Z</time>
      </trkpt>
      <trkpt lat="43.62409" lon="6.75475">
        <ele>346.380951</ele>
        <time>2011-02-20T11:24:05Z</time>
      </trkpt>
      <trkpt lat="43.62401" lon="6.75475">
        <ele>345.31543</ele>
        <time>2011-02-20T11:24:06Z</time>
      </trkpt>
      <trkpt lat="43.62373" lon="6.75488">
        <ele>336.134918</ele>
        <time>2011-02-20T11:24:09Z</time>
      </trkpt>
      <trkpt lat="43.62364" lon="6.75492">
        <ele>332.945953</ele>
        <time>2011-02-20T11:24:10Z</time>
      </trkpt>
      <trkpt lat="43.62319" lon="6.75483">
        <ele>328.018585</ele>
        <time>2011-02-20T11:24:15Z</time>
      </trkpt>
      <trkpt lat="43.62298" lon="6.75453">
        <ele>327.792725</ele>
        <time>2011-02-20T11:24:19Z</time>
      </trkpt>
      <trkpt lat="43.62287" lon="6.7543">
        <ele>325.750549</ele>
        <time>2011-02-20T11:24:22Z</time>
      </trkpt>
      <trkpt lat="43.62285" lon="6.75365">
        <ele>328.812775</ele>
        <time>2011-02-20T11:24:31Z</time>
      </trkpt>
      <trkpt lat="43.62289" lon="6.75348">
        <ele>330.777985</ele>
        <time>2011-02-20T11:24:36Z</time>
      </trkpt>
      <trkpt lat="43.62295" lon="6.75335">
        <ele>332.140625</ele>
        <time>2011-02-20T11:24:40Z</time>
      </trkpt>
      <trkpt lat="43.62317" lon="6.75262">
        <ele>328.206116</ele>
        <time>2011-02-20T11:24:51Z</time>
      </trkpt>
      <trkpt lat="43.62328" lon="6.7523">
        <ele>322.284302</ele>
        <time>2011-02-20T11:24:55Z</time>
      </trkpt>
      <trkpt lat="43.62343" lon="6.75198">
        <ele>315.951233</ele>
        <time>2011-02-20T11:24:59Z</time>
      </trkpt>
      <trkpt lat="43.6236" lon="6.75161">
        <ele>311.526489</ele>
        <time>2011-02-20T11:25:04Z</time>
      </trkpt>
      <trkpt lat="43.62358" lon="6.75138">
        <ele>310.326538</ele>
        <time>2011-02-20T11:25:06Z</time>
      </trkpt>
      <trkpt lat="43.62358" lon="6.75127">
        <ele>310.400269</ele>
        <time>2011-02-20T11:25:07Z</time>
      </trkpt>
      <trkpt lat="43.62353" lon="6.75067">
        <ele>308.939209</ele>
        <time>2011-02-20T11:25:13Z</time>
      </trkpt>
      <trkpt lat="43.62351" lon="6.75056">
        <ele>308.190125</ele>
        <time>2011-02-20T11:25:14Z</time>
      </trkpt>
      <trkpt lat="43.62347" lon="6.75013">
        <ele>305.10318</ele>
        <time>2011-02-20T11:25:18Z</time>
      </trkpt>
      <trkpt lat="43.62338" lon="6.7494">
        <ele>303.910034</ele>
        <time>2011-02-20T11:25:25Z</time>
      </trkpt>
      <trkpt lat="43.62332" lon="6.74897">
        <ele>306.510437</ele>
        <time>2011-02-20T11:25:29Z</time>
      </trkpt>
      <trkpt lat="43.62325" lon="6.74846">
        <ele>306.871399</ele>
        <time>2011-02-20T11:25:34Z</time>
      </trkpt>
      <trkpt lat="43.62321" lon="6.74816">
        <ele>308.511597</ele>
        <time>2011-02-20T11:25:37Z</time>
      </trkpt>
      <trkpt lat="43.62317" lon="6.74794">
        <ele>309.291107</ele>
        <time>2011-02-20T11:25:39Z</time>
      </trkpt>
      <trkpt lat="43.62315" lon="6.74784">
        <ele>309.682739</ele>
        <time>2011-02-20T11:25:40Z</time>
      </trkpt>
      <trkpt lat="43.62287" lon="6.74758">
        <ele>306.904419</ele>
        <time>2011-02-20T11:25:43Z</time>
      </trkpt>
      <trkpt lat="43.62265" lon="6.74745">
        <ele>303.926117</ele>
        <time>2011-02-20T11:25:45Z</time>
      </trkpt>
      <trkpt lat="43.62225" lon="6.74711">
        <ele>296.284851</ele>
        <time>2011-02-20T11:25:49Z</time>
      </trkpt>
      <trkpt lat="43.62218" lon="6.74698">
        <ele>292.977814</ele>
        <time>2011-02-20T11:25:50Z</time>
      </trkpt>
      <trkpt lat="43.62214" lon="6.74685">
        <ele>290.46524</ele>
        <time>2011-02-20T11:25:51Z</time>
      </trkpt>
      <trkpt lat="43.62212" lon="6.74672">
        <ele>288.869995</ele>
        <time>2011-02-20T11:25:52Z</time>
      </trkpt>
      <trkpt lat="43.62218" lon="6.74636">
        <ele>286.472168</ele>
        <time>2011-02-20T11:25:55Z</time>
      </trkpt>
      <trkpt lat="43.62222" lon="6.74625">
        <ele>285.694733</ele>
        <time>2011-02-20T11:25:56Z</time>
      </trkpt>
      <trkpt lat="43.62261" lon="6.74539">
        <ele>283.210724</ele>
        <time>2011-02-20T11:26:03Z</time>
      </trkpt>
      <trkpt lat="43.62263" lon="6.74524">
        <ele>281.80188</ele>
        <time>2011-02-20T11:26:04Z</time>
      </trkpt>
      <trkpt lat="43.6227" lon="6.74479">
        <ele>278.188995</ele>
        <time>2011-02-20T11:26:07Z</time>
      </trkpt>
      <trkpt lat="43.62274" lon="6.74449">
        <ele>275.003357</ele>
        <time>2011-02-20T11:26:09Z</time>
      </trkpt>
      <trkpt lat="43.62276" lon="6.74432">
        <ele>272.862671</ele>
        <time>2011-02-20T11:26:10Z</time>
      </trkpt>
      <trkpt lat="43.62289" lon="6.7441">
        <ele>271.723724</ele>
        <time>2011-02-20T11:26:12Z</time>
      </trkpt>
      <trkpt lat="43.62298" lon="6.74404">
        <ele>272.780243</ele>
        <time>2011-02-20T11:26:13Z</time>
      </trkpt>
      <trkpt lat="43.62304" lon="6.74395">
        <ele>273.498718</ele>
        <time>2011-02-20T11:26:14Z</time>
      </trkpt>
      <trkpt lat="43.62304" lon="6.74352">
        <ele>271.043915</ele>
        <time>2011-02-20T11:26:18Z</time>
      </trkpt>
      <trkpt lat="43.623" lon="6.74331">
        <ele>269.29184</ele>
        <time>2011-02-20T11:26:20Z</time>
      </trkpt>
      <trkpt lat="43.62302" lon="6.74282">
        <ele>268.830231</ele>
        <time>2011-02-20T11:26:24Z</time>
      </trkpt>
      <trkpt lat="43.62302" lon="6.74267">
        <ele>268.829803</ele>
        <time>2011-02-20T11:26:25Z</time>
      </trkpt>
      <trkpt lat="43.62298" lon="6.74226">
        <ele>268.379517</ele>
        <time>2011-02-20T11:26:28Z</time>
      </trkpt>
      <trkpt lat="43.62293" lon="6.74172">
        <ele>265.921082</ele>
        <time>2011-02-20T11:26:32Z</time>
      </trkpt>
      <trkpt lat="43.62293" lon="6.74157">
        <ele>265.275146</ele>
        <time>2011-02-20T11:26:33Z</time>
      </trkpt>
      <trkpt lat="43.62295" lon="6.74144">
        <ele>264.922424</ele>
        <time>2011-02-20T11:26:34Z</time>
      </trkpt>
      <trkpt lat="43.623" lon="6.74119">
        <ele>264.262451</ele>
        <time>2011-02-20T11:26:36Z</time>
      </trkpt>
      <trkpt lat="43.62291" lon="6.74078">
        <ele>261.646515</ele>
        <time>2011-02-20T11:26:39Z</time>
      </trkpt>
      <trkpt lat="43.62276" lon="6.74011">
        <ele>258.627167</ele>
        <time>2011-02-20T11:26:44Z</time>
      </trkpt>
      <trkpt lat="43.62261" lon="6.73973">
        <ele>257.099091</ele>
        <time>2011-02-20T11:26:47Z</time>
      </trkpt>
      <trkpt lat="43.62252" lon="6.73964">
        <ele>256.900055</ele>
        <time>2011-02-20T11:26:48Z</time>
      </trkpt>
      <trkpt lat="43.62222" lon="6.73955">
        <ele>255.824448</ele>
        <time>2011-02-20T11:26:51Z</time>
      </trkpt>
      <trkpt lat="43.62214" lon="6.73955">
        <ele>255.266266</ele>
        <time>2011-02-20T11:26:52Z</time>
      </trkpt>
      <trkpt lat="43.62182" lon="6.73951">
        <ele>252.225189</ele>
        <time>2011-02-20T11:26:55Z</time>
      </trkpt>
      <trkpt lat="43.62171" lon="6.73949">
        <ele>251.193817</ele>
        <time>2011-02-20T11:26:56Z</time>
      </trkpt>
      <trkpt lat="43.62162" lon="6.73943">
        <ele>250.793167</ele>
        <time>2011-02-20T11:26:57Z</time>
      </trkpt>
      <trkpt lat="43.62145" lon="6.73913">
        <ele>248.35495</ele>
        <time>2011-02-20T11:27:00Z</time>
      </trkpt>
      <trkpt lat="43.62122" lon="6.73852">
        <ele>243.050186</ele>
        <time>2011-02-20T11:27:05Z</time>
      </trkpt>
      <trkpt lat="43.62115" lon="6.7384">
        <ele>242.610687</ele>
        <time>2011-02-20T11:27:06Z</time>
      </trkpt>
      <trkpt lat="43.62109" lon="6.73831">
        <ele>241.394409</ele>
        <time>2011-02-20T11:27:07Z</time>
      </trkpt>
      <trkpt lat="43.62064" lon="6.73805">
        <ele>236.559097</ele>
        <time>2011-02-20T11:27:12Z</time>
      </trkpt>
      <trkpt lat="43.62042" lon="6.7376">
        <ele>240.721786</ele>
        <time>2011-02-20T11:27:17Z</time>
      </trkpt>
      <trkpt lat="43.6201" lon="6.73775">
        <ele>239.583084</ele>
        <time>2011-02-20T11:27:22Z</time>
      </trkpt>
      <trkpt lat="43.61879" lon="6.73917">
        <ele>240.597473</ele>
        <time>2011-02-20T11:27:45Z</time>
      </trkpt>
      <trkpt lat="43.61789" lon="6.74046">
        <ele>232.61235</ele>
        <time>2011-02-20T11:28:03Z</time>
      </trkpt>
      <trkpt lat="43.61716" lon="6.74144">
        <ele>225.724228</ele>
        <time>2011-02-20T11:28:17Z</time>
      </trkpt>
      <trkpt lat="43.61639" lon="6.74088">
        <ele>229.653</ele>
        <time>2011-02-20T11:28:23Z</time>
      </trkpt>
      <trkpt lat="43.6163" lon="6.74091">
        <ele>229.335678</ele>
        <time>2011-02-20T11:28:24Z</time>
      </trkpt>
      <trkpt lat="43.61585" lon="6.74114">
        <ele>225.818726</ele>
        <time>2011-02-20T11:28:29Z</time>
      </trkpt>
      <trkpt lat="43.61527" lon="6.74131">
        <ele>221.802139</ele>
        <time>2011-02-20T11:28:35Z</time>
      </trkpt>
      <trkpt lat="43.61491" lon="6.74144">
        <ele>219.253769</ele>
        <time>2011-02-20T11:28:39Z</time>
      </trkpt>
      <trkpt lat="43.61463" lon="6.74159">
        <ele>217.30011</ele>
        <time>2011-02-20T11:28:42Z</time>
      </trkpt>
      <trkpt lat="43.61349" lon="6.74204">
        <ele>213.284424</ele>
        <time>2011-02-20T11:28:55Z</time>
      </trkpt>
      <trkpt lat="43.61289" lon="6.74213">
        <ele>211.63031</ele>
        <time>2011-02-20T11:29:02Z</time>
      </trkpt>
      <trkpt lat="43.61162" lon="6.7423">
        <ele>207.036026</ele>
        <time>2011-02-20T11:29:17Z</time>
      </trkpt>
      <trkpt lat="43.61066" lon="6.74258">
        <ele>204.890717</ele>
        <time>2011-02-20T11:29:29Z</time>
      </trkpt>
      <trkpt lat="43.60907" lon="6.7426">
        <ele>200.372162</ele>
        <time>2011-02-20T11:29:49Z</time>
      </trkpt>
      <trkpt lat="43.60789" lon="6.74252">
        <ele>198.510376</ele>
        <time>2011-02-20T11:30:05Z</time>
      </trkpt>
      <trkpt lat="43.60753" lon="6.7426">
        <ele>197.970062</ele>
        <time>2011-02-20T11:30:11Z</time>
      </trkpt>
      <trkpt lat="43.6074" lon="6.74258">
        <ele>197.833542</ele>
        <time>2011-02-20T11:30:13Z</time>
      </trkpt>
      <trkpt lat="43.60643" lon="6.74226">
        <ele>196.47731</ele>
        <time>2011-02-20T11:30:31Z</time>
      </trkpt>
      <trkpt lat="43.60527" lon="6.74194">
        <ele>198.194962</ele>
        <time>2011-02-20T11:30:52Z</time>
      </trkpt>
      <trkpt lat="43.60506" lon="6.74183">
        <ele>200.767075</ele>
        <time>2011-02-20T11:31:01Z</time>
      </trkpt>
      <trkpt lat="43.6045" lon="6.74179">
        <ele>205.046051</ele>
        <time>2011-02-20T11:31:25Z</time>
      </trkpt>
      <trkpt lat="43.60433" lon="6.74181">
        <ele>206.233047</ele>
        <time>2011-02-20T11:31:32Z</time>
      </trkpt>
      <trkpt lat="43.60388" lon="6.74191">
        <ele>209.204575</ele>
        <time>2011-02-20T11:31:50Z</time>
      </trkpt>
      <trkpt lat="43.60349" lon="6.74202">
        <ele>209.811096</ele>
        <time>2011-02-20T11:32:05Z</time>
      </trkpt>
      <trkpt lat="43.60315" lon="6.74179">
        <ele>209.766159</ele>
        <time>2011-02-20T11:32:12Z</time>
      </trkpt>
      <trkpt lat="43.60315" lon="6.74183">
        <ele>209.613586</ele>
        <time>2011-02-20T11:32:13Z</time>
      </trkpt>
      <trkpt lat="43.60281" lon="6.74153">
        <ele>207.294586</ele>
        <time>2011-02-20T11:32:21Z</time>
      </trkpt>
      <trkpt lat="43.60274" lon="6.74149">
        <ele>206.685867</ele>
        <time>2011-02-20T11:32:22Z</time>
      </trkpt>
      <trkpt lat="43.60265" lon="6.74144">
        <ele>205.829056</ele>
        <time>2011-02-20T11:32:23Z</time>
      </trkpt>
      <trkpt lat="43.60238" lon="6.74123">
        <ele>202.813782</ele>
        <time>2011-02-20T11:32:27Z</time>
      </trkpt>
      <trkpt lat="43.60199" lon="6.74095">
        <ele>201.544937</ele>
        <time>2011-02-20T11:32:32Z</time>
      </trkpt>
      <trkpt lat="43.60167" lon="6.74084">
        <ele>199.301331</ele>
        <time>2011-02-20T11:32:36Z</time>
      </trkpt>
      <trkpt lat="43.60141" lon="6.74058">
        <ele>199.00473</ele>
        <time>2011-02-20T11:32:40Z</time>
      </trkpt>
      <trkpt lat="43.60102" lon="6.73983">
        <ele>196.317993</ele>
        <time>2011-02-20T11:32:48Z</time>
      </trkpt>
      <trkpt lat="43.60083" lon="6.73945">
        <ele>195.727524</ele>
        <time>2011-02-20T11:32:52Z</time>
      </trkpt>
      <trkpt lat="43.60072" lon="6.73887">
        <ele>194.906509</ele>
        <time>2011-02-20T11:32:57Z</time>
      </trkpt>
      <trkpt lat="43.60027" lon="6.73825">
        <ele>188.31752</ele>
        <time>2011-02-20T11:33:05Z</time>
      </trkpt>
      <trkpt lat="43.60021" lon="6.7382">
        <ele>188.174576</ele>
        <time>2011-02-20T11:33:06Z</time>
      </trkpt>
      <trkpt lat="43.59995" lon="6.73801">
        <ele>188.601135</ele>
        <time>2011-02-20T11:33:10Z</time>
      </trkpt>
      <trkpt lat="43.59954" lon="6.73814">
        <ele>190.168961</ele>
        <time>2011-02-20T11:33:16Z</time>
      </trkpt>
      <trkpt lat="43.59944" lon="6.73825">
        <ele>190.584671</ele>
        <time>2011-02-20T11:33:18Z</time>
      </trkpt>
      <trkpt lat="43.59903" lon="6.73885">
        <ele>190.659241</ele>
        <time>2011-02-20T11:33:28Z</time>
      </trkpt>
      <trkpt lat="43.59901" lon="6.73962">
        <ele>192.456787</ele>
        <time>2011-02-20T11:33:41Z</time>
      </trkpt>
      <trkpt lat="43.59914" lon="6.74082">
        <ele>196.330276</ele>
        <time>2011-02-20T11:34:08Z</time>
      </trkpt>
      <trkpt lat="43.59911" lon="6.74095">
        <ele>196.932007</ele>
        <time>2011-02-20T11:34:11Z</time>
      </trkpt>
      <trkpt lat="43.59901" lon="6.74116">
        <ele>197.61084</ele>
        <time>2011-02-20T11:34:17Z</time>
      </trkpt>
      <trkpt lat="43.59894" lon="6.74125">
        <ele>197.507751</ele>
        <time>2011-02-20T11:34:20Z</time>
      </trkpt>
      <trkpt lat="43.59888" lon="6.74134">
        <ele>197.365005</ele>
        <time>2011-02-20T11:34:23Z</time>
      </trkpt>
      <trkpt lat="43.59875" lon="6.74142">
        <ele>197.485413</ele>
        <time>2011-02-20T11:34:28Z</time>
      </trkpt>
      <trkpt lat="43.59836" lon="6.74146">
        <ele>197.687546</ele>
        <time>2011-02-20T11:34:41Z</time>
      </trkpt>
      <trkpt lat="43.59746" lon="6.74121">
        <ele>200.409988</ele>
        <time>2011-02-20T11:35:11Z</time>
      </trkpt>
      <trkpt lat="43.59733" lon="6.74119">
        <ele>201.452316</ele>
        <time>2011-02-20T11:35:16Z</time>
      </trkpt>
      <trkpt lat="43.59714" lon="6.74119">
        <ele>203.562607</ele>
        <time>2011-02-20T11:35:23Z</time>
      </trkpt>
      <trkpt lat="43.59701" lon="6.74121">
        <ele>205.107864</ele>
        <time>2011-02-20T11:35:28Z</time>
      </trkpt>
      <trkpt lat="43.59693" lon="6.74123">
        <ele>206.062195</ele>
        <time>2011-02-20T11:35:32Z</time>
      </trkpt>
      <trkpt lat="43.59688" lon="6.74125">
        <ele>206.457565</ele>
        <time>2011-02-20T11:35:34Z</time>
      </trkpt>
      <trkpt lat="43.59675" lon="6.74129">
        <ele>207.871674</ele>
        <time>2011-02-20T11:35:40Z</time>
      </trkpt>
      <trkpt lat="43.59658" lon="6.74138">
        <ele>209.847031</ele>
        <time>2011-02-20T11:35:48Z</time>
      </trkpt>
      <trkpt lat="43.59654" lon="6.7414">
        <ele>210.340866</ele>
        <time>2011-02-20T11:35:51Z</time>
      </trkpt>
      <trkpt lat="43.59596" lon="6.74164">
        <ele>215.381271</ele>
        <time>2011-02-20T11:36:21Z</time>
      </trkpt>
      <trkpt lat="43.59592" lon="6.74166">
        <ele>215.615417</ele>
        <time>2011-02-20T11:36:23Z</time>
      </trkpt>
      <trkpt lat="43.59572" lon="6.74146">
        <ele>218.110107</ele>
        <time>2011-02-20T11:36:30Z</time>
      </trkpt>
      <trkpt lat="43.59572" lon="6.74144">
        <ele>218.287231</ele>
        <time>2011-02-20T11:36:31Z</time>
      </trkpt>
      <trkpt lat="43.5956" lon="6.74142">
        <ele>218.956223</ele>
        <time>2011-02-20T11:36:37Z</time>
      </trkpt>
      <trkpt lat="43.59534" lon="6.74131">
        <ele>219.820831</ele>
        <time>2011-02-20T11:36:47Z</time>
      </trkpt>
      <trkpt lat="43.59474" lon="6.74103">
        <ele>217.824799</ele>
        <time>2011-02-20T11:37:09Z</time>
      </trkpt>
      <trkpt lat="43.59418" lon="6.74076">
        <ele>217.135208</ele>
        <time>2011-02-20T11:37:29Z</time>
      </trkpt>
      <trkpt lat="43.59418" lon="6.74076">
        <ele>217.135208</ele>
        <time>2011-02-20T11:38:00Z</time>
      </trkpt>
      <trkpt lat="43.59328" lon="6.74174">
        <ele>224.152603</ele>
        <time>2011-02-20T11:38:06Z</time>
      </trkpt>
      <trkpt lat="43.59326" lon="6.74174">
        <ele>224.67215</ele>
        <time>2011-02-20T11:38:07Z</time>
      </trkpt>
      <trkpt lat="43.59313" lon="6.74185">
        <ele>226.904236</ele>
        <time>2011-02-20T11:38:14Z</time>
      </trkpt>
      <trkpt lat="43.59298" lon="6.742">
        <ele>228.759781</ele>
        <time>2011-02-20T11:38:23Z</time>
      </trkpt>
      <trkpt lat="43.59274" lon="6.74224">
        <ele>230.661774</ele>
        <time>2011-02-20T11:38:37Z</time>
      </trkpt>
      <trkpt lat="43.59225" lon="6.74262">
        <ele>230.209854</ele>
        <time>2011-02-20T11:39:03Z</time>
      </trkpt>
      <trkpt lat="43.5921" lon="6.74271">
        <ele>229.31459</ele>
        <time>2011-02-20T11:39:11Z</time>
      </trkpt>
      <trkpt lat="43.59208" lon="6.74206">
        <ele>237.154907</ele>
        <time>2011-02-20T11:39:14Z</time>
      </trkpt>
      <trkpt lat="43.59208" lon="6.74204">
        <ele>237.350403</ele>
        <time>2011-02-20T11:39:15Z</time>
      </trkpt>
      <trkpt lat="43.59203" lon="6.74196">
        <ele>237.707764</ele>
        <time>2011-02-20T11:39:18Z</time>
      </trkpt>
      <trkpt lat="43.59199" lon="6.74189">
        <ele>237.770523</ele>
        <time>2011-02-20T11:39:21Z</time>
      </trkpt>
      <trkpt lat="43.59197" lon="6.74181">
        <ele>238.133057</ele>
        <time>2011-02-20T11:39:24Z</time>
      </trkpt>
      <trkpt lat="43.59195" lon="6.74176">
        <ele>238.147568</ele>
        <time>2011-02-20T11:39:25Z</time>
      </trkpt>
      <trkpt lat="43.59195" lon="6.74159">
        <ele>237.411697</ele>
        <time>2011-02-20T11:39:30Z</time>
      </trkpt>
      <trkpt lat="43.59197" lon="6.7414">
        <ele>236.02095</ele>
        <time>2011-02-20T11:39:36Z</time>
      </trkpt>
      <trkpt lat="43.5921" lon="6.74106">
        <ele>236.392014</ele>
        <time>2011-02-20T11:39:47Z</time>
      </trkpt>
      <trkpt lat="43.59214" lon="6.74099">
        <ele>237.049545</ele>
        <time>2011-02-20T11:39:50Z</time>
      </trkpt>
      <trkpt lat="43.59236" lon="6.74063">
        <ele>240.745239</ele>
        <time>2011-02-20T11:40:05Z</time>
      </trkpt>
      <trkpt lat="43.59248" lon="6.74037">
        <ele>241.570648</ele>
        <time>2011-02-20T11:40:17Z</time>
      </trkpt>
      <trkpt lat="43.59253" lon="6.74022">
        <ele>242.37059</ele>
        <time>2011-02-20T11:40:23Z</time>
      </trkpt>
      <trkpt lat="43.59257" lon="6.74007">
        <ele>243.332642</ele>
        <time>2011-02-20T11:40:29Z</time>
      </trkpt>
      <trkpt lat="43.59257" lon="6.73988">
        <ele>243.918762</ele>
        <time>2011-02-20T11:40:35Z</time>
      </trkpt>
      <trkpt lat="43.59257" lon="6.73977">
        <ele>244.723663</ele>
        <time>2011-02-20T11:40:39Z</time>
      </trkpt>
      <trkpt lat="43.59257" lon="6.7397">
        <ele>245.209839</ele>
        <time>2011-02-20T11:40:41Z</time>
      </trkpt>
      <trkpt lat="43.59255" lon="6.73964">
        <ele>245.343231</ele>
        <time>2011-02-20T11:40:43Z</time>
      </trkpt>
      <trkpt lat="43.59255" lon="6.73953">
        <ele>246.179413</ele>
        <time>2011-02-20T11:40:47Z</time>
      </trkpt>
      <trkpt lat="43.59251" lon="6.7394">
        <ele>246.552261</ele>
        <time>2011-02-20T11:40:52Z</time>
      </trkpt>
      <trkpt lat="43.59244" lon="6.73919">
        <ele>247.844406</ele>
        <time>2011-02-20T11:41:00Z</time>
      </trkpt>
      <trkpt lat="43.59225" lon="6.73852">
        <ele>251.542816</ele>
        <time>2011-02-20T11:41:24Z</time>
      </trkpt>
      <trkpt lat="43.59214" lon="6.73822">
        <ele>252.896393</ele>
        <time>2011-02-20T11:41:35Z</time>
      </trkpt>
      <trkpt lat="43.59214" lon="6.73822">
        <ele>252.896393</ele>
        <time>2011-02-20T11:41:45Z</time>
      </trkpt>
      <trkpt lat="43.59195" lon="6.73779">
        <ele>255.299957</ele>
        <time>2011-02-20T11:41:54Z</time>
      </trkpt>
      <trkpt lat="43.59193" lon="6.73777">
        <ele>255.104156</ele>
        <time>2011-02-20T11:41:55Z</time>
      </trkpt>
      <trkpt lat="43.59167" lon="6.73737">
        <ele>256.961365</ele>
        <time>2011-02-20T11:42:13Z</time>
      </trkpt>
      <trkpt lat="43.59158" lon="6.73726">
        <ele>257.311279</ele>
        <time>2011-02-20T11:42:18Z</time>
      </trkpt>
      <trkpt lat="43.59118" lon="6.73664">
        <ele>261.890961</ele>
        <time>2011-02-20T11:42:45Z</time>
      </trkpt>
      <trkpt lat="43.59105" lon="6.73646">
        <ele>262.388824</ele>
        <time>2011-02-20T11:42:53Z</time>
      </trkpt>
      <trkpt lat="43.59098" lon="6.73631">
        <ele>263.531067</ele>
        <time>2011-02-20T11:42:59Z</time>
      </trkpt>
      <trkpt lat="43.59081" lon="6.73619">
        <ele>263.614594</ele>
        <time>2011-02-20T11:43:08Z</time>
      </trkpt>
      <trkpt lat="43.5907" lon="6.73604">
        <ele>264.924866</ele>
        <time>2011-02-20T11:43:15Z</time>
      </trkpt>
      <trkpt lat="43.59068" lon="6.73599">
        <ele>265.206116</ele>
        <time>2011-02-20T11:43:17Z</time>
      </trkpt>
      <trkpt lat="43.59064" lon="6.73595">
        <ele>265.240814</ele>
        <time>2011-02-20T11:43:19Z</time>
      </trkpt>
      <trkpt lat="43.59055" lon="6.7358">
        <ele>266.192474</ele>
        <time>2011-02-20T11:43:25Z</time>
      </trkpt>
      <trkpt lat="43.59023" lon="6.73537">
        <ele>267.9953</ele>
        <time>2011-02-20T11:43:44Z</time>
      </trkpt>
      <trkpt lat="43.58999" lon="6.73501">
        <ele>264.718353</ele>
        <time>2011-02-20T11:43:59Z</time>
      </trkpt>
      <trkpt lat="43.59055" lon="6.73273">
        <ele>270.245728</ele>
        <time>2011-02-20T11:44:41Z</time>
      </trkpt>
      <trkpt lat="43.59055" lon="6.73267">
        <ele>270.27121</ele>
        <time>2011-02-20T11:44:42Z</time>
      </trkpt>
      <trkpt lat="43.59055" lon="6.73222">
        <ele>270.677338</ele>
        <time>2011-02-20T11:44:49Z</time>
      </trkpt>
      <trkpt lat="43.59017" lon="6.73131">
        <ele>268.047699</ele>
        <time>2011-02-20T11:45:04Z</time>
      </trkpt>
      <trkpt lat="43.59006" lon="6.73116">
        <ele>268.385895</ele>
        <time>2011-02-20T11:45:07Z</time>
      </trkpt>
      <trkpt lat="43.58954" lon="6.73069">
        <ele>266.530884</ele>
        <time>2011-02-20T11:45:18Z</time>
      </trkpt>
      <trkpt lat="43.58929" lon="6.73048">
        <ele>263.152069</ele>
        <time>2011-02-20T11:45:23Z</time>
      </trkpt>
      <trkpt lat="43.58905" lon="6.73028">
        <ele>262.908905</ele>
        <time>2011-02-20T11:45:28Z</time>
      </trkpt>
      <trkpt lat="43.58886" lon="6.73011">
        <ele>265.920898</ele>
        <time>2011-02-20T11:45:32Z</time>
      </trkpt>
      <trkpt lat="43.58881" lon="6.73007">
        <ele>266.755493</ele>
        <time>2011-02-20T11:45:33Z</time>
      </trkpt>
      <trkpt lat="43.58862" lon="6.7299">
        <ele>269.841309</ele>
        <time>2011-02-20T11:45:37Z</time>
      </trkpt>
      <trkpt lat="43.58847" lon="6.72977">
        <ele>271.49054</ele>
        <time>2011-02-20T11:45:40Z</time>
      </trkpt>
      <trkpt lat="43.58843" lon="6.72973">
        <ele>272.007416</ele>
        <time>2011-02-20T11:45:41Z</time>
      </trkpt>
      <trkpt lat="43.58766" lon="6.7294">
        <ele>257.676544</ele>
        <time>2011-02-20T11:45:48Z</time>
      </trkpt>
      <trkpt lat="43.58763" lon="6.7293">
        <ele>257.547394</ele>
        <time>2011-02-20T11:45:49Z</time>
      </trkpt>
      <trkpt lat="43.5874" lon="6.72923">
        <ele>254.738998</ele>
        <time>2011-02-20T11:45:53Z</time>
      </trkpt>
      <trkpt lat="43.58729" lon="6.72934">
        <ele>254.724075</ele>
        <time>2011-02-20T11:45:55Z</time>
      </trkpt>
      <trkpt lat="43.58699" lon="6.72968">
        <ele>251.047943</ele>
        <time>2011-02-20T11:46:01Z</time>
      </trkpt>
      <trkpt lat="43.58669" lon="6.72975">
        <ele>250.138474</ele>
        <time>2011-02-20T11:46:06Z</time>
      </trkpt>
      <trkpt lat="43.58562" lon="6.72966">
        <ele>253.540222</ele>
        <time>2011-02-20T11:46:24Z</time>
      </trkpt>
      <trkpt lat="43.58521" lon="6.72962">
        <ele>251.443054</ele>
        <time>2011-02-20T11:46:37Z</time>
      </trkpt>
      <trkpt lat="43.58512" lon="6.72958">
        <ele>251.414902</ele>
        <time>2011-02-20T11:46:40Z</time>
      </trkpt>
      <trkpt lat="43.58508" lon="6.72956">
        <ele>251.210571</ele>
        <time>2011-02-20T11:46:42Z</time>
      </trkpt>
      <trkpt lat="43.58504" lon="6.72951">
        <ele>251.291275</ele>
        <time>2011-02-20T11:46:44Z</time>
      </trkpt>
      <trkpt lat="43.58495" lon="6.72936">
        <ele>252.063614</ele>
        <time>2011-02-20T11:46:49Z</time>
      </trkpt>
      <trkpt lat="43.58476" lon="6.72872">
        <ele>254.477051</ele>
        <time>2011-02-20T11:47:09Z</time>
      </trkpt>
      <trkpt lat="43.58457" lon="6.72807">
        <ele>258.419128</ele>
        <time>2011-02-20T11:47:30Z</time>
      </trkpt>
      <trkpt lat="43.58452" lon="6.72792">
        <ele>259.200867</ele>
        <time>2011-02-20T11:47:35Z</time>
      </trkpt>
      <trkpt lat="43.58424" lon="6.7279">
        <ele>259.45813</ele>
        <time>2011-02-20T11:47:46Z</time>
      </trkpt>
      <trkpt lat="43.58422" lon="6.7279">
        <ele>259.916077</ele>
        <time>2011-02-20T11:47:47Z</time>
      </trkpt>
      <trkpt lat="43.58414" lon="6.72801">
        <ele>261.35672</ele>
        <time>2011-02-20T11:47:52Z</time>
      </trkpt>
      <trkpt lat="43.58409" lon="6.7281">
        <ele>261.903717</ele>
        <time>2011-02-20T11:47:55Z</time>
      </trkpt>
      <trkpt lat="43.58403" lon="6.7282">
        <ele>262.473663</ele>
        <time>2011-02-20T11:48:00Z</time>
      </trkpt>
      <trkpt lat="43.58399" lon="6.72825">
        <ele>263.00824</ele>
        <time>2011-02-20T11:48:02Z</time>
      </trkpt>
      <trkpt lat="43.58392" lon="6.72829">
        <ele>263.932831</ele>
        <time>2011-02-20T11:48:06Z</time>
      </trkpt>
      <trkpt lat="43.58382" lon="6.72835">
        <ele>265.399902</ele>
        <time>2011-02-20T11:48:11Z</time>
      </trkpt>
      <trkpt lat="43.58379" lon="6.72835">
        <ele>265.66449</ele>
        <time>2011-02-20T11:48:12Z</time>
      </trkpt>
      <trkpt lat="43.58362" lon="6.72844">
        <ele>266.825378</ele>
        <time>2011-02-20T11:48:20Z</time>
      </trkpt>
      <trkpt lat="43.58345" lon="6.72848">
        <ele>267.968689</ele>
        <time>2011-02-20T11:48:28Z</time>
      </trkpt>
      <trkpt lat="43.58328" lon="6.7285">
        <ele>268.6091</ele>
        <time>2011-02-20T11:48:35Z</time>
      </trkpt>
      <trkpt lat="43.58317" lon="6.7285">
        <ele>268.888306</ele>
        <time>2011-02-20T11:48:39Z</time>
      </trkpt>
      <trkpt lat="43.58294" lon="6.72846">
        <ele>270.267853</ele>
        <time>2011-02-20T11:48:50Z</time>
      </trkpt>
      <trkpt lat="43.58242" lon="6.72837">
        <ele>270.01886</ele>
        <time>2011-02-20T11:49:12Z</time>
      </trkpt>
      <trkpt lat="43.58231" lon="6.72835">
        <ele>269.242706</ele>
        <time>2011-02-20T11:49:17Z</time>
      </trkpt>
      <trkpt lat="43.5818" lon="6.7282">
        <ele>265.83551</ele>
        <time>2011-02-20T11:49:39Z</time>
      </trkpt>
      <trkpt lat="43.5816" lon="6.72816">
        <ele>263.822205</ele>
        <time>2011-02-20T11:49:47Z</time>
      </trkpt>
      <trkpt lat="43.5816" lon="6.72816">
        <ele>263.822205</ele>
        <time>2011-02-20T11:50:10Z</time>
      </trkpt>
      <trkpt lat="43.5816" lon="6.72816">
        <ele>263.822205</ele>
        <time>2011-02-20T11:50:31Z</time>
      </trkpt>
      <trkpt lat="43.5816" lon="6.72816">
        <ele>263.822205</ele>
        <time>2011-02-20T11:50:53Z</time>
      </trkpt>
      <trkpt lat="43.58055" lon="6.72593">
        <ele>290.524567</ele>
        <time>2011-02-20T11:51:07Z</time>
      </trkpt>
      <trkpt lat="43.58051" lon="6.72593">
        <ele>291.029205</ele>
        <time>2011-02-20T11:51:08Z</time>
      </trkpt>
      <trkpt lat="43.5804" lon="6.72604">
        <ele>291.175262</ele>
        <time>2011-02-20T11:51:14Z</time>
      </trkpt>
      <trkpt lat="43.58" lon="6.72638">
        <ele>292.982239</ele>
        <time>2011-02-20T11:51:33Z</time>
      </trkpt>
      <trkpt lat="43.57948" lon="6.72655">
        <ele>296.379669</ele>
        <time>2011-02-20T11:51:54Z</time>
      </trkpt>
      <trkpt lat="43.57924" lon="6.72662">
        <ele>296.87085</ele>
        <time>2011-02-20T11:52:04Z</time>
      </trkpt>
      <trkpt lat="43.57922" lon="6.72662">
        <ele>296.995178</ele>
        <time>2011-02-20T11:52:05Z</time>
      </trkpt>
      <trkpt lat="43.57916" lon="6.72659">
        <ele>297.73877</ele>
        <time>2011-02-20T11:52:08Z</time>
      </trkpt>
      <trkpt lat="43.57897" lon="6.72657">
        <ele>299.215454</ele>
        <time>2011-02-20T11:52:17Z</time>
      </trkpt>
      <trkpt lat="43.57888" lon="6.72657">
        <ele>299.405975</ele>
        <time>2011-02-20T11:52:21Z</time>
      </trkpt>
      <trkpt lat="43.57867" lon="6.72664">
        <ele>298.735901</ele>
        <time>2011-02-20T11:52:30Z</time>
      </trkpt>
      <trkpt lat="43.57862" lon="6.72664">
        <ele>298.811157</ele>
        <time>2011-02-20T11:52:32Z</time>
      </trkpt>
      <trkpt lat="43.57852" lon="6.72664">
        <ele>299.003784</ele>
        <time>2011-02-20T11:52:36Z</time>
      </trkpt>
      <trkpt lat="43.57839" lon="6.72659">
        <ele>299.991241</ele>
        <time>2011-02-20T11:52:42Z</time>
      </trkpt>
      <trkpt lat="43.57826" lon="6.72653">
        <ele>301.171753</ele>
        <time>2011-02-20T11:52:49Z</time>
      </trkpt>
      <trkpt lat="43.57781" lon="6.72659">
        <ele>302.739838</ele>
        <time>2011-02-20T11:53:09Z</time>
      </trkpt>
      <trkpt lat="43.5777" lon="6.72662">
        <ele>303.39978</ele>
        <time>2011-02-20T11:53:13Z</time>
      </trkpt>
      <trkpt lat="43.57753" lon="6.72666">
        <ele>304.331696</ele>
        <time>2011-02-20T11:53:21Z</time>
      </trkpt>
      <trkpt lat="43.57686" lon="6.72662">
        <ele>306.319427</ele>
        <time>2011-02-20T11:53:47Z</time>
      </trkpt>
      <trkpt lat="43.5768" lon="6.72647">
        <ele>306.68158</ele>
        <time>2011-02-20T11:53:51Z</time>
      </trkpt>
      <trkpt lat="43.57673" lon="6.72629">
        <ele>307.0065</ele>
        <time>2011-02-20T11:53:55Z</time>
      </trkpt>
      <trkpt lat="43.5768" lon="6.7258">
        <ele>307.811676</ele>
        <time>2011-02-20T11:53:59Z</time>
      </trkpt>
      <trkpt lat="43.5768" lon="6.7258">
        <ele>307.811676</ele>
        <time>2011-02-20T11:54:11Z</time>
      </trkpt>
      <trkpt lat="43.57678" lon="6.72582">
        <ele>307.774353</ele>
        <time>2011-02-20T11:54:14Z</time>
      </trkpt>
      <trkpt lat="43.5768" lon="6.72582">
        <ele>307.777008</ele>
        <time>2011-02-20T11:54:20Z</time>
      </trkpt>
      <trkpt lat="43.57678" lon="6.72582">
        <ele>307.774353</ele>
        <time>2011-02-20T11:54:26Z</time>
      </trkpt>
      <trkpt lat="43.57678" lon="6.72582">
        <ele>307.774353</ele>
        <time>2011-02-20T11:54:30Z</time>
      </trkpt>
      <trkpt lat="43.57671" lon="6.72582">
        <ele>307.729218</ele>
        <time>2011-02-20T11:54:33Z</time>
      </trkpt>
      <trkpt lat="43.57669" lon="6.7258">
        <ele>307.711578</ele>
        <time>2011-02-20T11:54:34Z</time>
      </trkpt>
      <trkpt lat="43.57615" lon="6.72556">
        <ele>307.192108</ele>
        <time>2011-02-20T11:54:47Z</time>
      </trkpt>
      <trkpt lat="43.57527" lon="6.72505">
        <ele>307.534515</ele>
        <time>2011-02-20T11:55:02Z</time>
      </trkpt>
      <trkpt lat="43.5739" lon="6.72365">
        <ele>306</ele>
        <time>2011-02-20T11:55:32Z</time>
      </trkpt>
      <trkpt lat="43.57306" lon="6.72282">
        <ele>306.833923</ele>
        <time>2011-02-20T11:55:53Z</time>
      </trkpt>
      <trkpt lat="43.57191" lon="6.72127">
        <ele>307.644836</ele>
        <time>2011-02-20T11:56:23Z</time>
      </trkpt>
      <trkpt lat="43.57118" lon="6.72084">
        <ele>309.095001</ele>
        <time>2011-02-20T11:56:36Z</time>
      </trkpt>
      <trkpt lat="43.57111" lon="6.72078">
        <ele>309.202759</ele>
        <time>2011-02-20T11:56:37Z</time>
      </trkpt>
      <trkpt lat="43.57036" lon="6.72003">
        <ele>309.771606</ele>
        <time>2011-02-20T11:56:55Z</time>
      </trkpt>
      <trkpt lat="43.56944" lon="6.71855">
        <ele>306.062866</ele>
        <time>2011-02-20T11:57:22Z</time>
      </trkpt>
      <trkpt lat="43.5694" lon="6.71844">
        <ele>306.11554</ele>
        <time>2011-02-20T11:57:24Z</time>
      </trkpt>
      <trkpt lat="43.56888" lon="6.71698">
        <ele>307.396088</ele>
        <time>2011-02-20T11:57:48Z</time>
      </trkpt>
      <trkpt lat="43.56824" lon="6.71529">
        <ele>307.734467</ele>
        <time>2011-02-20T11:58:15Z</time>
      </trkpt>
      <trkpt lat="43.56776" lon="6.71415">
        <ele>311.47937</ele>
        <time>2011-02-20T11:58:34Z</time>
      </trkpt>
      <trkpt lat="43.5677" lon="6.71408">
        <ele>312.112366</ele>
        <time>2011-02-20T11:58:36Z</time>
      </trkpt>
      <trkpt lat="43.56761" lon="6.71406">
        <ele>312.637512</ele>
        <time>2011-02-20T11:58:41Z</time>
      </trkpt>
      <trkpt lat="43.56759" lon="6.71404">
        <ele>312.839386</ele>
        <time>2011-02-20T11:58:42Z</time>
      </trkpt>
      <trkpt lat="43.56751" lon="6.71415">
        <ele>312.809906</ele>
        <time>2011-02-20T11:58:52Z</time>
      </trkpt>
      <trkpt lat="43.56751" lon="6.71417">
        <ele>312.719788</ele>
        <time>2011-02-20T11:58:53Z</time>
      </trkpt>
      <trkpt lat="43.56751" lon="6.71419">
        <ele>312.629517</ele>
        <time>2011-02-20T11:59:12Z</time>
      </trkpt>
      <trkpt lat="43.56753" lon="6.71415">
        <ele>312.696503</ele>
        <time>2011-02-20T12:01:53Z</time>
      </trkpt>
      <trkpt lat="43.56667" lon="6.7126">
        <ele>315.333984</ele>
        <time>2011-02-20T12:02:24Z</time>
      </trkpt>
      <trkpt lat="43.56652" lon="6.71235">
        <ele>315.22522</ele>
        <time>2011-02-20T12:02:30Z</time>
      </trkpt>
      <trkpt lat="43.56592" lon="6.71179">
        <ele>316.467407</ele>
        <time>2011-02-20T12:02:51Z</time>
      </trkpt>
      <trkpt lat="43.56489" lon="6.71074">
        <ele>320.2211</ele>
        <time>2011-02-20T12:03:26Z</time>
      </trkpt>
      <trkpt lat="43.56416" lon="6.70969">
        <ele>316.340393</ele>
        <time>2011-02-20T12:03:48Z</time>
      </trkpt>
      <trkpt lat="43.56401" lon="6.70941">
        <ele>315.226135</ele>
        <time>2011-02-20T12:03:53Z</time>
      </trkpt>
      <trkpt lat="43.56375" lon="6.70874">
        <ele>316.681091</ele>
        <time>2011-02-20T12:04:04Z</time>
      </trkpt>
      <trkpt lat="43.56364" lon="6.70866">
        <ele>317.26535</ele>
        <time>2011-02-20T12:04:07Z</time>
      </trkpt>
      <trkpt lat="43.56292" lon="6.70823">
        <ele>319.930298</ele>
        <time>2011-02-20T12:04:28Z</time>
      </trkpt>
      <trkpt lat="43.56234" lon="6.7078">
        <ele>321.062164</ele>
        <time>2011-02-20T12:04:47Z</time>
      </trkpt>
      <trkpt lat="43.56174" lon="6.70707">
        <ele>322.213379</ele>
        <time>2011-02-20T12:05:11Z</time>
      </trkpt>
      <trkpt lat="43.56156" lon="6.70696">
        <ele>323.039032</ele>
        <time>2011-02-20T12:05:17Z</time>
      </trkpt>
      <trkpt lat="43.56079" lon="6.70668">
        <ele>328.878448</ele>
        <time>2011-02-20T12:05:47Z</time>
      </trkpt>
      <trkpt lat="43.56058" lon="6.70653">
        <ele>330.785919</ele>
        <time>2011-02-20T12:05:57Z</time>
      </trkpt>
      <trkpt lat="43.55989" lon="6.70602">
        <ele>332.041504</ele>
        <time>2011-02-20T12:06:25Z</time>
      </trkpt>
      <trkpt lat="43.55873" lon="6.70481">
        <ele>336.229767</ele>
        <time>2011-02-20T12:07:11Z</time>
      </trkpt>
      <trkpt lat="43.55826" lon="6.70428">
        <ele>339.350128</ele>
        <time>2011-02-20T12:07:31Z</time>
      </trkpt>
      <trkpt lat="43.55807" lon="6.70398">
        <ele>339.37616</ele>
        <time>2011-02-20T12:07:41Z</time>
      </trkpt>
      <trkpt lat="43.55792" lon="6.70366">
        <ele>339.048157</ele>
        <time>2011-02-20T12:07:48Z</time>
      </trkpt>
      <trkpt lat="43.55721" lon="6.7019">
        <ele>335.5177</ele>
        <time>2011-02-20T12:08:16Z</time>
      </trkpt>
      <trkpt lat="43.55719" lon="6.70181">
        <ele>335.164978</ele>
        <time>2011-02-20T12:08:17Z</time>
      </trkpt>
      <trkpt lat="43.55712" lon="6.7016">
        <ele>334.310944</ele>
        <time>2011-02-20T12:08:20Z</time>
      </trkpt>
      <trkpt lat="43.55701" lon="6.70142">
        <ele>333.772186</ele>
        <time>2011-02-20T12:08:23Z</time>
      </trkpt>
      <trkpt lat="43.55693" lon="6.70145">
        <ele>333.530426</ele>
        <time>2011-02-20T12:08:26Z</time>
      </trkpt>
      <trkpt lat="43.55693" lon="6.70145">
        <ele>333.530426</ele>
        <time>2011-02-20T12:08:27Z</time>
      </trkpt>
      <trkpt lat="43.55693" lon="6.70145">
        <ele>333.530426</ele>
        <time>2011-02-20T12:08:47Z</time>
      </trkpt>
      <trkpt lat="43.55689" lon="6.70149">
        <ele>333.571381</ele>
        <time>2011-02-20T12:08:52Z</time>
      </trkpt>
      <trkpt lat="43.55633" lon="6.70177">
        <ele>330.772797</ele>
        <time>2011-02-20T12:09:04Z</time>
      </trkpt>
      <trkpt lat="43.55603" lon="6.70194">
        <ele>327.400635</ele>
        <time>2011-02-20T12:09:09Z</time>
      </trkpt>
      <trkpt lat="43.55577" lon="6.70209">
        <ele>325.94754</ele>
        <time>2011-02-20T12:09:13Z</time>
      </trkpt>
      <trkpt lat="43.55472" lon="6.70269">
        <ele>325.787415</ele>
        <time>2011-02-20T12:09:29Z</time>
      </trkpt>
      <trkpt lat="43.5542" lon="6.70237">
        <ele>323.017578</ele>
        <time>2011-02-20T12:09:37Z</time>
      </trkpt>
      <trkpt lat="43.5541" lon="6.7022">
        <ele>321.955322</ele>
        <time>2011-02-20T12:09:39Z</time>
      </trkpt>
      <trkpt lat="43.55373" lon="6.70168">
        <ele>322.491089</ele>
        <time>2011-02-20T12:09:46Z</time>
      </trkpt>
      <trkpt lat="43.55365" lon="6.70162">
        <ele>321.914825</ele>
        <time>2011-02-20T12:09:47Z</time>
      </trkpt>
      <trkpt lat="43.55358" lon="6.70157">
        <ele>321.816406</ele>
        <time>2011-02-20T12:09:48Z</time>
      </trkpt>
      <trkpt lat="43.55341" lon="6.70151">
        <ele>321.008301</ele>
        <time>2011-02-20T12:09:50Z</time>
      </trkpt>
      <trkpt lat="43.55313" lon="6.70147">
        <ele>319.558868</ele>
        <time>2011-02-20T12:09:53Z</time>
      </trkpt>
      <trkpt lat="43.55304" lon="6.70147">
        <ele>318.728851</ele>
        <time>2011-02-20T12:09:54Z</time>
      </trkpt>
      <trkpt lat="43.55285" lon="6.70142">
        <ele>317.46698</ele>
        <time>2011-02-20T12:09:56Z</time>
      </trkpt>
      <trkpt lat="43.55268" lon="6.70134">
        <ele>317.027161</ele>
        <time>2011-02-20T12:09:58Z</time>
      </trkpt>
      <trkpt lat="43.55236" lon="6.70115">
        <ele>314.206055</ele>
        <time>2011-02-20T12:10:02Z</time>
      </trkpt>
      <trkpt lat="43.55201" lon="6.70039">
        <ele>310.005707</ele>
        <time>2011-02-20T12:10:10Z</time>
      </trkpt>
      <trkpt lat="43.55199" lon="6.70029">
        <ele>309.559662</ele>
        <time>2011-02-20T12:10:11Z</time>
      </trkpt>
      <trkpt lat="43.55191" lon="6.69971">
        <ele>305.607239</ele>
        <time>2011-02-20T12:10:16Z</time>
      </trkpt>
      <trkpt lat="43.55169" lon="6.69932">
        <ele>303.903412</ele>
        <time>2011-02-20T12:10:20Z</time>
      </trkpt>
      <trkpt lat="43.55154" lon="6.69915">
        <ele>303.0271</ele>
        <time>2011-02-20T12:10:22Z</time>
      </trkpt>
      <trkpt lat="43.55116" lon="6.69876">
        <ele>299.996918</ele>
        <time>2011-02-20T12:10:27Z</time>
      </trkpt>
      <trkpt lat="43.55101" lon="6.69863">
        <ele>297.993774</ele>
        <time>2011-02-20T12:10:29Z</time>
      </trkpt>
      <trkpt lat="43.55051" lon="6.69855">
        <ele>299.763794</ele>
        <time>2011-02-20T12:10:36Z</time>
      </trkpt>
      <trkpt lat="43.55045" lon="6.69855">
        <ele>300.501373</ele>
        <time>2011-02-20T12:10:37Z</time>
      </trkpt>
      <trkpt lat="43.5503" lon="6.69836">
        <ele>303.951508</ele>
        <time>2011-02-20T12:10:41Z</time>
      </trkpt>
      <trkpt lat="43.55019" lon="6.69818">
        <ele>306.089691</ele>
        <time>2011-02-20T12:10:46Z</time>
      </trkpt>
      <trkpt lat="43.55017" lon="6.69812">
        <ele>306.421021</ele>
        <time>2011-02-20T12:10:48Z</time>
      </trkpt>
      <trkpt lat="43.55017" lon="6.6981">
        <ele>306.417877</ele>
        <time>2011-02-20T12:10:49Z</time>
      </trkpt>
      <trkpt lat="43.55015" lon="6.69806">
        <ele>306.763184</ele>
        <time>2011-02-20T12:10:51Z</time>
      </trkpt>
      <trkpt lat="43.55013" lon="6.69799">
        <ele>307.11618</ele>
        <time>2011-02-20T12:10:53Z</time>
      </trkpt>
      <trkpt lat="43.55004" lon="6.69767">
        <ele>308.664398</ele>
        <time>2011-02-20T12:11:05Z</time>
      </trkpt>
      <trkpt lat="43.54995" lon="6.69722">
        <ele>310.02713</ele>
        <time>2011-02-20T12:11:22Z</time>
      </trkpt>
      <trkpt lat="43.54995" lon="6.6972">
        <ele>310.013611</ele>
        <time>2011-02-20T12:11:23Z</time>
      </trkpt>
      <trkpt lat="43.54976" lon="6.6966">
        <ele>314.254669</ele>
        <time>2011-02-20T12:11:47Z</time>
      </trkpt>
      <trkpt lat="43.54965" lon="6.6961">
        <ele>315.381531</ele>
        <time>2011-02-20T12:12:05Z</time>
      </trkpt>
      <trkpt lat="43.54957" lon="6.69582">
        <ele>316.730194</ele>
        <time>2011-02-20T12:12:16Z</time>
      </trkpt>
      <trkpt lat="43.54955" lon="6.69569">
        <ele>317.382294</ele>
        <time>2011-02-20T12:12:22Z</time>
      </trkpt>
      <trkpt lat="43.54953" lon="6.69554">
        <ele>318.222137</ele>
        <time>2011-02-20T12:12:29Z</time>
      </trkpt>
      <trkpt lat="43.54946" lon="6.69531">
        <ele>320.532867</ele>
        <time>2011-02-20T12:12:41Z</time>
      </trkpt>
      <trkpt lat="43.5494" lon="6.69499">
        <ele>322.936829</ele>
        <time>2011-02-20T12:12:56Z</time>
      </trkpt>
      <trkpt lat="43.54933" lon="6.69466">
        <ele>324.712891</ele>
        <time>2011-02-20T12:13:11Z</time>
      </trkpt>
      <trkpt lat="43.54927" lon="6.69458">
        <ele>326.305634</ele>
        <time>2011-02-20T12:13:16Z</time>
      </trkpt>
      <trkpt lat="43.54925" lon="6.69471">
        <ele>327.053528</ele>
        <time>2011-02-20T12:13:23Z</time>
      </trkpt>
      <trkpt lat="43.5492" lon="6.69542">
        <ele>328.051697</ele>
        <time>2011-02-20T12:13:48Z</time>
      </trkpt>
      <trkpt lat="43.54918" lon="6.69569">
        <ele>327.941772</ele>
        <time>2011-02-20T12:13:59Z</time>
      </trkpt>
      <trkpt lat="43.54916" lon="6.69585">
        <ele>328.566254</ele>
        <time>2011-02-20T12:14:05Z</time>
      </trkpt>
      <trkpt lat="43.54918" lon="6.696">
        <ele>328.011383</ele>
        <time>2011-02-20T12:14:11Z</time>
      </trkpt>
      <trkpt lat="43.54923" lon="6.6963">
        <ele>326.901611</ele>
        <time>2011-02-20T12:14:23Z</time>
      </trkpt>
      <trkpt lat="43.54925" lon="6.69655">
        <ele>328.04541</ele>
        <time>2011-02-20T12:14:34Z</time>
      </trkpt>
      <trkpt lat="43.54923" lon="6.69664">
        <ele>329.460541</ele>
        <time>2011-02-20T12:14:37Z</time>
      </trkpt>
      <trkpt lat="43.5492" lon="6.69677">
        <ele>331.283447</ele>
        <time>2011-02-20T12:14:42Z</time>
      </trkpt>
      <trkpt lat="43.54918" lon="6.69685">
        <ele>332.797913</ele>
        <time>2011-02-20T12:14:45Z</time>
      </trkpt>
      <trkpt lat="43.54916" lon="6.69688">
        <ele>333.786163</ele>
        <time>2011-02-20T12:14:46Z</time>
      </trkpt>
      <trkpt lat="43.54899" lon="6.69769">
        <ele>338.761108</ele>
        <time>2011-02-20T12:15:14Z</time>
      </trkpt>
      <trkpt lat="43.5489" lon="6.69797">
        <ele>340.686005</ele>
        <time>2011-02-20T12:15:27Z</time>
      </trkpt>
      <trkpt lat="43.54888" lon="6.69814">
        <ele>341.773407</ele>
        <time>2011-02-20T12:15:35Z</time>
      </trkpt>
      <trkpt lat="43.54884" lon="6.69825">
        <ele>342.807953</ele>
        <time>2011-02-20T12:15:41Z</time>
      </trkpt>
      <trkpt lat="43.54884" lon="6.69848">
        <ele>343.240692</ele>
        <time>2011-02-20T12:15:54Z</time>
      </trkpt>
      <trkpt lat="43.54884" lon="6.6987">
        <ele>343.648102</ele>
        <time>2011-02-20T12:16:05Z</time>
      </trkpt>
      <trkpt lat="43.54882" lon="6.69881">
        <ele>344.262848</ele>
        <time>2011-02-20T12:16:11Z</time>
      </trkpt>
      <trkpt lat="43.54882" lon="6.69921">
        <ele>346.132233</ele>
        <time>2011-02-20T12:16:30Z</time>
      </trkpt>
      <trkpt lat="43.5488" lon="6.69945">
        <ele>347.763153</ele>
        <time>2011-02-20T12:16:41Z</time>
      </trkpt>
      <trkpt lat="43.54871" lon="6.70001">
        <ele>354.060974</ele>
        <time>2011-02-20T12:17:05Z</time>
      </trkpt>
      <trkpt lat="43.54867" lon="6.70029">
        <ele>354.600555</ele>
        <time>2011-02-20T12:17:17Z</time>
      </trkpt>
      <trkpt lat="43.54865" lon="6.70037">
        <ele>355.081909</ele>
        <time>2011-02-20T12:17:21Z</time>
      </trkpt>
      <trkpt lat="43.54858" lon="6.70059">
        <ele>356.834137</ele>
        <time>2011-02-20T12:17:29Z</time>
      </trkpt>
      <trkpt lat="43.54858" lon="6.70076">
        <ele>356.496307</ele>
        <time>2011-02-20T12:17:36Z</time>
      </trkpt>
      <trkpt lat="43.54858" lon="6.7011">
        <ele>355.835205</ele>
        <time>2011-02-20T12:17:47Z</time>
      </trkpt>
      <trkpt lat="43.54856" lon="6.70134">
        <ele>356.226105</ele>
        <time>2011-02-20T12:17:53Z</time>
      </trkpt>
      <trkpt lat="43.54858" lon="6.70207">
        <ele>351.974701</ele>
        <time>2011-02-20T12:18:11Z</time>
      </trkpt>
      <trkpt lat="43.54854" lon="6.70245">
        <ele>349.493408</ele>
        <time>2011-02-20T12:18:19Z</time>
      </trkpt>
      <trkpt lat="43.54852" lon="6.70254">
        <ele>349.078003</ele>
        <time>2011-02-20T12:18:21Z</time>
      </trkpt>
      <trkpt lat="43.54847" lon="6.70286">
        <ele>345.460602</ele>
        <time>2011-02-20T12:18:28Z</time>
      </trkpt>
      <trkpt lat="43.54845" lon="6.7029">
        <ele>345.40979</ele>
        <time>2011-02-20T12:18:29Z</time>
      </trkpt>
      <trkpt lat="43.54841" lon="6.70318">
        <ele>343.19458</ele>
        <time>2011-02-20T12:18:35Z</time>
      </trkpt>
      <trkpt lat="43.54839" lon="6.70333">
        <ele>343.113922</ele>
        <time>2011-02-20T12:18:39Z</time>
      </trkpt>
      <trkpt lat="43.54835" lon="6.70359">
        <ele>342.273621</ele>
        <time>2011-02-20T12:18:45Z</time>
      </trkpt>
      <trkpt lat="43.54835" lon="6.70363">
        <ele>342.11261</ele>
        <time>2011-02-20T12:18:46Z</time>
      </trkpt>
      <trkpt lat="43.54832" lon="6.70376">
        <ele>340.950684</ele>
        <time>2011-02-20T12:18:49Z</time>
      </trkpt>
      <trkpt lat="43.54832" lon="6.70385">
        <ele>339.891754</ele>
        <time>2011-02-20T12:18:51Z</time>
      </trkpt>
      <trkpt lat="43.5483" lon="6.70396">
        <ele>338.503998</ele>
        <time>2011-02-20T12:18:54Z</time>
      </trkpt>
      <trkpt lat="43.54822" lon="6.70402">
        <ele>337.560974</ele>
        <time>2011-02-20T12:18:57Z</time>
      </trkpt>
      <trkpt lat="43.5482" lon="6.70404">
        <ele>337.285248</ele>
        <time>2011-02-20T12:18:58Z</time>
      </trkpt>
      <trkpt lat="43.548" lon="6.70404">
        <ele>337.035767</ele>
        <time>2011-02-20T12:19:03Z</time>
      </trkpt>
      <trkpt lat="43.54792" lon="6.70404">
        <ele>336.94458</ele>
        <time>2011-02-20T12:19:05Z</time>
      </trkpt>
      <trkpt lat="43.54779" lon="6.70402">
        <ele>335.90567</ele>
        <time>2011-02-20T12:19:08Z</time>
      </trkpt>
      <trkpt lat="43.5477" lon="6.70402">
        <ele>335.062256</ele>
        <time>2011-02-20T12:19:10Z</time>
      </trkpt>
      <trkpt lat="43.54712" lon="6.70439">
        <ele>330.131866</ele>
        <time>2011-02-20T12:19:20Z</time>
      </trkpt>
      <trkpt lat="43.54629" lon="6.70488">
        <ele>328.22049</ele>
        <time>2011-02-20T12:19:34Z</time>
      </trkpt>
      <trkpt lat="43.5459" lon="6.70518">
        <ele>326.178406</ele>
        <time>2011-02-20T12:19:41Z</time>
      </trkpt>
      <trkpt lat="43.54519" lon="6.70539">
        <ele>322.443634</ele>
        <time>2011-02-20T12:19:51Z</time>
      </trkpt>
      <trkpt lat="43.54489" lon="6.7055">
        <ele>320.13916</ele>
        <time>2011-02-20T12:19:55Z</time>
      </trkpt>
      <trkpt lat="43.54459" lon="6.70565">
        <ele>317.431763</ele>
        <time>2011-02-20T12:19:59Z</time>
      </trkpt>
      <trkpt lat="43.54431" lon="6.70569">
        <ele>315.680664</ele>
        <time>2011-02-20T12:20:03Z</time>
      </trkpt>
      <trkpt lat="43.54425" lon="6.70567">
        <ele>315.524353</ele>
        <time>2011-02-20T12:20:04Z</time>
      </trkpt>
      <trkpt lat="43.54369" lon="6.70554">
        <ele>312.594086</ele>
        <time>2011-02-20T12:20:12Z</time>
      </trkpt>
      <trkpt lat="43.5435" lon="6.70552">
        <ele>311.807709</ele>
        <time>2011-02-20T12:20:15Z</time>
      </trkpt>
      <trkpt lat="43.54294" lon="6.7055">
        <ele>309.084686</ele>
        <time>2011-02-20T12:20:22Z</time>
      </trkpt>
      <trkpt lat="43.54285" lon="6.7055">
        <ele>308.588593</ele>
        <time>2011-02-20T12:20:23Z</time>
      </trkpt>
      <trkpt lat="43.54275" lon="6.70527">
        <ele>310.409637</ele>
        <time>2011-02-20T12:20:27Z</time>
      </trkpt>
      <trkpt lat="43.54275" lon="6.70522">
        <ele>310.859253</ele>
        <time>2011-02-20T12:20:28Z</time>
      </trkpt>
      <trkpt lat="43.54275" lon="6.70514">
        <ele>311.756897</ele>
        <time>2011-02-20T12:20:30Z</time>
      </trkpt>
      <trkpt lat="43.54275" lon="6.70501">
        <ele>311.895813</ele>
        <time>2011-02-20T12:20:33Z</time>
      </trkpt>
      <trkpt lat="43.54275" lon="6.70496">
        <ele>311.898529</ele>
        <time>2011-02-20T12:20:34Z</time>
      </trkpt>
      <trkpt lat="43.54279" lon="6.70469">
        <ele>312.31311</ele>
        <time>2011-02-20T12:20:41Z</time>
      </trkpt>
      <trkpt lat="43.543" lon="6.70303">
        <ele>312.03775</ele>
        <time>2011-02-20T12:21:10Z</time>
      </trkpt>
      <trkpt lat="43.543" lon="6.70297">
        <ele>312.018097</ele>
        <time>2011-02-20T12:21:11Z</time>
      </trkpt>
      <trkpt lat="43.5432" lon="6.70224">
        <ele>312.473816</ele>
        <time>2011-02-20T12:21:23Z</time>
      </trkpt>
      <trkpt lat="43.5435" lon="6.7016">
        <ele>312.167114</ele>
        <time>2011-02-20T12:21:35Z</time>
      </trkpt>
      <trkpt lat="43.54371" lon="6.70102">
        <ele>311.192047</ele>
        <time>2011-02-20T12:21:46Z</time>
      </trkpt>
      <trkpt lat="43.54354" lon="6.70089">
        <ele>311.977997</ele>
        <time>2011-02-20T12:21:51Z</time>
      </trkpt>
      <trkpt lat="43.54341" lon="6.70082">
        <ele>311.447723</ele>
        <time>2011-02-20T12:21:55Z</time>
      </trkpt>
      <trkpt lat="43.5432" lon="6.70074">
        <ele>310.580933</ele>
        <time>2011-02-20T12:22:00Z</time>
      </trkpt>
      <trkpt lat="43.54296" lon="6.70061">
        <ele>308.313293</ele>
        <time>2011-02-20T12:22:05Z</time>
      </trkpt>
      <trkpt lat="43.54279" lon="6.70057">
        <ele>305.822754</ele>
        <time>2011-02-20T12:22:09Z</time>
      </trkpt>
      <trkpt lat="43.54251" lon="6.70046">
        <ele>301.973267</ele>
        <time>2011-02-20T12:22:15Z</time>
      </trkpt>
      <trkpt lat="43.54229" lon="6.70039">
        <ele>299.059448</ele>
        <time>2011-02-20T12:22:20Z</time>
      </trkpt>
      <trkpt lat="43.54221" lon="6.70037">
        <ele>297.896576</ele>
        <time>2011-02-20T12:22:23Z</time>
      </trkpt>
      <trkpt lat="43.54208" lon="6.70033">
        <ele>295.658234</ele>
        <time>2011-02-20T12:22:27Z</time>
      </trkpt>
      <trkpt lat="43.54178" lon="6.70027">
        <ele>290.312714</ele>
        <time>2011-02-20T12:22:35Z</time>
      </trkpt>
      <trkpt lat="43.54163" lon="6.70024">
        <ele>284.561951</ele>
        <time>2011-02-20T12:22:39Z</time>
      </trkpt>
      <trkpt lat="43.54159" lon="6.70022">
        <ele>282.980713</ele>
        <time>2011-02-20T12:22:40Z</time>
      </trkpt>
      <trkpt lat="43.54161" lon="6.70014">
        <ele>284.822876</ele>
        <time>2011-02-20T12:22:42Z</time>
      </trkpt>
      <trkpt lat="43.54172" lon="6.69999">
        <ele>289.769531</ele>
        <time>2011-02-20T12:22:51Z</time>
      </trkpt>
      <trkpt lat="43.54172" lon="6.69999">
        <ele>289.769531</ele>
        <time>2011-02-20T12:22:53Z</time>
      </trkpt>
      <trkpt lat="43.54172" lon="6.69997">
        <ele>289.88208</ele>
        <time>2011-02-20T12:22:57Z</time>
      </trkpt>
      <trkpt lat="43.54172" lon="6.69994">
        <ele>289.994751</ele>
        <time>2011-02-20T12:23:05Z</time>
      </trkpt>
    </trkseg>
  </trk>
</gpx>